[[{"header":{"parameterUnit":"m.s-1","parameterCategory":1,"la1":30.6,"la2":29.2853,"lo1":-89.7004,"lo2":-87.6739,"dx":0.0162,"dy":0.0183,"nx":112,"ny":82,"refTime":"2022-12-07T06:00:00:Z","depth":0,"parameterNumber":2,"parameterNumberName":"U-component_of_WINDS"},"data":[0.0,0.0,0.0,0.0,0.0,0.0,0.0,0.0,0.0,0.0,0.0,0.0,0.0,0.0,0.0,0.0,0.0,0.0,0.0,0.0,0.0,0.0,0.0,0.0,0.0,0.0,0.0,0.0,0.0,0.0,0.0,0.0,0.0,0.0,0.0,0.0,0.0,0.0,0.0,0.0,0.0,0.0,0.0,0.0,0.0,0.0,0.0,0.0,0.0,0.0,0.0,0.0,0.0,0.0,0.0,0.0,0.0,0.0,0.0,0.0,0.0,0.0,0.0,0.0,0.0,0.0,0.0,0.0,0.0,0.0,0.0,0.0,0.0,0.0,0.0,0.0,0.0,0.0,0.0,0.0,0.0,0.0,0.0,0.0,0.0,0.0,0.0,0.0,0.0,0.0,-3.234,-3.3061,-3.3144,-3.3395,-3.3847,-3.3018,-3.2859,-3.3723,0.0,0.0,0.0,0.0,0.0,0.0,0.0,0.0,0.0,0.0,0.0,0.0,0.0,0.0,0.0,0.0,0.0,0.0,0.0,0.0,0.0,0.0,0.0,0.0,0.0,0.0,0.0,0.0,0.0,0.0,0.0,0.0,0.0,0.0,0.0,0.0,0.0,0.0,0.0,0.0,0.0,0.0,0.0,0.0,0.0,0.0,0.0,0.0,0.0,0.0,0.0,0.0,0.0,0.0,0.0,0.0,0.0,0.0,0.0,0.0,0.0,0.0,0.0,0.0,0.0,0.0,0.0,0.0,0.0,0.0,0.0,0.0,0.0,0.0,0.0,0.0,0.0,0.0,0.0,0.0,0.0,0.0,0.0,0.0,0.0,0.0,0.0,0.0,0.0,0.0,0.0,0.0,0.0,0.0,0.0,0.0,0.0,0.0,0.0,0.0,0.0,0.0,0.0,0.0,-3.1913,-3.3011,-3.3495,-3.3796,-3.3897,-3.3746,-3.3665,-3.3777,0.0,0.0,0.0,0.0,0.0,0.0,0.0,0.0,0.0,0.0,0.0,0.0,0.0,0.0,0.0,0.0,0.0,0.0,0.0,0.0,0.0,0.0,0.0,0.0,0.0,0.0,0.0,0.0,0.0,0.0,0.0,0.0,0.0,0.0,0.0,0.0,0.0,0.0,0.0,0.0,0.0,0.0,0.0,0.0,0.0,0.0,0.0,0.0,0.0,0.0,0.0,0.0,0.0,0.0,0.0,0.0,0.0,0.0,0.0,0.0,0.0,0.0,0.0,0.0,0.0,0.0,0.0,0.0,0.0,0.0,0.0,0.0,0.0,0.0,0.0,0.0,0.0,0.0,0.0,0.0,0.0,0.0,0.0,0.0,0.0,0.0,0.0,0.0,0.0,0.0,0.0,0.0,0.0,0.0,0.0,0.0,0.0,0.0,0.0,0.0,0.0,0.0,0.0,-3.2139,-3.2491,-3.3061,-3.3294,-3.3571,-3.3872,-3.3897,-3.3999,-3.4239,-3.3761,0.0,0.0,0.0,0.0,0.0,0.0,0.0,0.0,0.0,0.0,0.0,0.0,0.0,0.0,0.0,0.0,0.0,0.0,0.0,0.0,0.0,0.0,0.0,0.0,0.0,0.0,0.0,0.0,0.0,0.0,0.0,0.0,0.0,0.0,0.0,0.0,0.0,0.0,0.0,0.0,0.0,0.0,0.0,0.0,0.0,0.0,0.0,0.0,0.0,0.0,0.0,0.0,0.0,0.0,0.0,0.0,0.0,0.0,0.0,0.0,0.0,0.0,0.0,0.0,0.0,0.0,0.0,0.0,0.0,0.0,0.0,0.0,0.0,0.0,0.0,0.0,0.0,0.0,0.0,0.0,0.0,0.0,0.0,0.0,0.0,0.0,0.0,0.0,0.0,0.0,0.0,0.0,0.0,0.0,0.0,0.0,0.0,0.0,0.0,0.0,0.0,0.0,-3.2031,-3.2717,-3.2921,-3.2939,-3.3158,-3.3671,-3.3696,-3.3879,-3.4376,-3.4414,0.0,0.0,0.0,0.0,0.0,0.0,0.0,0.0,0.0,0.0,0.0,0.0,0.0,0.0,0.0,0.0,0.0,0.0,0.0,0.0,0.0,0.0,0.0,0.0,0.0,0.0,0.0,0.0,0.0,0.0,0.0,0.0,0.0,0.0,0.0,0.0,0.0,0.0,0.0,0.0,0.0,0.0,0.0,0.0,0.0,0.0,0.0,0.0,0.0,0.0,0.0,0.0,0.0,0.0,0.0,0.0,0.0,0.0,0.0,0.0,0.0,0.0,0.0,0.0,0.0,0.0,0.0,0.0,0.0,0.0,0.0,0.0,0.0,0.0,0.0,0.0,0.0,0.0,0.0,0.0,0.0,0.0,0.0,0.0,0.0,0.0,0.0,0.0,0.0,0.0,0.0,0.0,0.0,0.0,0.0,0.0,0.0,0.0,0.0,0.0,0.0,0.0,-3.0767,-3.1498,-3.2362,-3.2444,-3.2618,-3.3144,-3.3187,-3.3332,-3.373,-3.3765,0.0,0.0,0.0,0.0,0.0,0.0,0.0,0.0,0.0,0.0,0.0,0.0,0.0,0.0,0.0,0.0,0.0,0.0,0.0,0.0,0.0,0.0,0.0,0.0,0.0,0.0,0.0,0.0,0.0,0.0,0.0,0.0,0.0,0.0,0.0,0.0,0.0,0.0,0.0,0.0,0.0,0.0,0.0,0.0,0.0,0.0,0.0,0.0,0.0,0.0,0.0,0.0,0.0,0.0,0.0,0.0,0.0,0.0,0.0,0.0,0.0,0.0,0.0,0.0,0.0,0.0,0.0,0.0,0.0,0.0,0.0,0.0,0.0,0.0,0.0,0.0,0.0,0.0,0.0,0.0,0.0,0.0,0.0,0.0,0.0,0.0,0.0,0.0,0.0,0.0,0.0,0.0,0.0,0.0,0.0,0.0,0.0,0.0,0.0,0.0,0.0,0.0,-3.0926,-3.1886,0.0,-3.2593,-3.2723,-3.3068,-3.3395,-3.3454,-3.3041,0.0,0.0,0.0,0.0,0.0,0.0,0.0,0.0,0.0,0.0,0.0,0.0,0.0,0.0,0.0,0.0,0.0,0.0,0.0,0.0,0.0,0.0,0.0,0.0,0.0,0.0,0.0,0.0,0.0,0.0,0.0,0.0,0.0,0.0,0.0,0.0,0.0,0.0,0.0,0.0,0.0,0.0,0.0,0.0,0.0,0.0,0.0,0.0,0.0,0.0,0.0,0.0,0.0,0.0,0.0,0.0,0.0,0.0,0.0,0.0,0.0,0.0,0.0,0.0,0.0,0.0,0.0,0.0,0.0,0.0,0.0,0.0,0.0,0.0,0.0,0.0,0.0,0.0,0.0,0.0,0.0,0.0,0.0,0.0,0.0,0.0,0.0,0.0,0.0,0.0,0.0,0.0,0.0,0.0,0.0,0.0,0.0,0.0,0.0,0.0,0.0,0.0,-2.913,-2.9992,-3.0979,0.0,-3.2264,-3.2506,-3.2853,-3.3333,-3.3411,-3.2892,0.0,0.0,0.0,0.0,0.0,0.0,0.0,0.0,0.0,0.0,0.0,0.0,0.0,0.0,0.0,0.0,0.0,0.0,0.0,0.0,0.0,0.0,0.0,0.0,0.0,0.0,0.0,0.0,0.0,0.0,0.0,0.0,0.0,0.0,0.0,0.0,0.0,0.0,0.0,0.0,0.0,0.0,0.0,0.0,0.0,0.0,0.0,0.0,0.0,0.0,0.0,0.0,0.0,0.0,0.0,0.0,0.0,0.0,0.0,0.0,0.0,0.0,0.0,0.0,0.0,0.0,0.0,0.0,0.0,0.0,0.0,0.0,0.0,0.0,0.0,0.0,0.0,0.0,0.0,0.0,0.0,0.0,0.0,0.0,0.0,0.0,0.0,0.0,0.0,0.0,0.0,0.0,0.0,0.0,0.0,0.0,0.0,0.0,0.0,0.0,0.0,0.0,-2.7525,-2.7678,-2.847,-3.0668,-3.1383,-3.1893,-3.2356,-3.2835,-3.32,0.0,0.0,0.0,0.0,0.0,0.0,0.0,0.0,0.0,0.0,0.0,0.0,0.0,0.0,0.0,0.0,0.0,0.0,0.0,0.0,0.0,0.0,0.0,0.0,0.0,0.0,0.0,0.0,0.0,0.0,0.0,0.0,0.0,0.0,0.0,0.0,0.0,0.0,0.0,0.0,0.0,0.0,0.0,0.0,0.0,0.0,0.0,0.0,0.0,0.0,0.0,0.0,0.0,0.0,0.0,0.0,0.0,0.0,0.0,0.0,0.0,0.0,0.0,0.0,0.0,0.0,0.0,0.0,0.0,0.0,0.0,0.0,0.0,0.0,0.0,0.0,0.0,0.0,0.0,0.0,0.0,0.0,0.0,0.0,0.0,0.0,0.0,0.0,0.0,0.0,0.0,0.0,0.0,0.0,0.0,0.0,0.0,0.0,0.0,0.0,0.0,0.0,0.0,-2.9316,-2.9014,-2.9303,-3.0982,-3.1496,-3.1893,-3.2356,-3.2983,-3.3158,-3.2599,0.0,0.0,0.0,0.0,0.0,0.0,0.0,0.0,0.0,0.0,0.0,0.0,0.0,0.0,0.0,0.0,0.0,0.0,0.0,0.0,0.0,0.0,0.0,0.0,0.0,0.0,0.0,0.0,0.0,0.0,0.0,0.0,0.0,0.0,0.0,0.0,0.0,0.0,0.0,0.0,0.0,0.0,0.0,0.0,0.0,0.0,0.0,0.0,0.0,0.0,0.0,0.0,0.0,0.0,0.0,0.0,0.0,0.0,0.0,0.0,0.0,0.0,0.0,0.0,0.0,0.0,0.0,0.0,0.0,0.0,0.0,0.0,0.0,0.0,0.0,0.0,0.0,0.0,0.0,0.0,0.0,0.0,0.0,0.0,0.0,0.0,0.0,0.0,0.0,0.0,0.0,0.0,0.0,0.0,0.0,0.0,0.0,0.0,0.0,0.0,0.0,0.0,-2.9036,-2.8664,-2.8961,-3.056,-3.1203,-3.1822,-3.2658,-3.331,-3.3435,-3.2897,0.0,0.0,0.0,0.0,0.0,0.0,0.0,0.0,0.0,0.0,0.0,0.0,0.0,0.0,0.0,0.0,0.0,0.0,0.0,0.0,0.0,0.0,0.0,0.0,0.0,0.0,0.0,0.0,0.0,0.0,0.0,0.0,0.0,0.0,0.0,0.0,0.0,0.0,0.0,0.0,0.0,0.0,0.0,0.0,0.0,0.0,0.0,0.0,0.0,0.0,0.0,0.0,0.0,0.0,0.0,0.0,0.0,0.0,0.0,0.0,0.0,0.0,0.0,0.0,0.0,0.0,0.0,0.0,0.0,0.0,0.0,0.0,0.0,0.0,0.0,0.0,0.0,0.0,0.0,0.0,0.0,0.0,0.0,0.0,0.0,0.0,0.0,0.0,0.0,0.0,0.0,0.0,0.0,0.0,0.0,0.0,0.0,0.0,0.0,0.0,0.0,0.0,-2.7586,-2.7427,-2.7889,-2.9771,-3.0673,-3.1685,-3.3026,-3.3584,-3.3885,-3.3836,0.0,0.0,0.0,0.0,0.0,0.0,0.0,0.0,0.0,0.0,0.0,0.0,0.0,0.0,0.0,0.0,0.0,0.0,0.0,0.0,0.0,0.0,0.0,0.0,0.0,0.0,0.0,0.0,0.0,0.0,0.0,0.0,0.0,0.0,0.0,0.0,0.0,0.0,0.0,0.0,0.0,0.0,0.0,0.0,0.0,0.0,0.0,0.0,0.0,0.0,0.0,0.0,0.0,0.0,0.0,0.0,0.0,0.0,0.0,0.0,-2.437,0.0,0.0,0.0,0.0,0.0,0.0,0.0,0.0,0.0,0.0,0.0,0.0,0.0,0.0,0.0,0.0,0.0,0.0,0.0,0.0,0.0,0.0,0.0,0.0,0.0,0.0,0.0,0.0,0.0,0.0,0.0,0.0,0.0,0.0,0.0,0.0,0.0,0.0,0.0,0.0,0.0,-2.855,-2.8041,-2.8293,-3.0158,-3.073,-3.1422,-3.2559,-3.3291,-3.3599,-3.3377,-3.3325,0.0,0.0,0.0,0.0,0.0,0.0,0.0,0.0,0.0,0.0,0.0,0.0,0.0,0.0,0.0,0.0,0.0,0.0,0.0,0.0,0.0,0.0,0.0,0.0,0.0,0.0,0.0,0.0,0.0,0.0,0.0,0.0,0.0,0.0,0.0,0.0,0.0,0.0,0.0,0.0,0.0,0.0,0.0,0.0,0.0,0.0,0.0,0.0,0.0,0.0,0.0,0.0,0.0,0.0,0.0,0.0,0.0,0.0,0.0,0.0,-2.491,0.0,0.0,0.0,0.0,0.0,0.0,0.0,0.0,0.0,0.0,0.0,0.0,0.0,0.0,0.0,0.0,0.0,0.0,0.0,0.0,0.0,0.0,0.0,0.0,0.0,0.0,0.0,0.0,0.0,0.0,0.0,0.0,0.0,0.0,0.0,0.0,0.0,0.0,0.0,0.0,-2.8152,-2.75,-2.7594,-2.9521,-3.0392,-3.1367,-3.2734,-3.3669,-3.4102,-3.3982,-3.4195,0.0,0.0,0.0,0.0,0.0,0.0,0.0,0.0,0.0,0.0,0.0,0.0,0.0,0.0,0.0,0.0,0.0,0.0,0.0,0.0,0.0,0.0,0.0,0.0,0.0,0.0,0.0,0.0,0.0,0.0,0.0,0.0,0.0,0.0,0.0,0.0,0.0,0.0,0.0,0.0,0.0,0.0,0.0,0.0,0.0,0.0,0.0,0.0,0.0,0.0,0.0,0.0,0.0,-3.1473,-3.142,-3.1378,-3.1153,-3.1061,-3.1013,-3.0024,-2.8275,-2.6117,-2.5733,0.0,0.0,0.0,0.0,0.0,0.0,0.0,0.0,0.0,0.0,0.0,0.0,0.0,0.0,0.0,0.0,0.0,0.0,0.0,0.0,0.0,0.0,-2.2039,-2.4398,-2.4988,-2.5088,-2.5595,0.0,0.0,0.0,0.0,0.0,0.0,0.0,0.0,0.0,0.0,0.0,-2.7399,-2.6836,-2.6945,-2.8827,-2.9891,-3.1081,-3.265,-3.3621,-3.4115,-3.4115,-3.4507,-3.422,0.0,0.0,0.0,0.0,0.0,0.0,0.0,0.0,0.0,0.0,0.0,0.0,0.0,0.0,0.0,0.0,0.0,0.0,0.0,0.0,0.0,0.0,0.0,0.0,0.0,0.0,0.0,0.0,0.0,0.0,0.0,0.0,-2.7128,-2.5325,0.0,0.0,0.0,0.0,0.0,0.0,0.0,0.0,0.0,0.0,0.0,0.0,0.0,-3.0381,-2.9983,-3.016,-3.0306,-3.0361,-3.214,-3.2989,-3.3061,-3.4288,-3.4866,-3.4843,-3.4198,0.0,-2.9316,-2.7464,0.0,0.0,0.0,0.0,0.0,0.0,0.0,0.0,0.0,0.0,0.0,0.0,0.0,0.0,0.0,0.0,0.0,0.0,0.0,0.0,0.0,0.0,-2.2354,-2.5024,-2.567,-2.5839,-2.6321,-2.5654,-2.4908,-2.4846,-2.5657,-2.6261,0.0,0.0,0.0,0.0,0.0,0.0,-2.7559,-2.74,-2.7756,-2.9274,-2.9545,-3.0037,-3.1043,-3.1249,-3.1351,-3.1351,-3.1381,-3.1316,-3.1114,-3.0998,0.0,0.0,0.0,0.0,0.0,0.0,0.0,0.0,0.0,0.0,0.0,0.0,0.0,0.0,0.0,0.0,0.0,0.0,0.0,0.0,0.0,0.0,0.0,0.0,0.0,0.0,0.0,0.0,0.0,-2.5197,-2.6001,-2.3896,-2.528,-2.5614,0.0,0.0,0.0,0.0,0.0,0.0,0.0,0.0,0.0,-2.8731,-3.1016,-3.2277,-3.2298,-3.3477,-3.4222,-3.4535,-3.5125,-3.5426,-3.5449,-3.58,-3.5985,-3.6008,-3.5718,-3.4912,-3.3595,-3.0687,-2.8742,-2.7586,0.0,0.0,0.0,0.0,-2.6564,-2.6453,-2.6123,-2.5401,-2.4581,-2.431,0.0,0.0,0.0,0.0,0.0,0.0,0.0,-2.0352,-2.1688,-2.2668,-2.3788,-2.5703,-2.6237,-2.6423,-2.6538,-2.6487,-2.634,-2.6141,-2.6231,-2.6218,-2.5894,-2.5853,0.0,0.0,0.0,-2.5736,-2.6162,-2.6717,-2.7508,-2.8579,-2.9587,-3.0327,-3.0663,-3.1251,-3.1508,-3.1249,-3.1227,-3.109,-3.0772,-3.0777,-3.0541,0.0,0.0,0.0,0.0,0.0,0.0,0.0,0.0,0.0,0.0,0.0,0.0,0.0,0.0,0.0,0.0,0.0,0.0,0.0,0.0,0.0,0.0,0.0,0.0,0.0,0.0,0.0,0.0,-2.5122,-2.6067,-2.3655,-2.5517,-2.6212,0.0,0.0,0.0,0.0,0.0,0.0,-2.8746,-3.0663,-3.1577,-3.1113,-3.3147,-3.4364,-3.4598,-3.6244,-3.722,-3.7548,-3.7173,-3.6958,-3.6874,-3.6309,-3.6036,-3.6036,-3.5895,-3.595,-3.5939,-3.3069,-3.1085,-2.9691,-2.9077,-2.9026,-2.9288,-2.9288,-2.9349,-2.9406,-2.9233,-2.8271,-2.7128,-2.6951,-2.5954,-2.4882,-2.4771,0.0,0.0,0.0,0.0,-2.157,-2.2658,-2.3814,-2.5064,-2.6368,-2.6755,-2.6911,-2.7122,-2.7386,-2.741,-2.7027,-2.6678,-2.6319,-2.5971,-2.5708,0.0,0.0,0.0,-2.5322,-2.5737,-2.6385,-2.71,-2.7939,-2.9189,-2.9948,-2.9882,-3.0706,-3.1148,-3.0863,-3.0893,-3.0726,-3.0328,-3.0257,-3.004,-2.9656,0.0,0.0,0.0,0.0,0.0,0.0,0.0,0.0,0.0,0.0,0.0,0.0,0.0,0.0,0.0,0.0,0.0,0.0,0.0,0.0,0.0,0.0,0.0,0.0,0.0,0.0,0.0,0.0,0.0,-2.7052,-2.8331,0.0,0.0,0.0,0.0,-3.0041,-3.0326,-3.0577,-3.1089,-3.2865,-3.3839,-3.3781,-3.5827,-3.6694,-3.6179,-3.6565,-3.6611,-3.6386,-3.658,-3.6603,-3.6332,-3.5708,-3.5433,-3.5433,-3.4847,-3.4568,-3.4526,-3.3485,-3.3307,-3.352,-3.1182,-3.0486,-3.0687,-3.0687,-3.0407,-2.9875,-2.9214,-2.7899,-2.6328,-2.5608,-2.4349,-2.2949,-2.2584,-2.225,0.0,0.0,-2.2199,-2.2621,-2.4225,-2.4937,-2.5544,-2.6993,-2.7187,-2.7335,-2.8513,-2.841,-2.7817,-2.6949,-2.71,-2.7149,-2.6644,0.0,-2.6245,-2.6846,-2.6249,-2.6166,-2.743,-2.7122,-2.7043,-2.7653,-2.7785,-2.7842,-2.7823,-2.8446,-2.8765,-2.8746,-2.8936,-2.905,-2.8996,-2.8245,-2.7865,-2.7813,-2.8819,0.0,0.0,0.0,0.0,0.0,0.0,0.0,0.0,0.0,0.0,0.0,0.0,0.0,0.0,0.0,0.0,0.0,0.0,0.0,0.0,0.0,0.0,0.0,0.0,0.0,0.0,0.0,0.0,-2.9326,-3.0726,0.0,-2.9611,-2.9254,-2.954,-3.0632,-3.1962,-3.284,-3.303,-3.4928,-3.5982,-3.5963,-3.669,-3.7036,-3.682,-3.6904,-3.6904,-3.682,-3.6709,-3.6594,-3.6506,-3.5981,-3.5773,-3.5773,-3.5566,-3.5566,-3.5615,-3.4216,-3.39,-3.4227,-3.3354,-3.2878,-3.2595,-3.2595,-3.2202,-3.1619,-3.1111,-3.0016,-2.8628,-2.7319,-2.6514,-2.5848,-2.4643,-2.4238,-2.403,-2.329,-2.3675,-2.4482,-2.5378,-2.6489,-2.7268,-2.6489,-2.6522,-2.654,-2.5755,-2.6109,-2.6342,-2.5665,-2.6637,-2.7437,-2.6819,-2.5611,-2.5007,-2.5887,-2.5205,-2.4978,-2.6079,-2.6787,-2.7262,-2.7495,-2.8137,-2.8443,-2.811,-2.8265,-2.8309,-2.8049,-2.8445,-2.8705,-2.8705,-2.8552,-2.8476,-2.8476,-2.8608,-2.8582,0.0,0.0,0.0,0.0,0.0,0.0,0.0,0.0,0.0,0.0,0.0,0.0,0.0,0.0,0.0,0.0,0.0,0.0,0.0,0.0,0.0,0.0,0.0,0.0,0.0,0.0,-3.1303,-3.0943,-3.2333,-3.2912,-3.2027,-3.1705,-3.1971,-3.303,-3.4421,-3.5199,-3.5199,-3.6391,-3.7036,-3.6874,-3.6796,-3.6766,-3.6549,-3.6603,-3.6603,-3.6549,-3.6401,-3.6284,-3.6195,-3.601,-3.5887,-3.5909,-3.5947,-3.607,-3.6129,-3.4564,-3.4148,-3.4482,-3.4118,-3.3832,-3.3675,-3.3528,-3.3158,-3.2674,-3.1901,-3.1057,-3.016,-2.8646,-2.8095,-2.7783,-2.6719,-2.6352,-2.6058,-2.5301,-2.5721,-2.6458,-2.6825,-2.7549,-2.7785,-2.6244,-2.5765,-2.5319,-2.4161,-2.4488,-2.4891,-2.4606,-2.6104,-2.7251,-2.6619,-2.5444,-2.4694,-2.5044,-2.4877,-2.4874,-2.5244,-2.6471,-2.7316,-2.7316,-2.792,-2.8212,-2.7902,-2.8102,-2.8111,-2.7821,-2.8423,-2.8804,-2.8804,-2.9157,-2.9355,-2.9355,-2.9082,-2.9004,-2.9141,0.0,0.0,0.0,0.0,0.0,0.0,0.0,0.0,0.0,0.0,0.0,0.0,0.0,0.0,0.0,0.0,0.0,0.0,0.0,0.0,0.0,0.0,0.0,-2.8319,-3.1588,-3.3478,-3.2078,-3.3197,-3.4061,-3.4085,-3.4308,-3.531,-3.74,-3.7542,-3.7542,-3.7542,-3.7251,-3.6874,-3.6332,-3.6332,-3.6004,-3.5423,-3.5698,-3.5698,-3.5423,-3.5698,-3.5721,-3.5468,-3.5658,-3.571,-3.5675,-3.5873,-3.5918,-3.5801,-3.4407,-3.4072,-3.431,-3.3315,-3.3215,-3.3669,-3.3317,-3.3073,-3.2816,-3.1287,-3.0742,-3.049,-2.9353,-2.8682,-2.837,-2.837,-2.8095,-2.7879,-2.8125,-2.8181,-2.8238,-2.8653,-2.7936,-2.7004,-2.6278,-2.4886,-2.3822,-2.4045,-2.3762,-2.3505,-2.384,-2.538,-2.6481,-2.5902,-2.5802,-2.5436,-2.4619,-2.5522,0.0,-2.5146,-2.6205,-2.7012,-2.7012,-2.7073,-2.7073,-2.7073,-2.7599,-2.7942,-2.796,-2.8784,-2.9258,-2.9277,-2.9872,-3.0195,-3.0176,-3.0195,-3.0,-2.9646,0.0,0.0,0.0,0.0,0.0,0.0,0.0,0.0,0.0,0.0,0.0,0.0,0.0,0.0,0.0,0.0,0.0,0.0,0.0,0.0,0.0,0.0,-3.2669,-3.2415,-3.348,-3.4771,-3.6122,-3.577,-3.5689,-3.6197,-3.5631,-3.5584,-3.6588,-3.6657,-3.6657,-3.6657,-3.6603,-3.644,-3.6332,-3.6332,-3.6223,-3.6059,-3.6114,-3.6114,-3.6059,-3.6281,-3.6329,-3.6296,-3.6453,-3.5887,-3.4843,-3.5193,-3.4727,-3.3599,-3.2498,-3.2382,-3.2969,-3.2629,-3.2195,-3.174,-3.1623,-3.078,-2.9677,-2.9214,-2.8855,-2.8536,-2.821,-2.8079,-2.793,-2.793,-2.7914,-2.7934,-2.8459,-2.8321,-2.8162,-2.8747,-2.7825,-2.6303,-2.4617,-2.3321,-2.212,-2.0797,-2.1186,-2.1777,-2.186,-2.3101,-2.4024,-2.3917,-2.3059,-2.2657,-2.3363,-2.3007,0.0,-2.3559,-2.4826,-2.5639,-2.5639,-2.651,-2.7073,-2.7073,-2.6996,-2.7063,-2.7358,-2.8179,-2.879,-2.9046,-2.9795,-3.0059,-2.9746,-3.0039,-3.0137,0.0,0.0,0.0,0.0,0.0,0.0,0.0,0.0,0.0,0.0,0.0,0.0,0.0,0.0,0.0,0.0,0.0,0.0,0.0,0.0,0.0,0.0,-3.1739,-3.4686,-3.5241,-3.5449,-3.6038,-3.7459,-3.6724,-3.6279,-3.6719,-3.6218,-3.5956,-3.6309,-3.6332,-3.6332,-3.6332,-3.6332,-3.5982,-3.5356,-3.5356,-3.5002,-3.437,-3.437,-3.437,-3.437,-3.4619,-3.4771,-3.4793,-3.5042,-3.4705,-3.3891,-3.4245,-3.376,-3.2734,-3.1713,-3.1615,0.0,0.0,0.0,0.0,0.0,-2.9655,-2.8645,-2.8645,-2.848,-2.8278,-2.8278,-2.8278,-2.8278,-2.8278,-2.8278,-2.8373,-2.8787,-2.8627,-2.8328,-2.817,-2.7048,-2.5375,-2.3358,-2.2048,-2.0803,-1.9392,-1.9699,-2.0272,-2.0272,-2.0893,0.0,-2.1447,-2.1699,-2.2013,-2.2201,-2.2076,-2.2013,-2.2201,-2.3946,-2.5071,-2.5071,-2.6327,-2.7073,-2.7073,-2.6867,0.0,0.0,0.0,-2.8555,-2.9214,-2.9941,0.0,0.0,0.0,-3.0355,-2.964,-3.0509,0.0,0.0,-2.7991,-2.7678,0.0,0.0,0.0,0.0,0.0,0.0,0.0,0.0,0.0,0.0,0.0,0.0,0.0,0.0,0.0,0.0,-3.2848,-3.5045,-3.6464,-3.6603,-3.6688,-3.685,-3.63,-3.594,-3.5872,-3.5872,-3.5872,-3.5817,-3.5817,-3.5817,-3.5795,0.0,0.0,0.0,0.0,-3.317,-3.1802,-3.1782,-3.1802,-3.1744,-3.2052,-3.2187,-3.2129,-3.2537,-3.2689,-3.2615,-3.271,-3.2539,-3.2166,-3.1209,-3.1046,-3.1333,-3.0257,-3.0176,-3.0552,-2.9782,-2.9287,-2.8975,-2.8975,0.0,0.0,-2.8975,-2.8975,-2.8975,-2.8737,-2.8677,-2.86,-2.848,-2.8361,-2.8044,-2.6987,-2.5635,-2.4086,-2.2347,-2.0929,-1.9826,-1.92,-1.9072,-1.9072,-1.9072,-1.9072,-1.9072,-1.9072,-2.1082,-2.2264,-2.1082,-2.1888,-2.2201,-2.1019,-2.3076,-2.4641,-2.4641,-2.5823,0.0,-2.6891,-2.6806,-2.6772,-2.6823,-2.7237,-2.7977,-2.9234,-2.9916,-3.0253,-3.0291,-3.089,-3.0401,-2.8683,-2.9844,-2.9194,-2.684,-2.8086,-2.7831,0.0,0.0,0.0,0.0,0.0,0.0,0.0,0.0,0.0,0.0,0.0,0.0,0.0,0.0,0.0,-2.9381,-3.1678,-3.3614,-3.3889,-3.365,-3.3923,-3.519,-3.4402,-3.3669,-3.3346,-3.3304,-3.3247,-3.3021,-3.2964,-3.2851,-3.2582,-3.2851,-3.2851,-3.2566,-3.2794,-3.2716,-3.2431,-3.2431,-3.2338,-3.2109,0.0,0.0,-3.1802,-3.1632,-3.1035,-3.0092,-2.9554,-2.9071,-2.8553,-2.8127,-2.8455,-2.9303,-2.9875,-2.997,-2.9745,-2.9269,-2.9048,-2.8975,-2.8975,-2.8975,-2.8975,-2.8975,-2.8975,-2.8737,-2.7108,-2.6608,0.0,-2.5298,-2.4563,-2.4209,-2.4517,-2.3234,-2.1762,-2.1384,-2.0259,-1.9264,-1.9136,-1.9072,-1.9072,-1.9072,-1.9072,-1.9072,-1.9072,-1.952,-1.9763,-1.952,-1.9699,-1.9763,-1.9507,-2.0893,-2.1888,-2.1888,-2.3076,-2.4317,-2.5378,-2.4924,-2.4714,-2.5125,-2.4519,-2.5038,-2.712,-2.7771,-2.8228,-2.8511,-2.9108,-2.8696,-2.7383,-2.7624,-2.6961,-2.5501,-2.6762,-2.6668,0.0,0.0,0.0,0.0,0.0,0.0,0.0,0.0,0.0,0.0,0.0,-2.7349,0.0,0.0,-3.0164,-2.9393,-3.1547,-3.3186,-3.2938,-3.2397,-3.2411,-3.3628,-3.323,-3.2814,-3.2644,-3.2623,-3.2566,-3.2395,-3.2395,-3.2281,-3.1994,-3.2109,-3.1765,-3.0839,-3.0936,-3.0665,-2.9846,-2.967,-2.9611,-2.963,-2.9512,-2.9375,-2.9375,-2.9179,-2.8724,-2.7984,-2.7667,-2.7245,-2.684,-2.6901,-2.7105,-2.7453,-2.8112,-2.8546,-2.8709,-2.8211,-2.802,-2.802,-2.802,-2.802,-2.802,-2.8182,-2.7804,-2.7125,-2.6244,-2.5436,-2.4624,-2.3962,-2.339,-2.2908,-2.2611,-2.1811,-2.0956,-2.0272,-1.9584,-1.9072,-1.9072,-1.9072,-1.9072,-1.9072,-1.9072,-1.9036,-1.8903,-1.8879,-1.8927,-1.906,-1.9072,-1.9072,-1.9072,-2.0259,-2.1082,-2.1082,-2.2327,-2.3328,-2.3841,-2.3428,-2.3213,-2.3501,-2.3035,-2.3303,-2.4619,-2.5575,-2.6159,-2.6486,-2.7469,-2.7306,-2.605,-2.6516,-2.5589,-2.3411,-2.455,-2.4506,0.0,0.0,0.0,0.0,0.0,0.0,0.0,0.0,-2.9336,-3.0927,-2.9797,-2.8661,-2.905,-2.9743,-3.0079,-2.9553,-3.1288,-3.2504,-3.2062,-3.1387,-3.1191,-3.1805,-3.194,-3.196,-3.1879,-3.1822,-3.1822,-3.1822,-3.1687,-3.1514,-3.1303,-3.1303,-3.0607,-2.9098,-2.9098,-2.8522,-2.7194,-2.6935,-2.6874,-2.7012,-2.6692,-2.6692,-2.6891,-2.6753,-2.6631,-2.651,-2.651,-2.6244,-2.5869,-2.6315,-2.6294,-2.6016,-2.6194,-2.6737,-2.7372,-2.6953,-2.6824,-2.6893,-2.6893,-2.6927,-2.6995,-2.7021,-2.6261,-2.533,-2.5024,-2.4024,-2.2846,-2.2625,-2.2361,-2.1923,-2.0943,-2.0703,-2.0449,-1.9392,-1.9072,-1.9072,-1.9072,-1.9036,-1.9,-1.9,-1.8963,-1.8855,-1.865,-1.8613,-1.8698,-1.8963,-1.9,-1.9012,-1.9072,-2.0017,-2.0703,-2.0703,-2.1699,-2.2295,-2.223,-2.1973,-2.183,-2.1712,-2.152,-2.1603,-2.2161,-2.3293,-2.4081,-2.4362,-2.5603,-2.5607,-2.4332,-2.5073,-2.4113,-2.17,-2.2374,-2.2284,-2.6695,0.0,0.0,-2.8946,-2.9796,-3.0483,0.0,0.0,-2.8892,-2.8508,-2.8256,-2.8042,-2.7841,-2.8798,-2.947,-2.9228,-2.9638,-3.0027,-2.9911,-2.9531,-2.9327,-2.939,-2.9688,-2.9762,-2.9409,-2.9153,-2.8975,-2.8975,-2.8421,-2.8044,-2.8044,-2.8044,-2.7924,-2.7744,-2.8002,-2.7942,-2.7461,-2.7401,-2.7159,-2.6631,-2.6631,-2.6449,-2.6189,-2.59,-2.59,-2.6144,-2.6144,-2.566,-2.4848,-2.5694,-2.5907,-2.5569,-2.5277,-2.5252,-2.5403,-2.5929,-2.631,-2.6542,-2.6542,-2.6765,-2.6796,-2.5652,-2.5208,-2.4578,-2.1909,-2.0966,-2.06,-1.9444,-1.9136,-1.9136,-1.9264,-1.9328,-1.9264,-1.9136,-1.9072,-1.9072,-1.9072,-1.8891,-1.8722,-1.8722,-1.8541,-1.8372,-1.8348,-1.8336,-1.8432,-1.8686,-1.8722,-1.8807,-1.9048,-1.92,-1.9328,-1.9328,-1.9456,-1.9802,-2.0341,-2.0259,-2.0047,-1.9672,-1.8608,-1.8677,-2.0137,-2.11,-2.1758,-2.2086,-2.2963,-2.2798,-2.1538,-2.1622,-2.1633,-2.1494,-2.1118,-2.0875,-3.1096,0.0,0.0,0.0,-3.2818,-3.2878,-3.1838,-3.1307,-3.1011,-3.0958,-3.0261,-2.9579,-2.9451,-2.9331,-2.9141,0.0,-2.9179,-2.9232,-2.9232,-2.9085,-2.8975,-2.8975,-2.9122,-2.9159,-2.8993,-2.8874,-2.8815,-2.8815,-2.8319,-2.802,-2.7762,-2.7478,-2.7177,-2.6995,-2.6918,-2.6796,-2.6675,-2.6493,-2.6388,-2.6327,-2.59,-2.5778,-2.5778,-2.5472,-2.5298,-2.521,-2.521,-2.4875,-2.4381,-2.4957,-2.5011,-2.4685,-2.4525,-2.398,-2.3374,-2.4509,-2.4617,-2.4246,-2.4246,-2.3917,-2.3497,-2.3171,-2.2472,-2.1658,-2.0537,-1.9661,-1.8984,-1.8688,-1.8571,-1.8699,-1.9008,-1.9072,-1.9072,-1.9072,-1.9072,-1.9072,-1.9072,-1.8867,-1.8686,-1.8686,-1.8601,-1.8345,-1.7757,-1.8292,-1.8656,-1.8319,-1.853,-1.8782,-1.9048,-1.9072,-1.9072,-1.9072,-1.8939,-1.901,-1.9261,-1.9107,-1.8905,-1.8731,-1.8251,-1.8313,-1.9183,-1.9898,-2.0465,-2.077,-2.1519,-2.165,-2.1109,-2.0873,-2.0658,-2.0448,-1.9983,-1.9694,-3.2932,0.0,0.0,-3.4516,-3.5094,-3.478,-3.3193,-3.264,-3.2404,-3.2019,-3.1091,-3.0295,-3.0295,-2.9509,-2.8856,-2.8975,-2.8934,-2.8856,-2.8993,-2.8975,-2.8975,-2.8975,-2.8856,-2.8792,-2.8841,-2.887,-2.8797,-2.8618,-2.8199,-2.7779,-2.734,-2.6813,-2.6449,-2.6205,-2.6105,-2.6031,-2.5986,-2.5899,-2.5948,-2.6133,-2.5638,-2.5514,-2.5778,-2.5514,-2.5262,-2.5008,-2.5008,-2.4817,-2.4515,-2.477,-2.4658,-2.4341,-2.3907,-2.3172,-2.2328,-2.2931,-2.2673,-2.1996,-2.1996,-2.1638,-2.1069,-2.0929,-2.0233,-1.9419,-1.9483,-1.878,-1.8098,-1.8635,-1.8811,-1.8935,-1.9116,-1.9241,-1.9277,-1.9205,-1.9181,-1.9169,-1.9096,-1.8867,-1.8686,-1.8686,-1.85,-1.8069,-1.7325,-1.7788,-1.8204,-1.8011,-1.8267,-1.8689,-1.9145,-1.912,-1.9072,-1.9072,-1.8843,-1.8686,-1.8686,-1.8444,-1.83,-1.83,-1.836,-1.8481,-1.8674,-1.9323,-1.9701,-1.9826,-2.0362,-2.0617,-2.0539,-2.0331,-2.0015,-1.9638,-1.9299,-1.9075,-2.9695,0.0,-3.2481,-3.3939,-3.5264,-3.5617,-3.3184,-3.2597,-3.1933,-2.9608,-2.9094,-2.9035,-2.9035,-2.8755,-2.8636,-2.8934,-2.8755,-2.8636,-2.8934,-2.8975,-2.8975,-2.8975,-2.8439,-2.8162,0.0,-2.851,-2.8277,-2.7581,-2.6995,-2.6388,-2.57,-2.5349,-2.5165,-2.5165,-2.5794,-2.5909,-2.5628,-2.6263,-2.6424,-2.6184,-2.6184,-2.6184,-2.6184,-2.6184,-2.6168,-2.6168,-2.6168,-2.5898,-2.5596,-2.5533,-2.5389,-2.4949,-2.3497,-2.2923,-2.2673,-2.1281,-2.0668,-2.0566,-2.0566,-2.0815,-2.0879,-1.9546,-1.9036,-1.8908,-1.8291,-1.8033,-1.8162,-1.888,-1.9253,-1.9458,-1.9524,-1.9652,-1.9796,-1.9519,-1.9524,-1.9451,-1.9132,-1.8867,-1.8686,-1.8686,-1.791,-1.7241,-1.7229,-1.6695,-1.6672,-1.7837,-1.8022,-1.8372,-1.9357,-1.9229,-1.9072,-1.9072,-1.8843,-1.8686,-1.8686,-1.8444,-1.83,-1.83,-1.8529,-1.8674,-1.8686,-1.9233,-1.939,-1.9148,-1.939,-1.939,-1.9136,-1.9124,-1.9257,-1.9499,-1.9233,-1.9257,-3.1197,-3.1931,-3.2574,-3.4258,-3.4241,-3.3417,-3.1785,-3.1381,-3.0917,-2.9331,-2.8352,-2.7783,-2.7783,-2.7726,-2.7669,-2.7783,-2.8403,-2.8815,-2.8696,-2.8673,-2.8592,-2.841,-2.8193,0.0,0.0,0.0,0.0,-2.7899,-2.7481,-2.7169,-2.6965,-2.6417,-2.6102,-2.6102,-2.6151,-2.6088,-2.5977,-2.6216,-2.628,-2.62,-2.5914,-2.5691,-2.5453,-2.5453,-2.5453,-2.5453,-2.5453,-2.5389,-2.5278,-2.5278,-2.5214,-2.5012,-2.3702,-2.2702,-2.176,-2.0474,-1.9638,-1.9084,-1.9487,-1.9273,-1.8789,-1.8591,-1.8524,-1.8524,-1.8536,-1.8746,-1.8998,-1.9208,-1.94,-1.9536,-1.9536,-1.9543,-1.9543,-1.9265,-1.9338,-1.9512,-1.935,-1.886,-1.8345,-1.8267,-1.7639,-1.6904,-1.6223,-1.6605,-1.7369,-1.8358,-1.8944,-1.9376,-1.9736,-1.9664,-1.9615,-1.9615,-1.9531,-1.941,-1.9217,-1.912,-1.9,-1.8819,-1.906,-1.9205,-1.9205,-1.9555,-1.9615,-1.9338,-1.9422,-1.9403,-1.9072,-1.9072,-1.912,-1.9205,-1.9289,-1.9483,-3.1769,-3.1993,-3.1966,-3.3634,-3.336,-3.2281,-3.1111,-3.082,-3.047,-2.9272,-2.8022,-2.7178,-2.7066,-2.6701,-2.6409,-2.65,-2.7117,-2.7709,-2.7914,-2.7917,-2.7974,-2.8085,-2.7906,-2.7777,0.0,0.0,0.0,-2.752,-2.7347,-2.7093,-2.6775,-2.6216,-2.5882,-2.5882,-2.5834,-2.5834,-2.5834,-2.6088,-2.6216,-2.62,-2.5929,-2.5691,-2.5485,-2.5485,-2.5282,-2.4887,-2.4887,-2.4632,-2.4291,-2.4291,-2.4291,-2.4178,-2.3023,-2.2109,-2.1198,-2.0062,-1.9186,-1.8597,-1.8783,-1.8517,-1.8127,-1.8385,-1.8452,-1.853,-1.8933,-1.9201,-1.9401,-1.9535,-1.9615,-1.9615,-1.9615,-1.9615,-1.9555,-1.9277,-1.9338,-1.9238,-1.8404,-1.7742,-1.7116,-1.6291,-1.5619,-1.4952,-1.4318,-1.5381,-1.6527,-1.7417,-1.8743,-1.9721,-1.9905,-1.9881,-1.9881,-1.9881,-1.9796,-1.9664,-1.9483,-1.9386,-1.9253,-1.9084,-1.9422,-1.9615,-1.9615,-1.9965,-1.9989,-1.9627,-1.9615,-1.9434,-1.9072,-1.9169,-1.9217,-1.9229,-1.8975,-1.8965,-3.141,-3.1296,-3.0737,-3.2179,-3.2452,-3.2109,-3.0995,-3.0704,-3.0353,-2.9139,-2.793,-2.7012,0.0,0.0,-2.4948,-2.513,-2.5272,-2.571,-2.6842,-2.7009,-2.7246,0.0,0.0,0.0,0.0,0.0,0.0,-2.6583,0.0,-2.6216,-2.5332,-2.4881,-2.4713,-2.4713,-2.4966,-2.5155,-2.5155,-2.585,-2.62,-2.6184,-2.6184,-2.612,-2.6056,-2.6056,-2.5439,-2.4363,-2.4363,-2.3722,-2.2779,-2.2779,-2.2779,-2.2642,-2.1571,-2.1158,-2.102,-2.0017,-1.9332,-1.8985,-1.8518,-1.8564,-1.8844,-1.8844,-1.8833,-1.8889,-1.9291,-1.9413,-1.9468,-1.9814,-1.9881,-1.9869,-1.9869,-1.9869,-1.9796,-1.9519,-1.9393,-1.8734,-1.6374,-1.5794,-1.52,-1.3185,-1.2134,-1.1673,-1.1673,-1.2996,-1.4312,-1.5044,-1.725,-1.9141,-1.9807,-1.9905,-1.9905,-1.9905,-1.9652,-1.9483,-1.9536,-1.9241,-1.9084,-1.9072,-1.9579,-1.9881,-1.9881,-2.0456,-2.0493,-1.9917,-1.9972,-1.9705,-1.9185,-1.9362,-1.9495,-1.9453,-1.8327,-1.7803,-3.1976,-3.147,-3.0811,-3.1186,-3.0587,-2.9844,-2.9549,-2.945,-2.913,-2.7934,-2.6555,-2.5283,0.0,0.0,0.0,-2.5094,-2.6811,0.0,-2.8228,-2.8265,0.0,-2.8179,0.0,-2.7507,-2.7344,-2.6857,0.0,0.0,-2.6264,-2.6216,-2.5959,-2.5865,-2.5818,-2.5818,-2.5881,-2.5945,-2.5945,-2.6104,-2.6073,-2.5771,-2.5771,-2.5185,-2.4074,-2.4074,-2.353,-2.2506,-2.2506,-2.2349,-2.2018,-2.2018,-2.2018,-2.1978,-2.1124,-2.0805,-2.0693,-1.9877,-1.9541,-1.946,-1.9611,-1.9358,-1.9013,-1.9565,-1.9656,-1.956,-1.9967,-1.9903,-1.9814,-1.9881,-1.9736,-1.9567,-1.9567,-1.9567,-1.9376,-1.8582,-1.8143,-1.7456,-1.5791,-1.466,-1.3621,-1.2488,-1.1556,-1.0948,-1.0948,-1.1512,-1.213,-1.2526,-1.3621,-1.5816,-1.9672,-2.0183,-2.0183,-2.0183,-1.9941,-1.97,-1.9548,-1.9475,-1.9289,-1.9084,-1.9579,-1.9881,-1.9881,-2.0661,-2.0784,-2.0183,-2.0712,-2.0672,-2.0072,-1.9248,-1.8977,-1.9105,-1.7898,-1.7511,-3.1558,-3.0824,-3.002,-3.002,-2.9509,-2.8847,-2.8315,-2.8187,-2.7838,-2.6518,-2.5156,0.0,0.0,0.0,0.0,0.0,0.0,0.0,-2.7951,-2.8009,-2.806,0.0,-2.8065,0.0,-2.7426,-2.6987,-2.6552,0.0,-2.6184,-2.6216,-2.6216,-2.6009,-2.5929,-2.5929,-2.5771,-2.5691,-2.5691,-2.5691,-2.5596,-2.5343,-2.4858,-2.4209,-2.3383,-2.2935,-2.2105,-2.106,0.0,-2.0801,-2.0318,-2.0318,-2.0318,-2.0262,-2.0078,-1.9932,-1.9943,-1.9577,-1.9312,-1.9231,-1.9667,-1.9427,-1.9027,-1.991,-1.9974,-1.984,-2.0043,-2.0002,-1.9881,-1.9881,-1.9477,-1.9001,-1.9001,-1.8722,-1.8075,-1.6947,-1.6491,-1.5656,-1.3319,-1.2188,-1.1299,-0.9923,-0.9218,-0.8839,-0.8839,-0.9498,-1.022,-1.0677,-1.2015,-1.4111,-1.7229,-1.8314,-1.9107,-2.0043,-1.9869,-1.9639,-1.9483,-1.8829,-1.8617,-1.9253,-1.8426,-1.8306,-1.9134,-1.9198,-1.907,-1.8665,-1.9164,-1.922,-1.8812,-1.829,-1.8121,-1.8299,-1.7142,-1.6689,-3.0738,-2.9903,-2.8975,-2.8975,-2.8975,-2.8663,-2.7453,-2.7178,-2.6738,-2.5104,0.0,-2.2978,-2.2364,-2.2786,-2.3281,-2.3238,0.0,-2.6254,-2.7199,-2.739,-2.7651,-2.8344,-2.8345,-2.8114,-2.7733,-2.7162,-2.6597,-2.621,-2.6263,-2.6216,-2.6073,-2.5723,-2.5454,-2.5313,-2.5015,-2.4828,-2.4673,-2.4673,-2.4673,-2.4673,-2.3691,-2.3135,-2.2935,-2.2002,-2.0952,-1.9882,-1.9882,-1.9312,-1.839,-1.839,-1.8369,-1.8336,-1.8754,-1.8963,-1.8999,-1.913,-1.8993,-1.8755,-1.9282,-1.9177,-1.9,-1.9931,-2.005,-1.9833,-1.9833,-1.9808,-1.9772,-1.9706,-1.8998,-1.8353,-1.8222,-1.7478,-1.6408,-1.5089,-1.4558,-1.3439,-1.0141,-0.9353,-0.8629,-0.6853,-0.6522,-0.6522,-0.6522,-0.7517,-0.8507,-0.9088,-1.1006,-1.2641,-1.3611,-1.543,-1.7418,-1.9425,-1.9267,-1.9113,-1.9322,-1.7848,-1.7543,-1.8923,-1.6882,-1.632,-1.7927,-1.7172,-1.6728,-1.6621,-1.6902,-1.7034,-1.6926,-1.7077,-1.7166,-1.728,-1.6184,-1.5688,-3.082,-2.9903,-2.8975,-2.8975,-2.8975,-2.8663,-2.7453,-2.7178,0.0,0.0,-2.3175,-2.2487,-2.1217,-2.2145,-2.3286,-2.3871,0.0,0.0,0.0,0.0,-2.8963,0.0,0.0,0.0,0.0,0.0,0.0,0.0,-2.6842,-2.6536,-2.5342,-2.523,-2.4766,-2.3813,-2.3706,-2.3284,-2.2363,-2.2363,-2.2363,-2.2363,-2.2157,-2.1595,-2.0692,-2.0472,-1.9769,-1.8718,-1.8718,0.0,-1.8153,-1.8153,-1.8035,-1.7841,-1.8248,-1.8586,-1.8857,-1.9215,-1.9259,-1.9259,-1.9692,-1.9404,-1.8987,-1.9735,-1.9772,-1.9543,-1.9543,-1.9386,-1.9088,-1.8494,-1.8201,-1.7973,-1.739,-1.6234,-1.5024,-1.4175,-1.266,-1.0948,-0.9166,-0.7846,-0.6915,-0.6585,-0.6522,-0.6522,-0.6522,-0.6719,-0.692,-0.7049,-0.7472,-0.8579,-1.1003,-1.3881,-1.637,-1.7981,-1.7187,-1.7032,-1.8317,-1.7269,-1.6516,-1.6354,-1.6422,-1.6328,-1.6215,-1.6861,-1.7031,-1.6756,-1.7518,-1.7797,-1.7638,-1.6861,-1.6667,-1.6963,-1.5569,-1.5009,-3.002,-2.945,-2.8975,-2.8975,-2.8975,-2.8498,-2.6664,0.0,0.0,0.0,-2.1942,-2.1596,-2.0668,-2.189,0.0,-2.2805,0.0,0.0,0.0,0.0,0.0,0.0,0.0,0.0,0.0,0.0,0.0,0.0,-2.5962,-2.5986,-2.6167,-2.5412,-2.4355,-2.2987,-2.2921,-2.2658,-2.219,-2.219,-2.219,-2.219,-2.1535,-2.099,-2.0433,-1.975,-1.913,-1.8605,-1.8487,-1.8369,-1.8272,-1.8272,-1.8196,-1.8089,-1.8501,-1.8776,-1.897,-1.9174,-1.9264,-1.9308,-1.9515,-1.9452,-1.9236,-1.9711,-1.9603,-1.9201,-1.8865,-1.8653,-1.8366,-1.7647,-1.726,-1.6904,-1.6705,-1.5271,-1.3626,-1.2657,-1.0448,-0.8423,-0.7747,-0.7029,-0.6525,-0.6525,-0.6555,-0.6522,-0.6522,-0.6522,-0.6522,-0.6522,-0.7031,-0.7978,-0.9649,-1.1754,-1.3966,-1.6277,-1.6002,-1.6002,-1.6994,-1.5879,-1.5424,-1.6022,-1.4916,-1.4522,-1.5233,-1.5187,-1.5101,-1.5001,-1.564,-1.5891,-1.5963,-1.5488,-1.5445,-1.5746,-1.5002,-1.4797,-2.9198,-2.8975,-2.8975,-2.8975,-2.8975,-2.837,-2.6076,-2.5543,0.0,0.0,-2.1245,-2.1091,-2.052,0.0,-2.2535,0.0,-2.4036,-2.5917,0.0,0.0,0.0,0.0,0.0,0.0,0.0,0.0,0.0,0.0,-2.485,-2.5164,-2.6115,-2.5008,-2.3611,-2.2156,-2.2156,-2.2043,-2.1761,-2.1761,-2.1735,-2.1672,-2.079,-2.0368,-2.025,-1.92,-1.8702,-1.8702,-1.8509,-1.8412,-1.8358,-1.8428,-1.8395,-1.8422,-1.8838,-1.9046,-1.9082,-1.9232,-1.93,-1.9333,-1.9472,-1.9535,-1.9535,-1.9614,-1.9328,-1.8918,-1.8335,-1.8063,-1.7738,-1.7087,-1.6302,-1.5619,-1.5662,-1.3881,-1.1682,-1.0429,-0.8387,-0.6725,-0.6725,-0.6668,-0.6619,-0.6619,-0.6562,-0.6513,-0.6513,-0.6513,-0.658,-0.6648,-0.7521,-0.8464,-0.9198,-1.0299,-1.194,-1.4602,-1.4847,-1.511,-1.5767,-1.4592,-1.4316,-1.549,-1.3537,-1.2938,-1.4299,-1.3505,-1.3181,-1.3311,-1.3628,-1.388,-1.4066,-1.414,-1.4343,-1.4651,-1.4692,-1.4781,-2.8741,-2.8975,-2.8975,-2.8975,-2.8975,-2.8443,-2.6425,0.0,0.0,-2.2613,-2.2108,-2.1814,-2.1031,-2.1525,-2.1844,-2.1097,-2.2087,-2.3032,-2.301,-2.3413,-2.4486,0.0,0.0,0.0,0.0,0.0,0.0,0.0,0.0,-2.4085,-2.301,-2.2819,-2.2181,-2.0979,-2.0991,-2.0473,-1.9442,-1.9442,-1.9321,-1.9173,-1.9052,-1.8883,-1.8606,-1.8466,-1.8466,-1.8466,-1.8444,-1.8315,0.0,-1.8465,-1.8459,-1.8317,-1.8665,-1.9069,-1.9338,-1.9381,-1.9582,-1.985,-1.9826,-1.9814,-1.9747,-1.9067,-1.8764,-1.873,-1.8652,-1.8184,-1.7513,-1.684,-1.5605,-1.4308,-1.3729,-1.1393,-0.8852,-0.7418,-0.6864,-0.6725,-0.6725,-0.6721,-0.6713,-0.6713,-0.6709,-0.67,-0.67,-0.67,-0.6839,-0.7187,-0.7946,-0.8841,-0.9883,-1.0718,-1.162,-1.2909,-1.3038,-1.3653,-1.5073,-1.413,-1.3322,-1.2966,-1.3118,-1.3134,-1.2831,-1.299,-1.3141,-1.3116,-1.3319,-1.3506,-1.3693,-1.4018,-1.427,-1.4464,-1.4627,-1.4716,-2.8645,-2.8975,-2.8975,-2.8975,-2.8608,-2.7914,-2.637,0.0,0.0,-2.2274,-2.1635,-2.1153,-2.0058,-2.0311,-2.0227,-1.8775,-2.0074,-2.1122,-2.0681,-2.1867,-2.3157,-2.4386,0.0,0.0,0.0,0.0,0.0,0.0,0.0,-2.1511,-2.0953,-2.18,-2.1704,-2.0286,-2.0224,-2.0047,-1.9575,-1.9424,-1.9316,-1.9208,-1.9068,-1.895,-1.8792,-1.8713,-1.8649,-1.8638,-1.8498,-1.8379,0.0,-1.871,-1.8783,-1.8763,-1.9393,-1.9667,-1.9873,-2.0078,-2.0283,-2.0352,-2.0352,-2.0078,-1.9587,-1.9313,-1.8556,-1.7813,-1.7538,-1.724,-1.6631,-1.506,-1.4164,-1.3437,-1.2365,-1.0639,-0.8723,-0.7237,-0.6884,-0.6884,-0.6884,-0.6843,-0.6803,-0.6803,-0.6762,-0.6725,-0.6725,-0.6934,-0.7144,-0.7279,-0.8387,-0.9429,-1.0266,-1.1234,-1.22,-1.3093,-1.2956,-1.3162,-1.3976,-1.3642,-1.3336,-1.3126,-1.3259,-1.3267,-1.3058,-1.3194,-1.3262,-1.3262,-1.3336,-1.3409,-1.3482,-1.3734,-1.4002,-1.4286,-1.4456,-1.4659,-2.8113,-2.8718,-2.8975,-2.8975,-2.8278,-2.7362,0.0,0.0,0.0,-2.169,-2.1067,-2.0437,-1.9177,-1.9264,-1.893,-1.7292,-1.8457,-1.9358,-1.8704,-1.9825,-2.119,0.0,0.0,0.0,0.0,0.0,0.0,0.0,0.0,-1.9639,-1.9639,-2.0671,-2.0854,-1.9822,-1.9747,-1.9714,-1.9639,-1.9478,-1.9359,-1.9284,-1.9122,-1.9004,-1.8856,-1.8756,-1.8681,-1.867,-1.8649,-1.8573,0.0,-1.9133,-1.9343,-1.9413,-2.004,-2.0249,-2.0318,-2.0596,-2.0665,-2.0665,-2.0665,-2.0167,-1.946,-1.9251,-1.7991,-1.6605,-1.6511,-1.649,-1.6078,-1.406,-1.2804,-1.1783,-1.042,-0.9303,-0.8357,-0.7276,-0.699,-0.699,-0.699,-0.6937,-0.6964,-0.6964,-0.6914,-0.6944,-0.6944,-0.7296,-0.7579,-0.772,-0.9046,-1.0238,-1.0804,-1.1992,-1.2967,-1.3461,-1.3314,-1.3205,-1.3384,-1.3368,-1.3368,-1.3368,-1.3425,-1.3449,-1.3449,-1.3449,-1.3449,-1.3449,-1.3401,-1.3368,-1.3368,-1.3555,-1.3774,-1.4026,-1.4302,-1.4651,-2.6866,-2.8077,-2.8975,-2.8975,-2.8077,-2.6976,0.0,0.0,-2.3206,-2.1122,-2.049,-1.991,-1.8557,-1.8575,-1.839,-1.7179,-1.7329,-1.7456,-1.6984,-1.6961,-1.7877,0.0,0.0,0.0,0.0,0.0,0.0,0.0,0.0,0.0,-1.9082,-1.9082,-1.9262,-1.9499,-1.9499,-1.9391,-1.9082,-1.9082,-1.9036,-1.8789,-1.8789,-1.867,-1.8444,-1.8444,-1.8363,-1.8433,-1.8854,-1.8982,0.0,-1.9761,-2.011,-2.011,-2.0527,-2.0665,-2.0665,-2.0665,-2.0665,-2.0665,-2.0665,-2.0167,-1.939,-1.8622,-1.6846,-1.515,-1.5957,-1.6178,-1.5886,-1.4307,-1.1722,-0.8997,-0.7421,-0.7063,-0.699,-0.699,-0.699,-0.699,-0.699,-0.699,-0.699,-0.699,-0.7349,-0.7562,-0.7562,-0.7856,-0.8222,-0.8652,-1.0017,-1.1096,-1.1527,-1.296,-1.3896,-1.3896,-1.3896,-1.375,-1.3401,-1.3368,-1.3368,-1.3368,-1.3539,-1.3574,-1.3574,-1.3574,-1.3574,-1.3574,-1.3465,-1.3368,-1.3368,-1.3555,-1.3574,-1.359,-1.4115,-1.4716,-2.5619,-2.6278,-2.6518,-2.6518,-2.5855,-2.5102,-2.4845,0.0,-2.154,-2.0526,-1.9461,-1.8388,-1.7351,-1.7218,-1.7069,-1.6376,-1.6355,-1.6444,-1.6498,0.0,0.0,-1.8423,0.0,0.0,0.0,0.0,0.0,0.0,0.0,0.0,-1.9082,-1.9082,-1.9114,-1.9189,-1.9262,-1.923,-1.9082,-1.8982,-1.8864,-1.8778,-1.8616,-1.8509,-1.8433,-1.8714,-1.8784,-1.8854,-1.9262,-1.9401,-1.9471,-1.9901,-2.011,-2.011,-2.0527,-2.0665,-2.0665,-2.0665,-2.0665,-2.0457,-1.8868,-1.7819,-1.6906,-1.5062,-1.3713,-1.2723,-1.2945,-1.3095,-1.2731,-1.1155,-0.9291,-0.7638,-0.7135,-0.699,-0.699,-0.699,-0.699,-0.7063,-0.7349,-0.7421,-0.7494,-0.7715,-0.786,-0.7933,-0.7933,-0.8222,-0.8584,-0.8657,-0.9807,-1.0887,-1.1527,-1.2538,-1.3325,-1.3833,-1.3904,-1.3855,-1.3742,-1.3734,-1.3734,-1.3734,-1.379,-1.3823,-1.3823,-1.3639,-1.3574,-1.3574,-1.3465,-1.3368,-1.3368,-1.3555,-1.376,-1.4196,-1.4603,-1.5025,-2.4354,-2.5014,-2.5414,-2.5414,-2.4647,-2.3914,-2.3914,-2.2108,-2.0155,-1.9424,-1.8238,-1.7074,-1.6208,-1.6138,-1.6099,-1.5931,-1.597,-1.6157,-1.6458,0.0,0.0,-1.7725,0.0,0.0,0.0,0.0,0.0,0.0,0.0,0.0,-1.8814,-1.8814,-1.8814,-1.8814,-1.8961,-1.8972,-1.8814,-1.8724,-1.8649,-1.8649,-1.8509,-1.8503,-1.8643,-1.8924,-1.9052,-1.9192,-1.9611,-1.9761,0.0,-1.982,-1.9843,-1.9773,-2.0132,-2.019,-2.0119,-1.9924,-1.9669,-1.9089,-1.7097,-1.5689,-1.4566,-1.3136,-1.2223,-1.137,-1.0221,-1.0293,-1.0509,-0.9579,-0.8213,-0.699,-0.699,-0.699,-0.699,-0.699,-0.699,-0.7135,-0.7494,-0.7566,-0.7711,-0.8005,-0.8222,-0.8295,-0.8295,-0.8657,-0.8946,-0.8946,-0.9807,-1.0743,-1.1534,-1.2323,-1.3111,-1.3825,-1.3904,-1.3904,-1.3904,-1.3904,-1.3904,-1.3904,-1.3904,-1.3904,-1.3904,-1.3798,-1.3742,-1.3742,-1.3563,-1.3474,-1.3474,-1.3652,-1.3977,-1.444,-1.4797,-1.5163,0.0,-2.4244,-2.5106,-2.5106,-2.4262,-2.337,-2.3322,-2.128,0.0,-1.8118,-1.697,-1.5937,-1.5241,-1.533,-1.5584,-1.5849,-1.6115,-1.645,0.0,-1.7194,0.0,0.0,-1.8117,0.0,0.0,0.0,0.0,0.0,0.0,0.0,-1.8433,-1.8433,-1.8433,-1.8433,-1.8649,-1.8659,-1.8363,-1.8433,-1.8433,-1.8433,-1.8433,-1.8643,-1.8993,-1.9063,-1.9262,0.0,-1.997,-2.011,-2.004,-1.968,-1.9323,-1.913,-1.9369,-1.9243,-1.8924,-1.8395,-1.7679,-1.6736,-1.5185,-1.3705,-1.2494,-1.2359,-1.1858,-1.0725,-0.7851,-0.8068,-0.9291,-0.9147,-0.8068,-0.699,-0.699,-0.699,-0.699,-0.699,-0.699,-0.7135,-0.7566,-0.7638,-0.7783,-0.815,-0.8512,-0.8729,-0.8729,-0.909,-0.9302,-0.9302,-0.9951,-1.0671,-1.1534,-1.218,-1.2968,-1.3833,-1.3833,-1.3833,-1.3904,-1.3904,-1.3904,-1.3904,-1.3904,-1.3904,-1.3904,-1.3904,-1.3904,-1.3904,-1.3742,-1.3598,-1.3615,-1.3847,-1.4099,-1.4456,-1.4806,-1.5163,-2.2034,0.0,-2.2593,-2.2593,-2.2327,-2.1926,0.0,-1.9956,-1.8643,-1.7409,-1.6366,-1.5632,-1.5457,-1.5451,-1.5584,-1.5849,-1.6115,-1.645,-1.6844,0.0,0.0,-1.8251,-1.8335,0.0,0.0,0.0,0.0,0.0,0.0,-1.8433,-1.8433,-1.8433,-1.8433,-1.8433,-1.8487,-1.8487,-1.8433,-1.8433,-1.8433,-1.8433,-1.8714,-1.8924,-1.8982,-1.9552,-1.9901,-1.997,-2.0388,-2.0249,-1.9611,-1.9529,-1.9046,-1.8364,-1.8604,-1.7833,-1.6599,-1.6617,-1.576,-1.4327,-1.2201,-1.1207,-1.064,-0.8925,-0.8213,-0.7923,-0.7204,-0.8068,-0.9074,-0.7851,-0.7276,-0.699,-0.699,-0.699,-0.699,-0.699,-0.7204,-0.7566,-0.7933,-0.8222,-0.8584,-0.8946,-0.9085,-0.9157,-0.9157,-0.923,-0.9302,-0.9302,-0.9446,-1.0095,-1.1456,-1.1247,-1.1749,-1.369,-1.3396,-1.3253,-1.3833,-1.3904,-1.3904,-1.3904,-1.3904,-1.3904,-1.3904,-1.3904,-1.3904,-1.3904,-1.3863,-1.3912,-1.405,-1.4091,-1.4294,-1.4651,-1.4862,-1.5163,-2.1687,-2.1687,-2.1687,-2.1687,-2.1687,-2.1455,-2.0509,-1.9426,-1.8273,-1.7176,-1.6173,-1.5472,-1.5527,-1.5596,-1.5765,-1.603,-1.6501,0.0,0.0,0.0,-1.8184,-1.8262,-1.8317,0.0,0.0,0.0,0.0,0.0,0.0,-1.8696,-1.8696,-1.8696,-1.8696,-1.8696,-1.8696,-1.8588,-1.8363,-1.8573,-1.8589,-1.848,-1.8896,-1.9173,-1.9312,-1.9726,-2.0073,-2.0388,-2.0249,-1.9889,-1.946,-1.8773,-1.8143,-1.7537,-1.7047,-1.6218,-1.5214,-1.4348,-1.327,-1.1987,-0.9994,-0.9136,-0.8636,-0.7421,-0.699,-0.699,-0.699,-0.7566,-0.8068,-0.7204,-0.699,-0.699,-0.699,-0.699,-0.7063,-0.7204,-0.7421,-0.7711,-0.8295,-0.8512,-0.8801,-0.923,-0.9302,-0.9302,-0.9302,-0.9302,-0.9302,-0.9302,-0.9302,-0.9735,-1.0959,-1.1031,-1.1606,-1.3253,-1.3325,-1.3468,-1.3904,-1.3904,-1.3904,-1.3904,-1.3904,-1.3904,-1.3904,-1.3904,-1.3904,-1.3904,-1.3904,-1.3993,-1.418,-1.4253,-1.444,-1.4716,-1.4505,-1.4571,-2.1687,-2.1915,-2.2043,-2.1607,-2.15,-2.1265,-2.0179,-1.9098,-1.8033,-1.7086,-1.6177,-1.5559,-1.5559,-1.5777,-1.6018,-1.6247,0.0,0.0,-1.8536,-1.8434,-1.8313,-1.8395,-1.8383,0.0,0.0,0.0,0.0,0.0,0.0,-1.9082,-1.9082,-1.9112,-1.9184,-1.9227,-1.9184,-1.9062,-1.8682,-1.8931,-1.8949,-1.8807,-1.9221,-1.9588,-1.991,-1.9979,-2.0211,-2.0517,0.0,0.0,-1.9052,-1.7801,-1.7097,-1.6708,-1.5361,-1.4604,-1.3961,-1.1945,-1.064,-0.9706,-0.8353,-0.7494,-0.699,-0.699,-0.699,-0.699,-0.699,-0.699,-0.699,-0.699,-0.699,-0.699,-0.699,-0.7063,-0.7208,-0.7494,-0.7711,-0.7928,-0.8584,-0.8729,-0.8874,-0.923,-0.9302,-0.9302,-0.9302,-0.9302,-0.9302,-0.9302,-0.9302,-0.959,-1.0383,-1.1031,-1.1749,-1.2681,-1.3325,-1.3761,-1.3904,-1.3904,-1.3904,-1.3904,-1.3904,-1.3904,-1.3904,-1.3904,-1.3904,-1.3904,-1.3928,-1.4034,-1.4221,-1.4391,-1.4495,-1.4522,-1.3984,-1.3749,-2.1687,-2.2926,-2.3629,-2.1133,-2.068,-2.0365,-1.8607,-1.8021,-1.7604,-1.66,-1.6116,-1.5825,-1.5825,-1.6042,-1.6235,-1.6272,0.0,-1.8289,0.0,0.0,-1.9347,-1.9346,0.0,0.0,0.0,0.0,0.0,0.0,0.0,-1.9082,-1.9082,-1.9177,-1.9371,-1.958,-1.9742,-1.984,-2.0036,-1.9475,-1.9424,-1.9674,-2.0098,-2.0415,-2.0697,-2.1079,-2.0757,-1.9991,0.0,-1.9019,-1.759,-1.7379,-1.6827,-1.5946,-1.4594,-1.313,-1.1664,-1.0174,-0.8714,-0.7494,-0.7276,-0.7063,-0.699,-0.699,-0.699,-0.699,-0.699,-0.699,-0.699,-0.699,-0.699,-0.699,-0.699,-0.7276,-0.7494,-0.7566,-0.8073,-0.8584,-0.8657,-0.8946,-0.923,-0.9302,-0.9302,-0.9302,-0.9302,-0.9302,-0.9302,-0.9302,-0.9302,-0.959,-1.0383,-1.0599,-1.1247,-1.2681,-1.2896,-1.3253,-1.3833,-1.3904,-1.3904,-1.3904,-1.3904,-1.3904,-1.3904,-1.3904,-1.3904,-1.3904,-1.4058,-1.4221,-1.4391,-1.4578,-1.4378,-1.3861,-1.3729,-1.3438,-2.1687,-2.2087,-2.2249,-2.1057,-2.2011,-2.2929,-2.146,-2.0578,-1.9511,-1.772,-1.7224,-1.6937,-1.6259,-1.6441,-1.6996,-1.7865,0.0,-1.8863,-1.9518,0.0,0.0,0.0,0.0,0.0,0.0,0.0,0.0,0.0,0.0,0.0,-2.0199,-2.0246,-2.0309,-2.0421,-2.0529,-2.0608,-2.0804,-2.0543,-2.0347,-2.0213,-2.0639,-2.0911,-2.1019,-2.1174,-2.0828,-2.0112,0.0,-1.8571,-1.7399,-1.6935,-1.5966,-1.4697,-1.3267,-1.1787,-1.0213,-0.8735,-0.7799,-0.7137,-0.7137,-0.7137,-0.7137,-0.7137,-0.7137,-0.7137,-0.7137,-0.7137,-0.7137,-0.7137,-0.7068,-0.699,-0.699,-0.7276,-0.7638,-0.786,-0.8295,-0.8729,-0.8941,-0.9157,-0.9302,-0.9302,-0.9302,-0.9302,-0.9302,-0.9302,-0.9302,-0.9302,-0.9302,-0.9446,-0.9807,-1.0599,-1.1384,-1.2108,-1.2896,-1.3539,-1.3904,-1.3904,-1.3904,-1.3904,-1.3904,-1.3904,-1.3904,-1.3539,-1.3515,-1.405,-1.3333,-1.3273,-1.3904,-1.3529,-1.3268,-1.3042,-1.2579,-1.2225,-2.1527,-2.1415,-2.1414,-2.1454,-2.2689,-2.3808,-2.3349,-2.2145,-2.0615,-1.8871,-1.8429,-1.7964,-1.674,-1.6911,0.0,-1.9209,-1.9314,0.0,0.0,0.0,0.0,0.0,0.0,0.0,0.0,0.0,0.0,0.0,0.0,0.0,-2.1071,-2.1164,-2.113,-2.113,-2.1147,-2.1242,-2.1349,-2.1337,-2.1171,-2.0828,-2.1102,-2.1353,-2.1413,-2.1413,-2.0875,-1.9994,-1.9227,-1.8104,-1.6678,-1.5954,-1.4851,-1.3329,-1.179,-1.031,-0.891,-0.7712,-0.7264,-0.7264,-0.7264,-0.7264,-0.7264,-0.7264,-0.7264,-0.7264,-0.7264,-0.7264,-0.7264,-0.7264,-0.7162,-0.7129,-0.7198,-0.7473,-0.782,-0.8188,-0.8604,-0.8946,-0.923,-0.9302,-0.9302,-0.9302,-0.9302,-0.9302,-0.9302,-0.9302,-0.9302,-0.9302,-0.9302,-0.9302,-0.9302,-1.0527,-1.1319,-1.1319,-1.2753,-1.3682,-1.3904,-1.3904,-1.3833,-1.3682,-1.3833,-1.3849,-1.3674,-1.31,-1.3111,-1.3652,-1.2507,-1.2345,-1.3188,-1.2533,-1.2233,-1.2192,-1.1572,-1.1184,-2.0963,-2.2042,-2.3254,-2.2636,-2.0763,-1.947,-2.0802,-1.996,-1.8953,-1.9266,-1.9068,-1.8488,-1.7244,-1.7467,-1.8094,-1.8963,-1.9507,0.0,0.0,0.0,0.0,0.0,0.0,0.0,0.0,0.0,0.0,0.0,0.0,0.0,-2.1071,-2.1214,-2.1308,-2.1308,-2.1376,-2.145,-2.151,-2.151,-2.1607,-2.1812,-2.1812,-2.1933,-2.2174,-2.2174,-2.1172,-1.9279,-1.9184,-1.7296,-1.422,-1.4212,-1.3359,-1.1871,-1.0386,-0.8825,-0.7486,-0.7339,-0.7264,-0.7264,-0.7264,-0.7264,-0.7264,-0.7264,-0.7264,-0.7264,-0.7264,-0.7264,-0.7264,-0.7264,-0.7252,-0.7394,-0.7765,-0.8067,-0.8362,-0.874,-0.9024,-0.923,-0.9302,-0.9302,-0.9302,-0.9302,-0.9302,-0.9302,-0.9302,-0.9302,-0.9302,-0.9302,-0.9302,-0.9302,-0.9302,-1.0023,-1.0599,-1.0599,-1.1965,-1.3182,-1.3833,-1.3904,-1.3611,-1.2896,-1.3539,-1.3618,-1.2976,-1.2911,-1.2692,-1.2189,-1.2169,-1.2175,-1.2271,-1.2413,-1.2101,-1.1417,-1.134,-1.0874,-2.0703,-2.0867,-2.1112,-2.124,-2.0004,-1.9598,-2.2617,-2.1729,-2.0322,-2.0473,-2.0107,-1.9372,-1.8277,0.0,-1.9229,-1.9531,0.0,0.0,0.0,0.0,0.0,0.0,0.0,0.0,0.0,0.0,0.0,0.0,0.0,0.0,-2.181,-2.1864,-2.1891,-2.1891,-2.1943,-2.1969,-2.1969,-2.18,-2.1776,-2.1873,-2.1873,-2.1921,-2.2029,-2.2186,-2.1543,-2.0296,-1.9555,-1.7683,-1.5041,-1.431,-1.2617,-1.037,-0.8851,-0.7962,-0.7427,-0.7427,-0.7427,-0.7427,-0.7427,-0.7427,-0.7427,-0.7427,-0.7427,-0.7427,-0.7427,-0.7427,-0.7427,-0.7427,-0.7658,-0.7864,-0.7893,-0.8131,-0.8552,-0.8925,-0.9266,-0.953,-0.953,-0.947,-0.9416,-0.9416,-0.9356,-0.9302,-0.9302,-0.9302,-0.9302,-0.9302,-0.9302,-0.9302,-0.9302,-1.0383,-1.1031,-1.0527,-1.1893,-1.3111,-1.3833,-1.3498,-1.3127,-1.2909,-1.3127,-1.2932,-1.2269,-1.1844,-1.1742,-1.2114,-1.1182,-1.1021,-1.1644,-1.116,-1.0796,-1.0486,-1.0486,-1.033,-1.9997,-1.9533,-1.9237,-1.9852,-1.9401,-1.9703,-2.3169,-2.2324,-2.0935,-2.136,-2.0657,-1.9811,-1.9212,-1.9519,0.0,0.0,0.0,0.0,0.0,0.0,0.0,0.0,0.0,0.0,0.0,0.0,0.0,0.0,0.0,0.0,0.0,-2.2334,-2.2297,-2.2212,-2.2138,-2.1867,-2.1254,-2.109,-2.0704,-2.0252,-2.0858,-2.142,-2.1873,-2.2054,-2.1558,-2.0329,-1.8957,-1.6921,-1.4487,-1.3148,-1.1158,-0.8967,-0.8201,-0.7916,-0.7916,-0.8228,-0.815,-0.7916,-0.7916,-0.7759,-0.7525,-0.7525,-0.7525,-0.7525,-0.7525,-0.7525,-0.7525,-0.7681,-0.792,-0.8205,-0.8373,-0.8536,-0.8809,-0.9262,-0.9543,-0.9671,-0.9671,-0.9606,-0.9546,-0.9546,-0.9476,-0.9405,-0.9222,-0.9289,-0.9273,-0.9168,-0.9267,-0.9362,-0.9362,-1.0341,-1.1021,-1.1021,-1.1966,-1.2982,-1.3994,-1.3379,-1.2934,-1.264,-1.2462,-1.2039,-1.1602,-1.1096,-1.1063,-1.1498,-1.0432,-0.9932,-1.0092,-0.947,-0.9236,-0.9236,-0.9236,-0.947,-1.8589,-1.8207,-1.8347,-1.878,-1.876,-1.9242,-2.1636,-2.0902,-2.0142,-2.1685,-2.0638,-1.9555,-1.9833,-1.9893,0.0,0.0,0.0,0.0,0.0,0.0,0.0,0.0,0.0,0.0,0.0,0.0,0.0,0.0,0.0,0.0,0.0,-2.2259,-2.2138,-2.1885,-2.1873,-2.0924,-1.8977,-1.8977,-1.8164,-1.6627,-1.8464,-2.0217,-2.1873,-2.1873,-2.0912,-1.9122,-1.726,-1.474,-1.1817,-1.0254,-0.8731,-0.7603,-0.8466,-0.8778,-0.8856,-0.9708,-0.948,-0.8778,-0.8778,-0.8228,-0.7525,-0.7525,-0.7525,-0.7525,-0.7525,-0.7525,-0.7603,-0.808,-0.8237,-0.8393,-0.9168,-0.9315,-0.9305,-0.9687,-0.9753,-0.9671,-0.9671,-0.9671,-0.9671,-0.9666,-0.9666,-0.9553,-0.8991,-0.9266,-0.9296,-0.8817,-0.9191,-0.9487,-0.9487,-0.959,-1.0341,-1.1911,-1.2135,-1.2731,-1.4284,-1.3624,-1.2887,-1.2135,-1.1365,-1.0978,-1.0978,-1.0978,-1.0662,-1.0019,-0.9942,-0.9158,-0.7513,-0.7513,-0.7513,-0.7513,-0.7513,-0.8375,-1.8272,-1.8764,-1.9348,-1.9056,-2.0051,-2.1163,-2.1396,-2.0531,-1.9928,-2.0664,-2.0582,-2.0231,-1.9941,-2.0195,0.0,0.0,0.0,0.0,0.0,0.0,0.0,0.0,0.0,0.0,0.0,0.0,0.0,0.0,0.0,0.0,0.0,-2.1187,-2.0542,-2.04,-1.9329,-1.8471,-1.7875,-1.7654,-1.7353,-1.6907,-1.7421,-1.8566,-2.0217,-2.1535,-2.1879,-2.118,-1.8232,-1.579,-1.3695,-0.9741,-0.7864,-0.7525,-0.7759,-0.7916,-0.7916,-0.815,-0.8072,-0.7916,-0.7916,-0.7681,-0.7525,-0.7525,-0.7525,-0.7525,-0.7525,-0.7525,-0.7603,-0.808,-0.8393,-0.8778,-0.9246,-0.9604,-0.981,-0.9888,-0.9938,-0.9894,-0.9807,-0.9726,-0.9644,-0.9557,-0.947,-0.94,-0.9222,-0.9283,-0.9273,-0.9168,-0.9262,-0.9607,-1.0205,-0.9888,-1.0168,-1.1823,-1.206,-1.2284,-1.265,-1.2599,-1.2134,-1.1378,-1.0668,-1.0235,-1.0145,-1.0229,-0.9666,-0.8297,-0.8219,-0.7435,-0.5717,-0.5717,-0.5717,-0.5796,-0.6967,-0.7751,-1.8268,-1.8817,-1.9511,-2.0109,-2.0984,-2.1611,-2.1272,-2.0721,-2.0369,-2.0415,-2.0557,-2.0569,-2.0255,-2.046,0.0,0.0,0.0,0.0,0.0,0.0,0.0,0.0,0.0,0.0,0.0,0.0,0.0,0.0,0.0,0.0,0.0,-1.9973,-1.951,-1.8895,-1.791,-1.7074,-1.6389,-1.6273,-1.5841,-1.5236,-1.5841,-1.6663,-1.765,-1.9426,-2.0366,-2.0504,-1.643,-1.3574,-1.1677,-0.8745,-0.7525,-0.7525,-0.7916,-0.8228,-0.854,-0.8847,-0.8774,-0.8462,-0.8462,-0.8072,-0.7525,-0.7525,-0.7525,-0.7525,-0.7525,-0.7603,-0.7842,-0.8315,-0.87,-0.9168,-0.9558,-0.9786,-1.0019,-1.0019,-1.0019,-0.9987,-0.9862,-0.9634,-0.9553,-0.9584,-0.935,-0.9213,-0.9165,-0.9305,-0.9289,-0.9096,-0.9128,-0.9348,-0.9905,-0.9521,-0.973,-1.1233,-1.1441,-1.1706,-1.2161,-1.2007,-1.167,-1.1134,-1.0446,-0.9677,-0.8905,-0.8968,-0.8219,-0.6577,-0.6499,-0.5714,-0.3994,-0.3994,-0.3994,-0.4073,-0.5717,-0.6499,-1.8471,-1.8686,-1.9347,-2.1647,-2.1673,-2.1195,-2.1337,-2.131,-2.1114,-2.0756,0.0,-2.0665,-2.0665,-2.069,0.0,0.0,0.0,0.0,0.0,0.0,0.0,0.0,0.0,0.0,0.0,0.0,0.0,0.0,0.0,0.0,0.0,-1.8658,-1.8658,-1.7198,-1.6989,-1.6236,-1.4713,-1.4713,-1.3953,-1.2501,-1.3953,-1.479,-1.4935,-1.6361,-1.7329,-1.7553,-1.2953,-0.9616,-0.7407,-0.7493,-0.7525,-0.7603,-0.8388,-0.9168,-0.9942,-1.0719,-1.0486,-0.9864,-0.9786,-0.8774,-0.7525,-0.7525,-0.7525,-0.7525,-0.7525,-0.7842,-0.8315,-0.87,-0.909,-0.9475,-0.9864,-1.0019,-1.0019,-1.0019,-0.9936,-0.9893,-0.9769,-0.9508,-0.9319,-0.9586,-0.9334,-0.8999,-0.8902,-0.9176,-0.9286,-0.8817,-0.8816,-0.8928,-0.9045,-0.8849,-0.9066,-1.0292,-1.056,-1.1101,-1.2172,-1.1643,-1.1262,-1.1184,-1.033,-0.9003,-0.7357,-0.7435,-0.6655,-0.4779,-0.4779,-0.3918,-0.2273,-0.2273,-0.2273,-0.2352,-0.3994,-0.4779,-1.8493,-1.9778,-2.118,-2.2011,-2.1991,-2.1753,-2.1722,-2.1258,-2.08,-2.0723,-2.0665,-2.0665,-2.0665,0.0,0.0,0.0,0.0,0.0,0.0,0.0,0.0,0.0,0.0,0.0,0.0,0.0,0.0,0.0,0.0,0.0,-1.7292,-1.6451,-1.5717,-1.527,-1.4191,-1.3421,-1.3035,-1.3035,-1.2804,-1.2501,-1.2881,-1.3645,-1.4935,-1.6572,-1.6013,-1.364,-1.1869,-0.9722,-0.7497,-0.7517,-0.7525,-0.7525,-0.7681,-0.8306,-0.9012,-0.854,-0.8618,-0.8934,-0.8306,-0.7838,-0.7525,-0.7525,-0.7525,-0.7603,-0.792,-0.8159,-0.8315,-0.909,-0.9324,-0.9475,-0.9864,-1.0019,-1.0019,-1.0019,-0.9717,-0.9387,-0.9273,-0.9105,-0.8938,-0.8899,-0.8873,-0.879,-0.877,-0.8837,-0.8972,-0.9163,-0.8677,-0.8475,-0.8965,-0.9011,-0.9132,-0.9447,-1.0489,-1.091,-1.042,-1.0969,-1.1029,-1.033,-0.8842,-0.7279,-0.5639,-0.6811,-0.6105,-0.3133,-0.3055,-0.2195,-0.0549,-0.0549,-0.0549,-0.0549,-0.2273,-0.2899,-1.9057,-2.0256,-2.1208,-2.1902,-2.2019,-2.1766,-2.1195,-2.0845,-2.0665,-2.0665,-2.0665,-2.0702,0.0,0.0,0.0,0.0,0.0,0.0,0.0,0.0,0.0,0.0,0.0,0.0,0.0,0.0,0.0,0.0,0.0,-1.5757,-1.491,-1.4841,-1.4402,-1.3566,-1.2817,-1.24,-1.24,-1.24,-1.24,-1.24,-1.2467,-1.2726,-1.3259,-1.4859,-1.3853,-1.0701,-1.023,-0.9071,-0.7525,-0.7525,-0.7525,-0.7525,-0.7525,-0.8306,-0.9246,-0.8466,-0.8929,-0.9786,-0.854,-0.815,-0.8076,-0.7603,-0.7681,-0.792,-0.8159,-0.8471,-0.8856,-0.9246,-0.9558,-0.9708,-0.9942,-1.0019,-0.9925,-0.9717,-0.9624,-0.9571,-0.9171,-0.8865,-0.8632,-0.8469,-0.8295,-0.8222,-0.8367,-0.844,-0.8584,-0.8946,-0.8512,-0.8285,-0.8894,-0.888,-0.895,-0.9218,-0.9949,-1.023,-0.9932,-1.0369,-1.0486,-1.0019,-0.9158,-0.7591,-0.5092,-0.5874,-0.4698,-0.1334,-0.1334,-0.0863,0.0,0.0,0.0,-0.0079,-0.1725,-0.188,-1.9445,-2.0385,-2.0928,-2.1784,-2.1977,-2.1594,-2.0546,-2.0484,-2.0665,-2.0665,-2.0665,0.0,0.0,0.0,0.0,0.0,0.0,0.0,0.0,0.0,0.0,0.0,0.0,0.0,0.0,0.0,0.0,0.0,0.0,-1.3733,-1.2326,-1.3551,-1.3612,-1.2285,-1.2237,-1.2175,-1.2023,-1.2023,-1.2036,-1.2063,-1.2203,-1.1805,-1.0874,-1.2249,-1.1399,-0.8778,-0.8622,-0.8154,-0.7525,-0.7525,-0.7525,-0.7525,-0.7525,-0.854,-0.9864,-0.909,-0.9864,-1.1029,-0.9402,-0.8778,-0.87,-0.7842,-0.792,-0.8237,-0.8393,-0.8856,-0.9402,-0.948,-0.9708,-1.0019,-1.0019,-1.0019,-0.9915,-0.951,-0.9624,-0.969,-0.9005,-0.8566,-0.828,-0.8038,-0.7783,-0.7711,-0.7933,-0.7933,-0.8078,-0.8512,-0.8222,-0.8115,-0.8587,-0.8547,-0.8644,-0.9117,-0.9377,-0.9604,-0.9909,-0.9987,-0.9998,-1.0019,-0.947,-0.7907,-0.5092,-0.4466,-0.2822,-0.0079,0.0,0.0,0.0,0.0,0.0,0.0,-0.141,-0.1098,-1.8672,-2.0357,-2.1973,-2.1997,-2.1977,-2.1594,-2.0546,0.0,-2.0665,0.0,0.0,0.0,0.0,0.0,0.0,0.0,0.0,0.0,0.0,0.0,0.0,0.0,0.0,0.0,0.0,0.0,0.0,0.0,-1.279,-1.2588,-1.2183,-1.2443,-1.2388,-1.1898,-1.202,-1.1795,-1.112,-1.112,-1.1177,-1.1289,-1.1426,-1.0641,-0.9168,-0.9319,-0.9246,-0.8778,-0.7994,-0.7603,-0.7525,-0.7525,-0.7525,-0.7525,-0.7525,-0.854,-0.9864,-0.909,-0.9864,-1.1029,-0.9402,-0.8778,-0.87,-0.8237,-0.8159,-0.8315,-0.9012,-0.9324,-0.948,-0.9786,-0.9942,-1.0019,-1.0019,-1.0019,-1.0014,-0.9925,-0.9619,-0.9117,-0.8071,-0.781,-0.7742,-0.7643,-0.7638,-0.7638,-0.7638,-0.7353,-0.7353,-0.8078,-0.757,-0.7314,-0.7777,-0.8248,-0.8539,-0.8629,-0.9259,-0.9785,-0.9785,-0.9862,-0.9905,-1.0014,-0.7279,-0.5483,-0.5014,-0.2196,-0.0471,0.0,0.0,0.0,0.0,0.0,0.0,0.0,-0.0234,0.0,-1.9071,-2.0589,-2.1735,-2.2161,-2.1846,-2.113,-2.049,-2.0364,-2.0496,0.0,0.0,0.0,0.0,0.0,0.0,0.0,0.0,0.0,0.0,0.0,0.0,0.0,0.0,0.0,0.0,0.0,0.0,0.0,-1.2427,-1.2325,-1.2196,-1.2176,-1.2101,-1.1965,-1.1945,-1.1562,-1.0823,-1.0823,-1.0703,-1.0451,-1.0508,-0.9877,-0.8778,-0.8778,-0.8544,-0.8072,-0.7681,-0.7525,-0.7525,-0.7525,-0.7525,-0.7525,-0.7525,-0.8228,-0.9324,-0.8934,-0.9864,-1.1029,-0.9402,-0.9246,-0.963,-0.8544,-0.8471,-0.8934,-0.9324,-0.9356,-0.9382,-0.9536,-0.9613,-0.9613,-0.9613,-0.9613,-0.9515,-0.9223,-0.8743,-0.8178,-0.7443,-0.7495,-0.7559,-0.7289,-0.728,-0.728,-0.728,-0.7135,-0.7208,-0.7715,-0.757,-0.7624,-0.8369,-0.8453,-0.8566,-0.8915,-0.9274,-0.9534,-0.9534,-0.9746,-0.9965,-1.0019,-0.8608,-0.6889,-0.4776,-0.3448,-0.1798,0.0311,0.0077,0.0,0.0,0.0,0.0,0.0,0.0,0.0236,-1.9126,-2.0147,-2.0625,-2.1592,-2.1228,-2.0545,0.0,0.0,-2.0352,0.0,0.0,0.0,0.0,0.0,0.0,0.0,0.0,0.0,0.0,0.0,0.0,0.0,0.0,0.0,0.0,0.0,0.0,0.0,-1.2406,-1.2332,-1.2291,-1.2182,-1.2088,-1.2006,-1.1932,-1.1483,-1.0681,-1.0498,-1.0111,-0.9487,-0.9563,-0.9182,-0.8466,-0.8439,-0.8128,-0.7525,-0.7525,-0.7525,-0.7525,-0.7525,-0.7525,-0.7525,-0.7525,-0.815,-0.909,-0.909,-1.0175,-1.134,-0.9713,-0.9786,-1.033,-0.8856,-0.8856,-0.9402,-0.9558,-0.9496,-0.9418,-0.9315,-0.9305,-0.93,-0.9117,-0.9112,-0.9015,-0.8629,-0.8081,-0.7538,-0.7079,-0.7263,-0.7435,-0.7075,-0.699,-0.699,-0.699,-0.699,-0.7135,-0.7566,-0.7566,-0.7911,-0.8731,-0.8632,-0.8671,-0.9162,-0.934,-0.9442,-0.95,-0.9784,-0.9987,-1.0019,-0.9236,-0.7435,-0.4698,-0.3997,-0.2419,0.0388,0.0155,0.0,0.0,0.0,0.0,0.0,0.0,0.0157,-1.7929,-1.8293,-1.8528,-1.9649,-1.9875,-1.989,0.0,0.0,0.0,0.0,0.0,0.0,0.0,0.0,0.0,0.0,0.0,0.0,0.0,0.0,0.0,0.0,0.0,0.0,0.0,0.0,0.0,0.0,-1.2494,-1.2433,-1.2298,-1.2284,-1.2149,-1.185,-1.1979,-1.1616,-1.054,-0.9866,-0.9176,-0.8469,-0.8544,-0.8193,-0.7599,-0.7513,-0.7521,-0.7525,-0.7525,-0.7525,-0.7525,-0.7525,-0.7525,-0.7525,-0.7525,-0.8462,-0.9942,-0.9942,-1.1029,-1.2192,-1.0486,-1.0253,-1.0408,-0.9168,-0.909,-0.948,-0.9864,-0.9936,-0.9832,-0.9413,-0.9305,-0.9203,-0.8644,-0.8544,-0.8544,-0.8535,-0.8081,-0.7538,-0.7079,-0.6994,-0.6994,-0.699,-0.699,-0.699,-0.699,-0.699,-0.7135,-0.7566,-0.7566,-0.7715,-0.8092,-0.8543,-0.8943,-0.9055,-0.9451,-0.9769,-0.9915,-0.9834,-0.9894,-1.0014,-0.7045,-0.517,-0.5014,-0.1961,-0.0157,0.0,0.0,0.0,0.0,0.0,0.0,0.0,0.0,0.0,-1.7539,-1.7436,-1.7312,-1.8877,-1.9161,-1.9134,-1.9451,0.0,0.0,0.0,0.0,0.0,0.0,0.0,0.0,0.0,0.0,0.0,0.0,0.0,0.0,0.0,0.0,0.0,0.0,0.0,0.0,0.0,0.0,-1.2481,-1.2427,-1.2338,-1.2237,-1.2128,-1.2088,-1.1669,-1.0663,-0.9386,-0.8617,-0.8359,-0.8426,-0.8156,-0.7439,-0.801,-0.8041,-0.7525,-0.7525,-0.7525,-0.7525,-0.7525,-0.7525,-0.7525,-0.7525,-0.7838,-0.854,-0.963,-1.0408,-1.0874,-1.0486,-1.0719,-1.0874,-0.9553,-0.948,-0.9786,-0.963,-0.9578,-0.9439,-0.8707,-0.8621,-0.8745,-0.8262,-0.8088,-0.8052,-0.7629,-0.7426,-0.7173,-0.7067,-0.699,-0.699,-0.699,-0.699,-0.699,-0.699,-0.699,-0.7063,-0.7208,-0.7421,-0.7756,-0.8257,-0.8469,-0.8666,-0.9147,-0.9324,-0.9508,-0.9515,-0.9784,-0.9976,-1.0019,-0.7829,-0.603,-0.4698,-0.2665,-0.0941,0.0393,0.0156,0.0,0.0,0.0,0.0,0.0,0.0,0.0,-1.6643,-1.642,-1.624,-1.7591,-1.7904,-1.8094,-1.8891,0.0,0.0,0.0,0.0,0.0,0.0,0.0,0.0,0.0,0.0,0.0,0.0,0.0,0.0,0.0,0.0,0.0,0.0,0.0,0.0,0.0,0.0,0.0,-1.2501,-1.2413,-1.2359,-1.2359,-1.2169,-1.179,-1.1174,-0.9872,-0.9134,-0.9096,-0.8686,-0.8271,-0.7898,-0.8165,-0.8041,-0.7525,-0.7525,-0.7525,-0.7525,-0.7525,-0.7525,-0.7525,-0.7525,-0.7681,-0.8072,-0.9475,-1.0175,-1.0486,-1.0719,-1.1029,-1.1107,-1.0097,-0.9864,-0.9942,-0.9864,-0.9629,-0.9305,-0.8621,-0.8569,-0.8583,-0.8022,-0.7761,-0.7559,-0.7137,-0.7011,-0.699,-0.699,-0.699,-0.699,-0.699,-0.699,-0.699,-0.699,-0.699,-0.7063,-0.7208,-0.7494,-0.7979,-0.8489,-0.8587,-0.8849,-0.938,-0.9406,-0.9437,-0.951,-0.9821,-1.0019,-1.0019,-0.7907,-0.603,-0.462,-0.2743,-0.102,0.0393,0.0157,0.0,0.0,0.0,0.0,0.0,0.0,-0.0314,0.0,0.0,0.0,-1.5709,0.0,0.0,0.0,0.0,0.0,0.0,0.0,0.0,0.0,0.0,0.0,0.0,0.0,0.0,0.0,0.0,0.0,0.0,0.0,0.0,0.0,0.0,0.0,0.0,-1.2501,-1.2501,-1.2501,-1.2501,-1.2501,-1.2501,-1.2223,-1.2149,-1.2142,-1.118,-1.0737,-1.0784,-0.9176,-0.8549,-0.8769,-0.7894,-0.7517,-0.7525,-0.7525,-0.7525,-0.7525,-0.7525,-0.7525,-0.7525,-0.7525,-0.7994,-0.8856,-0.9708,-1.0563,-1.1262,-1.1262,-1.134,-1.1262,-1.0796,-1.033,-1.0097,-1.0486,-1.0246,-0.9769,-0.9387,-0.9081,-0.879,-0.807,-0.7493,-0.7125,-0.7125,-0.7056,-0.699,-0.699,-0.699,-0.699,-0.699,-0.699,-0.699,-0.699,-0.699,-0.7135,-0.7566,-0.786,-0.8227,-0.8662,-0.9096,-0.9405,-0.965,-0.9677,-0.9775,-1.0003,-1.0019,-1.0019,-1.0014,-0.6889,-0.5014,-0.5011,-0.1804,-0.0079,0.0,0.0,0.0,0.0,0.0,0.0,0.0,0.0,-0.0942,-1.5131,0.0,0.0,0.0,0.0,0.0,0.0,0.0,0.0,0.0,0.0,0.0,0.0,0.0,0.0,0.0,0.0,0.0,0.0,0.0,0.0,0.0,0.0,0.0,0.0,0.0,0.0,0.0,-1.2501,-1.2501,-1.2501,-1.2501,-1.2501,-1.2501,-1.242,-1.2332,-1.223,-1.1422,-1.092,-1.0865,-1.0468,-1.0095,-0.9587,-1.002,-0.9599,-0.8466,-0.8466,-0.8076,-0.7525,-0.7525,-0.7525,-0.7525,-0.7525,-0.7681,-0.7994,-0.9163,-0.9864,-1.0486,-1.1107,-1.1495,-1.165,-1.1262,-1.0796,-1.0408,-1.0253,-1.0075,-0.9816,-0.9123,-0.9079,-0.9096,-0.8206,-0.7544,-0.7125,-0.7125,-0.7056,-0.699,-0.699,-0.699,-0.699,-0.699,-0.699,-0.699,-0.699,-0.699,-0.7135,-0.7566,-0.786,-0.8251,-0.8768,-0.9292,-0.9628,-0.9775,-0.9873,-0.9949,-1.0014,-1.0019,-0.9981,-0.9894,-0.7946,-0.624,-0.4871,-0.2886,-0.1098,0.0393,0.0157,0.0157,0.0471,0.0157,0.0,0.0,0.0,-0.1569,-1.4987,-1.464,-1.434,-1.4497,0.0,0.0,0.0,-1.7479,0.0,0.0,0.0,0.0,0.0,0.0,0.0,0.0,0.0,0.0,0.0,0.0,0.0,0.0,0.0,0.0,0.0,0.0,-1.6312,-1.3722,-1.2881,-1.2501,-1.2501,-1.2501,-1.2501,-1.2501,-1.2501,-1.2433,-1.2291,-1.1828,-1.1555,-1.1478,-1.1176,-1.0856,-1.0455,-1.0684,-1.0019,-0.8778,-0.8778,-0.831,-0.7525,-0.7525,-0.7525,-0.7525,-0.7686,-0.7764,-0.7998,-0.9397,-1.0019,-1.0408,-1.1417,-1.1805,-1.1882,-1.165,-1.1107,-1.0563,-1.033,-1.0059,-0.9877,-0.962,-0.9599,-0.9377,-0.8431,-0.7756,-0.7273,-0.7125,-0.7056,-0.699,-0.699,-0.7135,-0.7208,-0.7063,-0.699,-0.699,-0.699,-0.699,-0.7135,-0.7566,-0.786,-0.8261,-0.8813,-0.9329,-0.9655,-0.9818,-0.99,-0.9965,-1.0014,-0.9976,-0.9938,-0.9916,-0.8302,-0.6988,-0.5964,-0.3589,-0.1646,-0.0471,0.0235,0.055,0.0628,0.0157,0.0,0.0,0.0,-0.1804,-1.4821,-1.4544,-1.4292,-1.4292,-1.4509,0.0,-1.6678,-1.7219,0.0,0.0,0.0,0.0,0.0,0.0,0.0,0.0,0.0,0.0,0.0,0.0,0.0,0.0,0.0,0.0,0.0,-1.735,-1.6666,-1.5012,-1.3414,-1.2501,-1.2501,-1.2501,-1.2501,-1.2501,-1.2501,-1.244,-1.2318,-1.2311,-1.2311,-1.2311,-1.1536,-1.1293,-1.1417,-1.0641,-0.9864,-0.909,-0.9012,-0.8466,-0.7759,-0.7603,-0.7525,-0.7603,-0.7998,-0.8237,-0.8471,-0.9942,-1.0486,-1.0796,-1.196,-1.2192,-1.196,-1.196,-1.1417,-1.0719,-1.0719,-1.0406,-1.0031,-1.0452,-1.0175,-0.9605,-0.8824,-0.8192,-0.7669,-0.7364,-0.7145,-0.7003,-0.699,-0.7349,-0.7494,-0.7135,-0.7063,-0.7067,-0.7148,-0.7075,-0.7225,-0.767,-0.8038,-0.8367,-0.8907,-0.9297,-0.9606,-0.9813,-0.9851,-0.99,-1.0008,-0.9921,-0.99,-0.9992,-0.8515,-0.75,-0.7185,-0.399,-0.1959,-0.1567,0.0314,0.1021,0.055,0.0157,0.0,0.0,-0.0157,-0.1961,-1.5276,-1.4688,-1.4292,-1.4292,-1.4509,0.0,-1.4066,-1.427,0.0,0.0,0.0,0.0,0.0,0.0,0.0,0.0,0.0,0.0,0.0,0.0,0.0,0.0,0.0,0.0,0.0,-1.7058,-1.6446,-1.5004,-1.3414,-1.2501,-1.2501,-1.2501,-1.2501,-1.2501,-1.2501,-1.2488,-1.2461,-1.2461,-1.2461,-1.2461,-1.2306,-1.2243,-1.2269,-1.2114,-1.1572,-1.0796,-1.0097,-0.963,-0.9397,-0.8072,-0.7764,-0.808,-0.8159,-0.8393,-0.8778,-0.9402,-1.0019,-1.0719,-1.134,-1.1882,-1.2347,-1.2347,-1.2037,-1.165,-1.165,-1.1321,-1.0916,-1.0713,-1.0081,-0.9516,-0.9645,-0.8866,-0.8009,-0.815,-0.7608,-0.708,-0.7007,-0.7349,-0.7566,-0.7494,-0.7494,-0.7593,-0.7961,-0.7759,-0.786,-0.8681,-0.8845,-0.9079,-0.9484,-0.964,-0.9786,-0.9835,-0.9927,-0.9992,-1.0019,-0.9998,-0.9954,-0.9878,-0.9634,-0.8238,-0.5402,-0.4442,-0.2429,0.0628,0.1099,0.0942,0.0079,0.0,0.0,0.0,-0.1412,-0.3057,-1.5242,-1.4592,-1.4292,-1.4292,0.0,0.0,0.0,0.0,0.0,0.0,0.0,0.0,0.0,0.0,0.0,0.0,0.0,0.0,0.0,0.0,0.0,0.0,0.0,0.0,0.0,-1.6936,-1.6108,-1.3861,-1.2958,-1.2501,-1.2501,-1.2501,-1.2501,-1.2501,-1.2501,-1.2501,-1.2501,-1.2501,-1.2501,-1.2501,-1.2733,-1.2656,-1.2501,-1.2888,-1.2424,-1.1262,-1.1029,-1.0563,-0.9942,-0.9085,-0.9007,-0.9324,-0.87,-0.8778,-0.9168,-1.0019,-1.0563,-1.1029,-1.165,-1.2192,-1.2501,-1.2269,-1.2037,-1.1882,-1.165,-1.1572,-1.1495,-1.0796,-1.0446,-1.0164,-1.0009,-0.9381,-0.8814,-0.8482,-0.8118,-0.7612,-0.7079,-0.7425,-0.786,-0.786,-0.8,-0.8179,-0.8283,-0.8197,-0.8323,-0.8975,-0.9135,-0.9231,-0.9672,-0.9802,-0.9862,-0.9921,-0.9981,-1.0019,-1.0019,-0.9965,-0.9927,-0.9927,-0.9927,-0.8765,-0.6284,-0.4836,-0.2271,0.1493,0.1178,0.0707,0.0314,0.0079,0.0,-0.0079,-0.1725,-0.3368,0.0,0.0,0.0,0.0,0.0,-1.4277,0.0,0.0,0.0,0.0,0.0,0.0,0.0,0.0,0.0,0.0,0.0,0.0,0.0,0.0,0.0,0.0,0.0,0.0,0.0,-1.6582,-1.5336,-1.2678,-1.2433,-1.244,-1.2501,-1.2501,-1.2501,-1.2501,-1.2501,-1.2501,-1.2501,-1.2501,-1.2501,-1.2501,-1.2888,-1.2965,-1.2656,-1.3274,-1.2888,-1.165,-1.1727,-1.1262,-1.0486,-1.0097,-1.0253,-1.0641,-0.948,-0.9246,-0.9708,-1.0719,-1.1184,-1.1417,-1.2037,-1.2347,-1.2424,-1.2114,-1.2037,-1.196,-1.165,-1.1727,-1.1727,-1.1029,-1.0957,-1.1033,-1.0409,-1.0106,-0.9693,-0.8909,-0.8568,-0.8155,-0.7327,-0.7656,-0.816,-0.8251,-0.8634,-0.8821,-0.8612,-0.8626,-0.8775,-0.9192,-0.9273,-0.9385,-0.9785,-0.9873,-0.9911,-1.0008,-0.9998,-0.9987,-0.9987,-0.9894,-0.9878,-0.9981,-0.9916,-0.9141,-0.7591,-0.4771,-0.1644,0.1807,0.1099,0.0707,0.0628,0.0157,-0.0157,-0.0549,-0.2195,-0.3916,0.0,0.0,0.0,0.0,-1.4292,0.0,0.0,0.0,0.0,0.0,0.0,0.0,0.0,0.0,0.0,0.0,0.0,0.0,0.0,0.0,0.0,0.0,0.0,0.0,0.0,0.0,-1.3982,-1.2443,-1.2189,-1.2223,-1.2488,-1.2501,-1.2501,-1.2501,-1.2501,-1.2501,-1.2501,-1.2501,-1.2501,-1.2501,-1.2888,-1.3042,-1.3042,-1.312,-1.3042,-1.2811,-1.1805,-1.1727,-1.2114,-1.0641,-1.0486,-1.1107,-1.0253,-1.0097,-1.0408,-1.0253,-1.0641,-1.134,-1.1417,-1.1882,-1.2501,-1.2424,-1.2424,-1.2424,-1.2347,-1.2114,-1.1882,-1.1805,-1.1482,-1.1315,-1.1624,-1.1071,-1.0335,-0.9829,-0.9116,-0.8337,-0.7716,-0.7852,-0.8251,-0.8715,-0.926,-0.9559,-0.9569,-0.928,-0.9202,-0.9794,-0.9904,-0.9909,-0.9998,-0.9998,-1.0003,-1.0019,-0.9921,-0.9856,-0.9856,-0.9845,-0.9845,-0.9856,-0.9949,-0.9226,-0.7591,-0.3599,-0.0392,0.1886,0.1414,0.1021,0.0628,0.0157,-0.0785,-0.2272,-0.3918,-0.5639,0.0,0.0,0.0,0.0,0.0,0.0,-1.3445,0.0,-1.2951,0.0,0.0,0.0,0.0,0.0,0.0,0.0,0.0,0.0,0.0,0.0,0.0,0.0,0.0,0.0,0.0,0.0,0.0,0.0,0.0,-1.206,-1.2366,-1.2461,-1.2501,-1.2501,-1.2501,-1.2501,-1.2501,-1.2733,-1.2888,-1.2888,-1.3513,-1.3744,-1.3428,-1.3744,-1.359,-1.3042,-1.2579,-1.2424,-1.2424,-1.1727,-1.165,-1.196,-1.134,-1.0719,-1.0253,-1.033,-1.0719,-1.134,-1.1572,-1.2037,-1.2501,-1.2501,-1.2501,-1.2501,-1.2501,-1.2347,-1.2192,-1.196,-1.1805,-1.1727,-1.1882,-1.1495,-1.0839,-1.0097,-0.9421,-0.8748,-0.7972,-0.8067,-0.8493,-0.8909,-0.9409,-0.9693,-0.9758,-0.9671,-0.9674,-0.9925,-1.0019,-1.0019,-1.0019,-1.0019,-0.9992,-0.9921,-0.9932,-0.9916,-0.9845,-0.99,-0.9943,-0.9943,-0.8119,-0.6573,-0.5396,-0.2037,0.0235,0.1099,0.0785,0.0236,-0.0471,-0.0942,-0.243,-0.5084,-0.5011,-0.5874,-1.6609,0.0,0.0,0.0,0.0,0.0,0.0,0.0,0.0,0.0,0.0,0.0,0.0,0.0,0.0,0.0,0.0,0.0,0.0,0.0,0.0,0.0,0.0,0.0,0.0,0.0,0.0,0.0,0.0,0.0,-1.2271,-1.2427,-1.2501,-1.2501,-1.2501,-1.2501,-1.2501,-1.2888,-1.312,-1.312,-1.3975,-1.4207,-1.3898,-1.413,-1.3898,-1.3274,-1.3042,-1.2733,-1.2501,-1.2501,-1.2424,-1.2347,-1.2037,-1.1262,-1.0408,-1.0563,-1.0874,-1.134,-1.165,-1.2037,-1.2501,-1.2501,-1.2501,-1.2501,-1.2501,-1.2501,-1.2424,-1.2114,-1.2037,-1.2037,-1.2037,-1.165,-1.1083,-1.0141,-0.9484,-0.8903,-0.8067,-0.8106,-0.8469,-0.9026,-0.9338,-0.9602,-0.9791,-0.9932,-0.9981,-1.0014,-1.0019,-1.0019,-1.0019,-1.0019,-0.9987,-0.9894,-0.9938,-0.9932,-0.9845,-0.9916,-0.9987,-1.0175,-0.7903,-0.5867,-0.4378,-0.2272,-0.0628,0.0393,-0.0392,-0.102,-0.1336,-0.259,-0.4542,-0.7033,-0.6101,-0.6807,0.0,0.0,0.0,-1.5469,0.0,0.0,0.0,0.0,-1.4663,0.0,0.0,0.0,0.0,0.0,0.0,-1.3097,0.0,0.0,0.0,0.0,0.0,0.0,0.0,0.0,0.0,0.0,0.0,0.0,0.0,0.0,-1.2257,-1.2427,-1.2501,-1.2501,-1.2501,-1.2501,-1.2501,-1.2888,-1.312,-1.312,-1.3975,-1.4368,-1.4368,-1.3898,-1.3744,-1.3667,-1.2888,-1.2501,-1.2501,-1.2501,-1.2269,-1.1882,-1.1882,-1.165,-1.1184,-1.0796,-1.0874,-1.1262,-1.134,-1.1805,-1.2501,-1.2501,-1.2501,-1.2501,-1.2501,-1.2501,-1.2501,-1.2501,-1.2501,-1.2501,-1.2501,-1.1882,-1.1107,-1.0169,-0.931,-0.8545,-0.808,-0.7929,-0.8115,-0.9051,-0.9223,-0.9413,-0.9915,-0.9921,-0.9883,-1.0003,-1.0019,-1.0019,-1.0019,-1.0019,-1.0019,-1.0014,-0.9911,-0.984,-0.9835,-0.984,-1.0048,-1.0552,-1.0486,-0.8915,-0.5711,-0.548,-0.3681,-0.0079,-0.1959,-0.2429,-0.1336,-0.493,-0.7033,-0.7505,-0.7427,-0.9221,0.0,0.0,-1.7857,-1.6908,0.0,0.0,0.0,0.0,0.0,0.0,0.0,0.0,0.0,0.0,0.0,0.0,0.0,0.0,0.0,0.0,0.0,0.0,0.0,0.0,0.0,0.0,0.0,0.0,0.0,0.0,0.0,-1.2277,-1.2406,-1.2501,-1.2501,-1.2501,-1.2501,-1.2888,-1.312,-1.312,-1.3975,-1.4207,-1.3898,-1.3744,-1.3583,-1.3274,-1.2733,-1.2501,-1.2501,-1.2501,-1.2424,-1.2269,-1.2269,-1.2347,-1.2347,-1.1107,-1.0874,-1.134,-1.1572,-1.2037,-1.2501,-1.2501,-1.2501,-1.2501,-1.2501,-1.2501,-1.2501,-1.2501,-1.2501,-1.2501,-1.2501,-1.2114,-1.1417,-1.0253,-0.9527,-0.8954,-0.8261,-0.8543,-0.9064,-0.964,-0.996,-1.0203,-1.0402,-1.0374,-1.028,-1.0014,-1.0019,-1.0019,-1.0019,-1.0019,-0.9987,-0.9905,-0.9932,-0.9927,-0.9845,-0.9911,-1.0131,-1.0558,-0.9542,-0.7976,-0.5711,-0.4539,-0.2977,-0.0864,-0.2664,-0.3603,-0.3764,-0.6414,-0.8361,-0.9532,-0.9842,-1.0934,-2.021,-1.9802,0.0,-1.7987,-1.7875,0.0,-1.6651,0.0,0.0,0.0,0.0,0.0,0.0,0.0,0.0,0.0,0.0,0.0,0.0,0.0,0.0,0.0,0.0,0.0,0.0,0.0,0.0,0.0,0.0,0.0,0.0,0.0,-1.2484,-1.2427,-1.2628,-1.2656,-1.2501,-1.3042,-1.3274,-1.3351,-1.4207,-1.4438,-1.4122,-1.3821,-1.3583,-1.3274,-1.2733,-1.2501,-1.2501,-1.2501,-1.2501,-1.2501,-1.2501,-1.2656,-1.2733,-1.165,-1.1495,-1.1727,-1.1882,-1.2192,-1.2501,-1.2501,-1.2501,-1.2501,-1.2501,-1.2501,-1.2501,-1.2656,-1.2579,-1.2501,-1.2656,-1.2192,-1.1495,-1.0641,-1.0019,-0.948,-0.8934,-0.9246,-0.9708,-1.0175,-1.0408,-1.0641,-1.0796,-1.0874,-1.0719,-1.0253,-1.0175,-1.0175,-1.0175,-1.0175,-1.0142,-1.0064,-1.028,-1.0452,-1.0372,-1.044,-1.0641,-1.1029,-0.9464,-0.7898,-0.6339,-0.5243,-0.3994,-0.2668,-0.4852,-0.6023,-0.6105,-0.8677,-1.0236,-1.0856,-1.1714,-1.2494]},{"header":{"parameterUnit":"m.s-1","parameterCategory":1,"la1":30.6,"la2":29.2853,"lo1":-89.7004,"lo2":-87.6739,"dx":0.0162,"dy":0.0183,"nx":112,"ny":82,"refTime":"2022-12-07T06:00:00:Z","depth":0,"parameterNumber":3,"parameterNumberName":"V-component_of_WINDS"},"data":[0.0,0.0,0.0,0.0,0.0,0.0,0.0,0.0,0.0,0.0,0.0,0.0,0.0,0.0,0.0,0.0,0.0,0.0,0.0,0.0,0.0,0.0,0.0,0.0,0.0,0.0,0.0,0.0,0.0,0.0,0.0,0.0,0.0,0.0,0.0,0.0,0.0,0.0,0.0,0.0,0.0,0.0,0.0,0.0,0.0,0.0,0.0,0.0,0.0,0.0,0.0,0.0,0.0,0.0,0.0,0.0,0.0,0.0,0.0,0.0,0.0,0.0,0.0,0.0,0.0,0.0,0.0,0.0,0.0,0.0,0.0,0.0,0.0,0.0,0.0,0.0,0.0,0.0,0.0,0.0,0.0,0.0,0.0,0.0,0.0,0.0,0.0,0.0,0.0,0.0,3.8542,3.9313,3.9499,3.9798,4.0337,3.9349,3.7634,3.515,0.0,0.0,0.0,0.0,0.0,0.0,0.0,0.0,0.0,0.0,0.0,0.0,0.0,0.0,0.0,0.0,0.0,0.0,0.0,0.0,0.0,0.0,0.0,0.0,0.0,0.0,0.0,0.0,0.0,0.0,0.0,0.0,0.0,0.0,0.0,0.0,0.0,0.0,0.0,0.0,0.0,0.0,0.0,0.0,0.0,0.0,0.0,0.0,0.0,0.0,0.0,0.0,0.0,0.0,0.0,0.0,0.0,0.0,0.0,0.0,0.0,0.0,0.0,0.0,0.0,0.0,0.0,0.0,0.0,0.0,0.0,0.0,0.0,0.0,0.0,0.0,0.0,0.0,0.0,0.0,0.0,0.0,0.0,0.0,0.0,0.0,0.0,0.0,0.0,0.0,0.0,0.0,0.0,0.0,0.0,0.0,0.0,0.0,0.0,0.0,0.0,0.0,0.0,0.0,3.8033,3.9254,3.9918,4.0277,4.0397,4.0217,3.8642,3.5207,0.0,0.0,0.0,0.0,0.0,0.0,0.0,0.0,0.0,0.0,0.0,0.0,0.0,0.0,0.0,0.0,0.0,0.0,0.0,0.0,0.0,0.0,0.0,0.0,0.0,0.0,0.0,0.0,0.0,0.0,0.0,0.0,0.0,0.0,0.0,0.0,0.0,0.0,0.0,0.0,0.0,0.0,0.0,0.0,0.0,0.0,0.0,0.0,0.0,0.0,0.0,0.0,0.0,0.0,0.0,0.0,0.0,0.0,0.0,0.0,0.0,0.0,0.0,0.0,0.0,0.0,0.0,0.0,0.0,0.0,0.0,0.0,0.0,0.0,0.0,0.0,0.0,0.0,0.0,0.0,0.0,0.0,0.0,0.0,0.0,0.0,0.0,0.0,0.0,0.0,0.0,0.0,0.0,0.0,0.0,0.0,0.0,0.0,0.0,0.0,0.0,0.0,0.0,3.8557,3.8721,3.9313,3.9679,4.0008,4.0367,4.0397,3.9025,3.5845,3.5113,0.0,0.0,0.0,0.0,0.0,0.0,0.0,0.0,0.0,0.0,0.0,0.0,0.0,0.0,0.0,0.0,0.0,0.0,0.0,0.0,0.0,0.0,0.0,0.0,0.0,0.0,0.0,0.0,0.0,0.0,0.0,0.0,0.0,0.0,0.0,0.0,0.0,0.0,0.0,0.0,0.0,0.0,0.0,0.0,0.0,0.0,0.0,0.0,0.0,0.0,0.0,0.0,0.0,0.0,0.0,0.0,0.0,0.0,0.0,0.0,0.0,0.0,0.0,0.0,0.0,0.0,0.0,0.0,0.0,0.0,0.0,0.0,0.0,0.0,0.0,0.0,0.0,0.0,0.0,0.0,0.0,0.0,0.0,0.0,0.0,0.0,0.0,0.0,0.0,0.0,0.0,0.0,0.0,0.0,0.0,0.0,0.0,0.0,0.0,0.0,0.0,0.0,3.9555,3.9954,3.9583,3.9517,3.9691,4.0127,4.0157,3.8974,3.6146,3.5949,0.0,0.0,0.0,0.0,0.0,0.0,0.0,0.0,0.0,0.0,0.0,0.0,0.0,0.0,0.0,0.0,0.0,0.0,0.0,0.0,0.0,0.0,0.0,0.0,0.0,0.0,0.0,0.0,0.0,0.0,0.0,0.0,0.0,0.0,0.0,0.0,0.0,0.0,0.0,0.0,0.0,0.0,0.0,0.0,0.0,0.0,0.0,0.0,0.0,0.0,0.0,0.0,0.0,0.0,0.0,0.0,0.0,0.0,0.0,0.0,0.0,0.0,0.0,0.0,0.0,0.0,0.0,0.0,0.0,0.0,0.0,0.0,0.0,0.0,0.0,0.0,0.0,0.0,0.0,0.0,0.0,0.0,0.0,0.0,0.0,0.0,0.0,0.0,0.0,0.0,0.0,0.0,0.0,0.0,0.0,0.0,0.0,0.0,0.0,0.0,0.0,0.0,4.0645,4.161,4.0142,3.9975,3.9833,3.9499,3.9463,3.8259,3.5467,3.5272,0.0,0.0,0.0,0.0,0.0,0.0,0.0,0.0,0.0,0.0,0.0,0.0,0.0,0.0,0.0,0.0,0.0,0.0,0.0,0.0,0.0,0.0,0.0,0.0,0.0,0.0,0.0,0.0,0.0,0.0,0.0,0.0,0.0,0.0,0.0,0.0,0.0,0.0,0.0,0.0,0.0,0.0,0.0,0.0,0.0,0.0,0.0,0.0,0.0,0.0,0.0,0.0,0.0,0.0,0.0,0.0,0.0,0.0,0.0,0.0,0.0,0.0,0.0,0.0,0.0,0.0,0.0,0.0,0.0,0.0,0.0,0.0,0.0,0.0,0.0,0.0,0.0,0.0,0.0,0.0,0.0,0.0,0.0,0.0,0.0,0.0,0.0,0.0,0.0,0.0,0.0,0.0,0.0,0.0,0.0,0.0,0.0,0.0,0.0,0.0,0.0,0.0,4.0031,4.072,0.0,3.9803,3.9696,3.9409,3.9798,3.8825,3.6057,0.0,0.0,0.0,0.0,0.0,0.0,0.0,0.0,0.0,0.0,0.0,0.0,0.0,0.0,0.0,0.0,0.0,0.0,0.0,0.0,0.0,0.0,0.0,0.0,0.0,0.0,0.0,0.0,0.0,0.0,0.0,0.0,0.0,0.0,0.0,0.0,0.0,0.0,0.0,0.0,0.0,0.0,0.0,0.0,0.0,0.0,0.0,0.0,0.0,0.0,0.0,0.0,0.0,0.0,0.0,0.0,0.0,0.0,0.0,0.0,0.0,0.0,0.0,0.0,0.0,0.0,0.0,0.0,0.0,0.0,0.0,0.0,0.0,0.0,0.0,0.0,0.0,0.0,0.0,0.0,0.0,0.0,0.0,0.0,0.0,0.0,0.0,0.0,0.0,0.0,0.0,0.0,0.0,0.0,0.0,0.0,0.0,0.0,0.0,0.0,0.0,0.0,3.9187,4.0347,4.0925,0.0,4.0021,3.9874,3.9589,3.9901,3.9119,3.6771,0.0,0.0,0.0,0.0,0.0,0.0,0.0,0.0,0.0,0.0,0.0,0.0,0.0,0.0,0.0,0.0,0.0,0.0,0.0,0.0,0.0,0.0,0.0,0.0,0.0,0.0,0.0,0.0,0.0,0.0,0.0,0.0,0.0,0.0,0.0,0.0,0.0,0.0,0.0,0.0,0.0,0.0,0.0,0.0,0.0,0.0,0.0,0.0,0.0,0.0,0.0,0.0,0.0,0.0,0.0,0.0,0.0,0.0,0.0,0.0,0.0,0.0,0.0,0.0,0.0,0.0,0.0,0.0,0.0,0.0,0.0,0.0,0.0,0.0,0.0,0.0,0.0,0.0,0.0,0.0,0.0,0.0,0.0,0.0,0.0,0.0,0.0,0.0,0.0,0.0,0.0,0.0,0.0,0.0,0.0,0.0,0.0,0.0,0.0,0.0,0.0,0.0,4.0331,4.2015,4.2709,4.1256,4.0715,4.0366,4.0046,3.9655,3.8786,0.0,0.0,0.0,0.0,0.0,0.0,0.0,0.0,0.0,0.0,0.0,0.0,0.0,0.0,0.0,0.0,0.0,0.0,0.0,0.0,0.0,0.0,0.0,0.0,0.0,0.0,0.0,0.0,0.0,0.0,0.0,0.0,0.0,0.0,0.0,0.0,0.0,0.0,0.0,0.0,0.0,0.0,0.0,0.0,0.0,0.0,0.0,0.0,0.0,0.0,0.0,0.0,0.0,0.0,0.0,0.0,0.0,0.0,0.0,0.0,0.0,0.0,0.0,0.0,0.0,0.0,0.0,0.0,0.0,0.0,0.0,0.0,0.0,0.0,0.0,0.0,0.0,0.0,0.0,0.0,0.0,0.0,0.0,0.0,0.0,0.0,0.0,0.0,0.0,0.0,0.0,0.0,0.0,0.0,0.0,0.0,0.0,0.0,0.0,0.0,0.0,0.0,0.0,4.0166,4.1533,4.2142,4.1021,4.0677,4.0366,4.0046,4.019,3.9691,3.8169,0.0,0.0,0.0,0.0,0.0,0.0,0.0,0.0,0.0,0.0,0.0,0.0,0.0,0.0,0.0,0.0,0.0,0.0,0.0,0.0,0.0,0.0,0.0,0.0,0.0,0.0,0.0,0.0,0.0,0.0,0.0,0.0,0.0,0.0,0.0,0.0,0.0,0.0,0.0,0.0,0.0,0.0,0.0,0.0,0.0,0.0,0.0,0.0,0.0,0.0,0.0,0.0,0.0,0.0,0.0,0.0,0.0,0.0,0.0,0.0,0.0,0.0,0.0,0.0,0.0,0.0,0.0,0.0,0.0,0.0,0.0,0.0,0.0,0.0,0.0,0.0,0.0,0.0,0.0,0.0,0.0,0.0,0.0,0.0,0.0,0.0,0.0,0.0,0.0,0.0,0.0,0.0,0.0,0.0,0.0,0.0,0.0,0.0,0.0,0.0,0.0,0.0,4.0801,4.2296,4.3038,4.1966,4.1881,4.1658,4.1056,4.1134,4.0831,3.9907,0.0,0.0,0.0,0.0,0.0,0.0,0.0,0.0,0.0,0.0,0.0,0.0,0.0,0.0,0.0,0.0,0.0,0.0,0.0,0.0,0.0,0.0,0.0,0.0,0.0,0.0,0.0,0.0,0.0,0.0,0.0,0.0,0.0,0.0,0.0,0.0,0.0,0.0,0.0,0.0,0.0,0.0,0.0,0.0,0.0,0.0,0.0,0.0,0.0,0.0,0.0,0.0,0.0,0.0,0.0,0.0,0.0,0.0,0.0,0.0,0.0,0.0,0.0,0.0,0.0,0.0,0.0,0.0,0.0,0.0,0.0,0.0,0.0,0.0,0.0,0.0,0.0,0.0,0.0,0.0,0.0,0.0,0.0,0.0,0.0,0.0,0.0,0.0,0.0,0.0,0.0,0.0,0.0,0.0,0.0,0.0,0.0,0.0,0.0,0.0,0.0,0.0,4.2076,4.3893,4.4848,4.3622,4.3805,4.3611,4.2654,4.2316,4.2125,4.2065,0.0,0.0,0.0,0.0,0.0,0.0,0.0,0.0,0.0,0.0,0.0,0.0,0.0,0.0,0.0,0.0,0.0,0.0,0.0,0.0,0.0,0.0,0.0,0.0,0.0,0.0,0.0,0.0,0.0,0.0,0.0,0.0,0.0,0.0,0.0,0.0,0.0,0.0,0.0,0.0,0.0,0.0,0.0,0.0,0.0,0.0,0.0,0.0,0.0,0.0,0.0,0.0,0.0,0.0,0.0,0.0,0.0,0.0,0.0,0.0,3.0027,0.0,0.0,0.0,0.0,0.0,0.0,0.0,0.0,0.0,0.0,0.0,0.0,0.0,0.0,0.0,0.0,0.0,0.0,0.0,0.0,0.0,0.0,0.0,0.0,0.0,0.0,0.0,0.0,0.0,0.0,0.0,0.0,0.0,0.0,0.0,0.0,0.0,0.0,0.0,0.0,0.0,4.3546,4.4984,4.5609,4.4397,4.4194,4.3849,4.3012,4.3288,4.3198,4.2529,4.2272,0.0,0.0,0.0,0.0,0.0,0.0,0.0,0.0,0.0,0.0,0.0,0.0,0.0,0.0,0.0,0.0,0.0,0.0,0.0,0.0,0.0,0.0,0.0,0.0,0.0,0.0,0.0,0.0,0.0,0.0,0.0,0.0,0.0,0.0,0.0,0.0,0.0,0.0,0.0,0.0,0.0,0.0,0.0,0.0,0.0,0.0,0.0,0.0,0.0,0.0,0.0,0.0,0.0,0.0,0.0,0.0,0.0,0.0,0.0,0.0,3.1247,0.0,0.0,0.0,0.0,0.0,0.0,0.0,0.0,0.0,0.0,0.0,0.0,0.0,0.0,0.0,0.0,0.0,0.0,0.0,0.0,0.0,0.0,0.0,0.0,0.0,0.0,0.0,0.0,0.0,0.0,0.0,0.0,0.0,0.0,0.0,0.0,0.0,0.0,0.0,0.0,4.5052,4.6455,4.708,4.5896,4.57,4.5321,4.4441,4.4278,4.4044,4.3593,4.3376,0.0,0.0,0.0,0.0,0.0,0.0,0.0,0.0,0.0,0.0,0.0,0.0,0.0,0.0,0.0,0.0,0.0,0.0,0.0,0.0,0.0,0.0,0.0,0.0,0.0,0.0,0.0,0.0,0.0,0.0,0.0,0.0,0.0,0.0,0.0,0.0,0.0,0.0,0.0,0.0,0.0,0.0,0.0,0.0,0.0,0.0,0.0,0.0,0.0,0.0,0.0,0.0,0.0,3.8095,3.8542,3.8576,3.9607,4.0026,3.9964,3.8951,3.66,3.3429,3.2936,0.0,0.0,0.0,0.0,0.0,0.0,0.0,0.0,0.0,0.0,0.0,0.0,0.0,0.0,0.0,0.0,0.0,0.0,0.0,0.0,0.0,0.0,4.1016,4.5646,4.6749,4.6206,4.422,0.0,0.0,0.0,0.0,0.0,0.0,0.0,0.0,0.0,0.0,0.0,4.6514,4.7919,4.8485,4.7389,4.7374,4.707,4.6092,4.5437,4.5067,4.5067,4.4768,4.4496,0.0,0.0,0.0,0.0,0.0,0.0,0.0,0.0,0.0,0.0,0.0,0.0,0.0,0.0,0.0,0.0,0.0,0.0,0.0,0.0,0.0,0.0,0.0,0.0,0.0,0.0,0.0,0.0,0.0,0.0,0.0,0.0,3.2258,3.0048,0.0,0.0,0.0,0.0,0.0,0.0,0.0,0.0,0.0,0.0,0.0,0.0,0.0,3.702,3.7693,3.8002,3.8185,3.8341,4.0769,4.194,4.2032,4.4887,4.6164,4.6133,4.6322,0.0,3.7523,3.5153,0.0,0.0,0.0,0.0,0.0,0.0,0.0,0.0,0.0,0.0,0.0,0.0,0.0,0.0,0.0,0.0,0.0,0.0,0.0,0.0,0.0,0.0,4.1822,4.633,4.7402,4.7221,4.664,4.6163,4.5637,4.4824,4.558,4.618,0.0,0.0,0.0,0.0,0.0,0.0,4.7733,4.8677,4.9059,4.8124,4.8095,4.7836,4.7236,4.71,4.7032,4.7032,4.6965,4.6538,4.559,4.4579,0.0,0.0,0.0,0.0,0.0,0.0,0.0,0.0,0.0,0.0,0.0,0.0,0.0,0.0,0.0,0.0,0.0,0.0,0.0,0.0,0.0,0.0,0.0,0.0,0.0,0.0,0.0,0.0,0.0,3.1116,3.2325,2.9707,3.1149,3.128,0.0,0.0,0.0,0.0,0.0,0.0,0.0,0.0,0.0,3.6691,3.9168,4.076,4.134,4.2848,4.3802,4.4202,4.5672,4.6377,4.6408,4.8052,4.8742,4.8773,4.8937,4.7397,4.4481,4.1095,3.8843,3.7365,0.0,0.0,0.0,0.0,3.5252,3.4945,3.5143,3.5284,3.5433,3.562,0.0,0.0,0.0,0.0,0.0,0.0,0.0,3.579,4.0363,4.2408,4.4156,4.7339,4.8072,4.7791,4.7146,4.7174,4.7033,4.6204,4.6601,4.7056,4.6834,4.7124,0.0,0.0,0.0,4.8916,4.869,4.9722,5.027,4.9625,4.9486,4.9128,4.8364,4.7893,4.7491,4.71,4.7067,4.6971,4.6713,4.5629,4.4751,0.0,0.0,0.0,0.0,0.0,0.0,0.0,0.0,0.0,0.0,0.0,0.0,0.0,0.0,0.0,0.0,0.0,0.0,0.0,0.0,0.0,0.0,0.0,0.0,0.0,0.0,0.0,0.0,3.2372,3.3666,3.0346,3.2807,3.3702,0.0,0.0,0.0,0.0,0.0,0.0,3.5027,3.7698,3.952,4.0183,4.2906,4.4582,4.5191,4.7128,4.8397,4.8934,4.9219,4.9381,4.9493,4.986,5.0058,5.0058,5.0207,5.0168,4.9694,4.5936,4.3081,4.1149,4.0484,4.0135,3.9944,3.9944,3.9754,3.9469,3.9597,4.0003,4.0504,4.0622,4.1036,4.1513,4.1533,0.0,0.0,0.0,0.0,3.8914,4.228,4.432,4.6042,4.8312,4.8768,4.8548,4.7937,4.8282,4.8447,4.7407,4.7515,4.7849,4.8083,4.8224,0.0,0.0,0.0,4.9966,4.9972,5.0957,5.1509,5.1059,5.0941,5.0589,4.9855,4.926,4.8658,4.8098,4.78,4.7768,4.8068,4.6815,4.6258,4.6551,0.0,0.0,0.0,0.0,0.0,0.0,0.0,0.0,0.0,0.0,0.0,0.0,0.0,0.0,0.0,0.0,0.0,0.0,0.0,0.0,0.0,0.0,0.0,0.0,0.0,0.0,0.0,0.0,0.0,3.4781,3.6755,0.0,0.0,0.0,0.0,3.7597,3.787,3.8269,3.891,4.1689,4.3803,4.483,4.7544,4.9139,4.9568,4.9527,4.959,4.9852,4.9661,4.9693,4.9892,5.0292,5.0486,5.0486,5.094,5.1129,5.0828,4.7271,4.5425,4.4684,4.2333,4.1294,4.1095,4.1095,4.072,4.019,4.0674,4.0879,4.1029,4.1483,4.1647,4.1722,4.1921,4.1302,0.0,0.0,4.164,4.2433,4.5561,4.6288,4.6803,4.8949,4.9555,4.9697,4.9887,5.0215,5.0055,4.8616,4.889,4.9487,4.9717,0.0,5.0281,5.0892,5.1378,5.1771,5.1998,5.2379,5.2507,5.2145,5.2119,5.2088,5.2054,5.1716,5.1495,5.1461,5.05,4.9938,4.997,4.8554,4.7781,4.7811,4.7028,0.0,0.0,0.0,0.0,0.0,0.0,0.0,0.0,0.0,0.0,0.0,0.0,0.0,0.0,0.0,0.0,0.0,0.0,0.0,0.0,0.0,0.0,0.0,0.0,0.0,0.0,0.0,0.0,3.7117,3.9594,0.0,3.7986,3.7868,3.8584,4.0011,4.1748,4.2798,4.3046,4.5725,4.7426,4.7832,4.88,4.9372,4.9533,4.9421,4.9421,4.9533,5.0294,5.0715,5.0827,5.1866,5.2294,5.2294,5.2482,5.2482,5.2308,5.1694,5.0496,4.8994,4.8079,4.7838,4.7984,4.7984,4.7967,4.7885,4.7565,4.7803,4.8238,4.8409,4.8454,4.8105,4.6224,4.5466,4.4957,4.3802,4.4527,4.6044,4.7603,4.8913,5.009,5.1431,5.1634,5.1668,5.2369,5.2368,5.212,5.1759,5.1442,5.133,5.1656,5.2222,5.2427,5.178,5.2549,5.296,5.2164,5.2858,5.3361,5.3241,5.3479,5.3494,5.3007,5.2881,5.2547,5.2066,5.1449,5.1125,5.1125,4.9955,4.9323,4.9323,4.8568,4.8402,0.0,0.0,0.0,0.0,0.0,0.0,0.0,0.0,0.0,0.0,0.0,0.0,0.0,0.0,0.0,0.0,0.0,0.0,0.0,0.0,0.0,0.0,0.0,0.0,0.0,0.0,3.9886,3.9076,4.1758,4.3086,4.155,4.16,4.233,4.3733,4.5472,4.65,4.65,4.8292,4.9372,4.9493,4.9501,4.9573,4.9733,4.9693,4.9693,4.9733,5.0565,5.0985,5.1096,5.2273,5.2831,5.2863,5.3168,5.3226,5.3186,5.4124,5.3601,5.2221,5.2412,5.2598,5.2606,5.2375,5.2425,5.2544,5.2058,5.2202,5.2635,5.2898,5.2839,5.2252,5.0252,4.943,4.8879,4.7334,4.7995,4.924,4.9664,5.0871,5.2119,5.2781,5.2973,5.3231,5.4108,5.4047,5.3992,5.4465,5.3372,5.2488,5.2811,5.3344,5.3566,5.3101,5.3654,5.3956,5.3525,5.3975,5.4341,5.4341,5.4648,5.463,5.4174,5.3983,5.3714,5.316,5.2485,5.2099,5.2099,5.1274,5.0845,5.0845,5.0371,5.0236,5.0473,0.0,0.0,0.0,0.0,0.0,0.0,0.0,0.0,0.0,0.0,0.0,0.0,0.0,0.0,0.0,0.0,0.0,0.0,0.0,0.0,0.0,0.0,0.0,3.5523,4.0159,4.2946,4.0966,4.3459,4.5303,4.5335,4.5117,4.6121,4.8851,4.9037,4.9037,4.9037,4.921,4.9493,4.9892,4.9892,5.0129,5.0589,5.0395,5.0395,5.0589,5.0395,5.0427,5.0653,5.152,5.1958,5.203,5.2935,5.3376,5.3454,5.427,5.4527,5.4378,5.4901,5.4871,5.4409,5.3708,5.3446,5.3421,5.3382,5.3382,5.3482,5.4203,5.3942,5.3356,5.3356,5.2839,5.2157,5.2069,5.2039,5.2008,5.1825,5.2127,5.2572,5.2851,5.352,5.4301,5.4971,5.5307,5.5713,5.6505,5.4583,5.2968,5.3254,5.3345,5.378,5.4973,5.4732,0.0,5.615,5.5879,5.5537,5.5537,5.5507,5.5507,5.5507,5.5204,5.4987,5.5022,5.3711,5.2919,5.2953,5.253,5.23,5.2266,5.23,5.1961,5.1219,0.0,0.0,0.0,0.0,0.0,0.0,0.0,0.0,0.0,0.0,0.0,0.0,0.0,0.0,0.0,0.0,0.0,0.0,0.0,0.0,0.0,0.0,4.2288,4.1397,4.3142,4.5008,4.6234,4.7146,4.7793,4.8145,4.7934,4.8309,4.9559,4.9653,4.9653,4.9653,4.9693,4.9812,4.9892,4.9892,4.9971,5.0089,5.005,5.005,5.0089,5.0747,5.1049,5.112,5.2061,5.2831,5.3525,5.4323,5.5038,5.578,5.7148,5.7528,5.7103,5.581,5.5068,5.47,5.4497,5.3991,5.3401,5.3389,5.3006,5.2557,5.2777,5.267,5.2528,5.2528,5.236,5.2261,5.2688,5.2984,5.3245,5.3642,5.417,5.4838,5.5616,5.6129,5.6697,5.7528,5.7427,5.729,5.7509,5.6642,5.5917,5.6005,5.6364,5.6611,5.6577,5.6765,0.0,5.6876,5.642,5.6098,5.6098,5.5735,5.5507,5.5507,5.4893,5.4729,5.5324,5.3987,5.3441,5.4058,5.2932,5.2063,5.1522,5.2029,5.2198,0.0,0.0,0.0,0.0,0.0,0.0,0.0,0.0,0.0,0.0,0.0,0.0,0.0,0.0,0.0,0.0,0.0,0.0,0.0,0.0,0.0,0.0,4.2407,4.5615,4.5928,4.6408,4.7285,4.8707,4.9068,4.9253,4.951,4.9395,4.9489,4.986,4.9892,4.9892,4.9892,4.9892,5.0097,5.0493,5.0493,5.0691,5.1075,5.1075,5.1075,5.1075,5.1567,5.1794,5.1826,5.2693,5.3569,5.4501,5.5339,5.6047,5.6697,5.8256,5.8531,0.0,0.0,0.0,0.0,0.0,5.4617,5.3873,5.3873,5.3563,5.3184,5.3184,5.3184,5.3184,5.3184,5.3184,5.3222,5.3576,5.3839,5.4129,5.4695,5.5302,5.6004,5.6917,5.7437,5.7941,5.8593,5.8449,5.8253,5.8253,5.7992,0.0,5.7747,5.7653,5.7534,5.7462,5.751,5.7534,5.7462,5.6757,5.6311,5.6311,5.5822,5.5507,5.5507,5.5086,0.0,0.0,0.0,5.4275,5.4943,5.4014,0.0,0.0,0.0,5.3244,5.3198,5.3381,0.0,0.0,5.3203,5.3454,0.0,0.0,0.0,0.0,0.0,0.0,0.0,0.0,0.0,0.0,0.0,0.0,0.0,0.0,0.0,0.0,4.4697,4.7687,4.9504,4.9693,4.9582,4.9461,4.9963,5.0271,5.0175,5.0175,5.0175,5.0214,5.0214,5.0214,5.0182,0.0,0.0,0.0,0.0,5.1816,5.2667,5.2633,5.2667,5.2701,5.2561,5.2524,5.2559,5.3225,5.4002,5.4957,5.5808,5.6359,5.6708,5.8084,5.8083,5.7261,5.7969,5.7967,5.746,5.6012,5.5081,5.4494,5.4494,0.0,0.0,5.4494,5.4494,5.4494,5.462,5.4652,5.4648,5.471,5.4772,5.4892,5.5332,5.5928,5.657,5.7279,5.7895,5.8406,5.8656,5.8698,5.8698,5.8698,5.8698,5.8698,5.8698,5.7923,5.7437,5.7923,5.7582,5.7462,5.7946,5.7116,5.6501,5.6501,5.6014,0.0,5.5596,5.542,5.535,5.5455,5.5079,5.5057,5.5418,5.5098,5.5002,5.5071,5.4737,5.4563,5.4516,5.3979,5.4333,5.549,5.4826,5.4474,0.0,0.0,0.0,0.0,0.0,0.0,0.0,0.0,0.0,0.0,0.0,0.0,0.0,0.0,0.0,4.4495,4.878,5.2134,5.2561,5.2064,5.1373,5.0608,5.1852,5.247,5.1842,5.1776,5.1813,5.1957,5.1993,5.2065,5.2142,5.2065,5.2065,5.2243,5.2101,5.2103,5.2281,5.2281,5.2385,5.2526,0.0,0.0,5.2667,5.2905,5.3484,5.4288,5.4716,5.5548,5.6648,5.7035,5.6916,5.644,5.6934,5.6664,5.5943,5.5046,5.4632,5.4494,5.4494,5.4494,5.4494,5.4494,5.4494,5.462,5.5273,5.5472,0.0,5.5996,5.6322,5.6518,5.6385,5.6968,5.7629,5.7771,5.8216,5.8635,5.8677,5.8698,5.8698,5.8698,5.8698,5.8698,5.8698,5.8551,5.8428,5.8551,5.8449,5.8428,5.8513,5.7992,5.7582,5.7582,5.7116,5.6599,5.6174,5.5008,5.4545,5.5131,5.459,5.4311,5.4395,5.4066,5.4225,5.4915,5.4601,5.4686,5.5224,5.5104,5.5432,5.6118,5.5484,5.5443,0.0,0.0,0.0,0.0,0.0,0.0,0.0,0.0,0.0,0.0,0.0,3.8166,0.0,0.0,4.6783,4.681,5.0485,5.3238,5.284,5.3128,5.289,5.1659,5.2287,5.2641,5.2241,5.2208,5.2243,5.235,5.235,5.242,5.2596,5.2526,5.2735,5.3281,5.318,5.3382,5.3844,5.3941,5.3973,5.4008,5.4072,5.4102,5.4102,5.4164,5.4451,5.4922,5.5039,5.5553,5.627,5.6241,5.5883,5.5364,5.5471,5.5425,5.5296,5.5069,5.4992,5.4992,5.4992,5.4992,5.4992,5.4865,5.5013,5.5308,5.5645,5.5976,5.6295,5.6623,5.6819,5.7057,5.7218,5.7569,5.7969,5.8253,5.8529,5.8698,5.8698,5.8698,5.8698,5.8698,5.8698,5.8586,5.8178,5.8103,5.8252,5.8661,5.8698,5.8698,5.8698,5.8216,5.7923,5.7923,5.7413,5.6845,5.6165,5.5025,5.4522,5.4866,5.4597,5.4568,5.4973,5.4535,5.4691,5.553,5.5094,5.5219,5.5865,5.5126,5.5347,5.6345,5.5303,5.5366,0.0,0.0,0.0,0.0,0.0,0.0,0.0,0.0,3.9375,4.1891,4.2654,4.3098,4.3683,4.6913,4.9326,4.8822,5.1562,5.3565,5.2966,5.3821,5.4025,5.2802,5.2765,5.2799,5.2665,5.27,5.27,5.27,5.2736,5.2839,5.301,5.301,5.3415,5.4296,5.4296,5.4645,5.5448,5.5531,5.5561,5.5537,5.5648,5.5648,5.5596,5.5619,5.5677,5.5735,5.5735,5.5645,5.5476,5.5482,5.4973,5.4239,5.4154,5.4367,5.475,5.4957,5.5151,5.5291,5.5291,5.5361,5.5502,5.5402,5.568,5.6067,5.6204,5.6597,5.7082,5.7254,5.7316,5.7485,5.7932,5.806,5.815,5.8593,5.8698,5.8698,5.8698,5.8586,5.8475,5.8475,5.8364,5.8029,5.7398,5.7286,5.7546,5.8364,5.8475,5.8512,5.8698,5.8341,5.806,5.806,5.7653,5.6964,5.5898,5.5075,5.4544,5.4422,5.4457,5.4844,5.5547,5.5209,5.5382,5.6196,5.5857,5.6027,5.6635,5.5497,5.5623,5.6901,5.5377,5.5329,3.4168,0.0,0.0,3.7809,3.9273,4.1102,0.0,0.0,4.2235,4.3899,4.4247,4.4337,4.4556,4.8046,5.0914,5.1009,5.3468,5.5304,5.5233,5.4817,5.4439,5.4271,5.4821,5.4958,5.4306,5.4399,5.4494,5.4494,5.4741,5.4892,5.4892,5.4892,5.4953,5.5044,5.4957,5.4987,5.5229,5.5259,5.5378,5.5677,5.5677,5.5764,5.5844,5.6021,5.6021,5.5908,5.5908,5.5185,5.4054,5.4479,5.4162,5.3457,5.3596,5.3694,5.371,5.3458,5.3794,5.4419,5.4419,5.4875,5.5555,5.5964,5.6122,5.6358,5.7448,5.7799,5.7972,5.8535,5.8677,5.8677,5.8635,5.8614,5.8635,5.8677,5.8698,5.8698,5.8698,5.8141,5.7621,5.7621,5.7063,5.6543,5.6469,5.6432,5.6729,5.7509,5.7621,5.7881,5.8624,5.8656,5.8614,5.8614,5.8572,5.7713,5.5699,5.473,5.3976,5.3323,5.3662,5.4051,5.44,5.4788,5.5413,5.6249,5.6656,5.7143,5.7797,5.764,5.8053,5.8854,5.7244,5.6585,3.9801,0.0,0.0,0.0,4.3354,4.4432,4.5469,4.5552,4.6084,4.8362,4.926,4.9718,4.9749,5.1579,5.3117,0.0,5.4164,5.4977,5.4977,5.4701,5.4494,5.4494,5.477,5.4839,5.4529,5.4592,5.4623,5.4623,5.4838,5.4992,5.5079,5.5264,5.5413,5.5502,5.5496,5.5555,5.5613,5.57,5.5793,5.5822,5.6021,5.6077,5.6077,5.6217,5.5996,5.5478,5.5478,5.4901,5.3967,5.4606,5.4409,5.37,5.3816,5.4018,5.4241,5.378,5.4331,5.5267,5.5267,5.6005,5.6902,5.6993,5.7231,5.7543,5.7994,5.8338,5.8644,5.8821,5.8899,5.8859,5.8719,5.8698,5.8698,5.8698,5.8698,5.8698,5.8698,5.8066,5.7509,5.7509,5.7249,5.6881,5.6534,5.7144,5.7847,5.8323,5.7888,5.7806,5.8624,5.8698,5.8698,5.8698,5.8289,5.765,5.6742,5.5886,5.5295,5.4983,5.5144,5.5535,5.6108,5.619,5.661,5.7455,5.7554,5.7713,5.7997,5.7542,5.7537,5.7943,5.6823,5.6593,4.2628,0.0,0.0,4.5597,4.6677,4.7542,4.8522,4.8849,4.966,5.2123,5.318,5.3682,5.3682,5.4207,5.4557,5.4494,5.456,5.4557,5.4529,5.4494,5.4494,5.4494,5.4557,5.4724,5.4963,5.4727,5.4589,5.4683,5.49,5.5113,5.5289,5.559,5.5764,5.5879,5.6142,5.6305,5.6369,5.6667,5.6773,5.6688,5.6914,5.697,5.6893,5.697,5.674,5.6169,5.6169,5.574,5.5062,5.5633,5.5384,5.467,5.4818,5.5091,5.5438,5.5191,5.5593,5.62,5.62,5.6925,5.7886,5.7895,5.8142,5.8461,5.8439,5.8669,5.8965,5.8879,5.8987,5.9153,5.9053,5.9218,5.9329,5.9107,5.9032,5.8995,5.8772,5.8066,5.7509,5.7509,5.7364,5.7091,5.6668,5.7507,5.84,5.891,5.8381,5.8165,5.8921,5.8846,5.8698,5.8698,5.7992,5.7509,5.7509,5.6766,5.632,5.632,5.6506,5.6878,5.7472,5.7751,5.8036,5.8406,5.8511,5.8422,5.8201,5.7612,5.7515,5.7851,5.7059,5.7216,3.9496,0.0,4.3996,4.6076,4.8205,5.0165,5.1714,5.204,5.2495,5.4108,5.4431,5.4463,5.4463,5.4655,5.4717,5.456,5.4655,5.4717,5.456,5.4494,5.4494,5.4494,5.4776,5.527,0.0,5.5355,5.4904,5.5169,5.5502,5.5793,5.607,5.6273,5.6355,5.6355,5.6929,5.7349,5.756,5.8132,5.8488,5.8638,5.8638,5.8638,5.8638,5.8638,5.8602,5.8602,5.8602,5.8167,5.7489,5.7517,5.7025,5.6366,5.6902,5.7094,5.7193,5.7684,5.7367,5.6698,5.6698,5.7189,5.7955,5.8418,5.8586,5.8628,5.8905,5.8984,5.8945,5.876,5.9255,5.9887,5.9865,6.0481,6.0927,6.0072,5.9865,5.9643,5.8884,5.8066,5.7509,5.7509,5.7019,5.6613,5.6575,5.6817,5.7434,5.8799,5.8947,5.9166,5.9796,5.9181,5.8698,5.8698,5.7992,5.7509,5.7509,5.6766,5.632,5.632,5.7026,5.7472,5.7509,5.8974,5.9457,5.8714,5.9457,5.9457,5.8677,5.864,5.9048,5.9791,5.8974,5.9048,4.1494,4.4253,4.6956,4.8925,5.0408,5.1704,5.2768,5.3009,5.3281,5.4303,5.3322,5.2252,5.2252,5.2283,5.2313,5.2252,5.356,5.4623,5.4686,5.5227,5.5664,5.5757,5.6392,0.0,0.0,0.0,0.0,5.6886,5.7133,5.7282,5.7335,5.7632,5.7776,5.7776,5.8053,5.8253,5.8345,5.8538,5.8681,5.8674,5.8203,5.7703,5.7168,5.7168,5.7168,5.7168,5.7168,5.7025,5.6775,5.6775,5.6633,5.6509,5.7578,5.8189,5.8589,5.9671,5.9993,5.9843,5.9096,5.9536,6.0509,6.057,6.0591,6.0591,6.0628,6.0604,6.0485,6.046,6.0152,5.9903,5.9903,6.0147,6.0147,5.9292,5.9515,5.9828,5.9552,5.8479,5.7742,5.8381,5.792,5.7529,5.7765,5.8631,5.959,6.0519,6.0543,6.0529,6.0741,6.0518,6.037,6.037,6.011,5.9738,5.9144,5.8846,5.8475,5.7918,5.8661,5.9107,5.9107,6.0184,6.037,5.9515,5.9775,5.9494,5.8698,5.8698,5.8846,5.9107,5.9367,5.9961,4.4129,4.655,4.8873,5.0815,5.174,5.242,5.3213,5.3382,5.3583,5.4335,5.2701,5.1114,5.1173,5.0483,5.0063,5.0368,5.1677,5.3086,5.4344,5.5088,5.5802,5.6795,5.7535,5.8074,0.0,0.0,0.0,5.8023,5.8148,5.8267,5.8414,5.8367,5.8302,5.8302,5.8366,5.8366,5.8366,5.8595,5.8709,5.8674,5.8238,5.7703,5.7239,5.7239,5.7457,5.7927,5.7927,5.8206,5.8645,5.8645,5.8645,5.8734,5.9782,6.0334,6.0702,6.1744,6.2267,6.2283,6.0961,6.1042,6.1689,6.1572,6.1551,6.1569,6.1446,6.1363,6.13,6.1257,6.0821,6.037,6.037,6.037,6.0184,5.9329,5.9515,5.9876,5.9729,5.895,5.8484,5.9246,5.9063,5.8873,5.9071,6.0013,6.0882,6.1243,6.1545,6.1608,6.1261,6.1187,6.1187,6.1187,6.0927,6.0518,5.9961,5.9664,5.9255,5.8735,5.9775,6.037,6.037,6.1447,6.1521,6.0407,6.037,5.9812,5.8698,5.8995,5.9144,5.9181,6.041,6.1313,4.6898,4.8655,4.9792,5.1748,5.2314,5.2526,5.3281,5.3449,5.3649,5.423,5.2528,5.0937,0.0,0.0,4.8182,4.9055,4.9465,5.0732,5.3836,5.432,5.5249,0.0,0.0,0.0,0.0,0.0,0.0,5.8501,0.0,5.8709,5.9139,5.8439,5.8044,5.8044,5.7935,5.7853,5.7853,5.8402,5.8674,5.8638,5.8638,5.8667,5.8695,5.8695,5.939,6.0682,6.0682,6.1397,6.2585,6.2585,6.2585,6.2634,6.3094,6.3234,6.328,6.3727,6.3979,6.3838,6.2266,6.1681,6.1637,6.1637,6.1599,6.1541,6.1416,6.1337,6.1279,6.1209,6.1187,6.115,6.115,6.115,6.0927,6.0072,5.9908,5.9872,5.9547,5.9462,5.9576,6.0094,6.0315,6.0406,6.0406,6.0814,6.108,6.0904,6.194,6.2363,6.1416,6.1261,6.1261,6.1261,6.0481,5.9961,5.9903,5.9218,5.8735,5.8698,6.0258,6.1187,6.1187,6.2725,6.2836,6.1298,6.124,6.0422,5.8826,5.9589,5.9998,6.0094,6.2118,6.3123,4.7742,5.0119,5.2438,5.2943,5.3516,5.3979,5.4141,5.4239,5.3791,5.2261,5.0207,4.8183,0.0,0.0,0.0,4.9117,5.2056,0.0,5.6462,5.7316,0.0,5.8748,0.0,6.0012,5.9657,5.9621,0.0,0.0,5.8645,5.8709,5.8823,5.8609,5.8502,5.8502,5.8473,5.8445,5.8445,5.8631,5.8388,5.7882,5.7882,5.8096,5.8481,5.8481,5.9165,6.0396,6.0396,6.0579,6.0908,6.0908,6.0908,6.1005,6.2008,6.2405,6.2524,6.3525,6.3915,6.3899,6.3403,6.3318,6.3422,6.3254,6.2817,6.2274,6.2144,6.1713,6.1209,6.1187,6.0741,6.0221,6.0221,6.0221,6.0078,5.9387,5.9809,6.0379,6.0513,6.0194,6.0197,6.104,6.0866,6.0541,6.0541,6.0635,6.0634,6.0554,6.1758,6.2563,6.2156,6.2116,6.2116,6.2116,6.1373,6.063,5.994,5.9717,5.9367,5.8735,6.0258,6.1187,6.1187,6.2658,6.3029,6.2116,6.19,6.1337,6.0425,6.0816,6.1351,6.2006,6.3462,6.4784,5.0017,5.2068,5.3881,5.3881,5.4207,5.4253,5.3253,5.3011,5.2356,5.0138,4.7941,0.0,0.0,0.0,0.0,0.0,0.0,0.0,5.6991,5.7745,5.8501,0.0,6.0357,0.0,5.9662,5.939,5.8944,0.0,5.8467,5.8709,5.8709,5.8417,5.8238,5.8238,5.7882,5.7703,5.7703,5.7703,5.7489,5.7088,5.7684,5.8087,5.8424,5.8978,5.992,6.1163,0.0,6.1499,6.2072,6.2072,6.2072,6.2131,6.2724,6.2976,6.3013,6.3291,6.3414,6.3397,6.2854,6.2806,6.2969,6.3146,6.2634,6.198,6.1915,6.1558,6.1187,6.1187,6.0619,6.0034,6.0034,5.9834,5.9584,5.9346,5.9718,6.0265,6.0704,6.0583,6.0596,6.1351,6.1224,6.0964,6.0964,6.0825,6.0668,6.055,6.1454,6.2048,6.1864,6.2326,6.2496,6.1915,6.115,6.0444,5.9961,5.9719,5.9499,5.9255,6.0743,6.1554,6.1384,6.304,6.3364,6.2262,6.2438,6.2379,6.2014,6.2496,6.3195,6.4079,6.5691,6.6935,5.2707,5.3946,5.4494,5.4494,5.4494,5.3908,5.1632,5.1114,5.0419,4.7969,0.0,4.4495,4.437,4.5207,4.6314,4.7512,0.0,5.3385,5.6705,5.7263,5.8134,6.0269,6.0441,6.0118,5.9304,5.8751,5.8194,5.7512,5.8303,5.8709,5.8388,5.7774,5.7509,5.7699,5.702,5.6761,5.6913,5.6913,5.6913,5.6913,5.8089,5.8732,5.8978,6.0041,6.1283,6.2582,6.2582,6.3168,6.4134,6.4134,6.4059,6.3946,6.3825,6.3763,6.363,6.2816,6.2612,6.2562,6.1624,6.1288,6.1425,6.2033,6.1707,6.1038,6.1038,6.0964,6.0853,6.0874,6.0485,6.003,6.007,5.9721,5.9417,5.9685,5.9776,5.9998,6.0602,6.0769,6.0915,6.1337,6.1412,6.1412,6.1412,6.122,6.1011,6.0809,6.1245,6.1447,6.108,6.2176,6.2542,6.1374,6.0646,6.0162,6.0136,5.9775,5.9702,6.0017,6.1393,6.1989,6.1503,6.3257,6.3538,6.203,6.2804,6.3295,6.3445,6.4294,6.52,6.622,6.8063,6.8981,5.3247,5.3946,5.4494,5.4494,5.4494,5.3908,5.1632,5.1114,0.0,0.0,4.4877,4.4133,4.2323,4.4174,4.6704,4.8942,0.0,0.0,0.0,0.0,5.9714,0.0,0.0,0.0,0.0,0.0,0.0,0.0,5.907,5.8737,5.6918,5.6668,5.7128,5.8208,5.8125,5.8548,5.9615,5.9615,5.9615,5.9615,5.9859,6.0562,6.1618,6.1856,6.2699,6.3958,6.3958,0.0,6.3308,6.3308,6.2895,6.2219,6.2101,6.2,6.1919,6.1645,6.1549,6.1549,6.1289,6.0848,6.0448,6.1193,6.0853,6.0147,6.0147,5.9664,5.9185,5.9333,5.9301,5.9248,5.9422,5.9545,5.9701,5.9908,6.0207,6.0541,6.0876,6.1139,6.1291,6.1366,6.1412,6.1412,6.1412,6.1352,6.1329,6.1275,6.1973,6.2027,6.0849,6.166,6.2178,6.1691,6.1714,6.1676,6.1347,6.1488,6.1371,6.0767,6.1558,6.1745,6.1047,6.1844,6.2203,6.1994,6.2635,6.3368,6.4142,6.5199,6.6538,6.8034,6.8807,6.9491,5.3881,5.4239,5.4494,5.4494,5.4494,5.3598,5.0149,0.0,0.0,0.0,4.2832,4.2614,4.1681,4.4388,0.0,4.8629,0.0,0.0,0.0,0.0,0.0,0.0,0.0,0.0,0.0,0.0,0.0,0.0,6.0611,6.0303,5.8945,5.9147,5.9717,6.0674,6.0699,6.1006,6.1593,6.1593,6.1593,6.1593,6.2322,6.296,6.3595,6.3851,6.4325,6.4885,6.4472,6.4059,6.3721,6.3721,6.3458,6.3083,6.2963,6.2882,6.2782,6.223,6.2039,6.1943,6.1427,6.0997,6.0778,6.1119,6.0333,5.9313,5.938,5.916,5.8922,5.9101,5.9215,5.944,5.9983,6.0404,6.0836,6.1524,6.2017,6.2403,6.253,6.23,6.208,6.208,6.1723,6.1412,6.1412,6.1412,6.1412,6.1412,6.171,6.1634,6.092,6.1544,6.1721,6.0748,6.078,6.078,6.051,6.0853,6.101,6.0856,6.1538,6.1673,6.1098,6.2357,6.29,6.2482,6.3613,6.4638,6.5545,6.61,6.7233,6.8887,6.9093,6.9616,5.4198,5.4494,5.4494,5.4494,5.4494,5.3356,4.8913,4.7913,0.0,0.0,4.1696,4.1731,4.184,0.0,4.7114,0.0,5.1546,5.5108,0.0,0.0,0.0,0.0,0.0,0.0,0.0,0.0,0.0,0.0,6.2885,6.2676,6.1523,6.1897,6.2526,6.3222,6.3222,6.3344,6.3648,6.3648,6.3574,6.339,6.4465,6.4845,6.4718,6.5078,6.5223,6.5223,6.4547,6.4209,6.4021,6.4001,6.3889,6.3719,6.3597,6.3535,6.3402,6.2662,6.2396,6.2263,6.1523,6.1257,6.1257,6.1273,6.038,5.9322,5.9505,5.9547,5.9645,5.9835,6.0053,6.0396,6.1111,6.166,6.2273,6.3168,6.3708,6.3983,6.3983,6.3439,6.2973,6.2973,6.2429,6.1963,6.1963,6.1963,6.1956,6.1949,6.181,6.1688,6.1543,6.1962,6.1786,6.0529,6.0389,6.0324,6.0155,6.0491,6.0798,6.0993,6.1696,6.1865,6.1324,6.2862,6.337,6.2624,6.4114,6.5299,6.6178,6.6522,6.7477,6.8929,6.912,6.954,5.3911,5.4494,5.4494,5.4494,5.4494,5.3494,4.9568,0.0,0.0,4.4024,4.3273,4.316,4.2764,4.4132,4.5669,4.6835,4.9174,5.2344,5.6595,5.7949,5.9114,0.0,0.0,0.0,0.0,0.0,0.0,0.0,0.0,6.5726,6.2792,6.2695,6.3296,6.4568,6.4605,6.518,6.6432,6.6432,6.602,6.5249,6.5366,6.5049,6.4356,6.4397,6.4397,6.4397,6.4322,6.3871,0.0,6.3096,6.2568,6.1836,6.1773,6.1649,6.1566,6.147,6.1406,6.132,6.1246,6.1209,6.123,6.1405,6.1375,6.1263,6.1246,6.1387,6.1581,6.1769,6.2012,6.2284,6.2574,6.3002,6.3487,6.3867,6.3969,6.3983,6.3983,6.3945,6.3867,6.3867,6.3828,6.375,6.375,6.375,6.3735,6.3697,6.3568,6.341,6.3295,6.3199,6.3079,6.2748,6.2682,6.2551,6.2184,6.2445,6.2342,6.1659,6.2386,6.2462,6.1687,6.1774,6.1822,6.1707,6.2662,6.3541,6.442,6.5948,6.7133,6.805,6.8814,6.9234,5.3873,5.4494,5.4494,5.4494,5.3804,5.236,4.9465,0.0,0.0,4.3364,4.2462,4.2311,4.3014,4.4059,4.5298,4.6762,4.8764,5.0994,5.3526,5.5159,5.6957,5.9239,0.0,0.0,0.0,0.0,0.0,0.0,0.0,6.7966,6.6708,6.6354,6.655,6.7404,6.7463,6.7679,6.8264,6.7739,6.7363,6.6988,6.65,6.6087,6.5807,6.5261,6.5035,6.4998,6.451,6.4096,0.0,6.3675,6.3409,6.3089,6.2939,6.2854,6.2789,6.2724,6.2658,6.2636,6.2636,6.2724,6.2838,6.2923,6.315,6.3161,6.2183,6.1902,6.2068,6.2428,6.2597,6.2877,6.3614,6.444,6.5161,6.5421,6.5498,6.5498,6.5498,6.511,6.4721,6.4721,6.4333,6.3983,6.3983,6.3961,6.3938,6.3883,6.3708,6.3562,6.3472,6.3308,6.3129,6.2949,6.2978,6.2935,6.2719,6.2833,6.2739,6.2424,6.2715,6.2753,6.2438,6.2409,6.2395,6.2395,6.2739,6.3083,6.3427,6.4611,6.5872,6.7209,6.8012,6.8967,5.2873,5.4011,5.4494,5.4494,5.3184,5.1326,0.0,0.0,0.0,4.3266,4.2485,4.2489,4.3713,4.457,4.556,4.6873,4.8397,5.0101,5.2095,5.3558,5.5381,0.0,0.0,0.0,0.0,0.0,0.0,0.0,0.0,6.849,6.849,6.8144,6.8211,6.8844,6.8865,6.8753,6.849,6.7926,6.7513,6.7251,6.6687,6.6274,6.6032,6.5411,6.5148,6.511,6.4507,6.4244,0.0,6.4079,6.4016,6.3995,6.3802,6.3736,6.3714,6.3624,6.3602,6.3602,6.3602,6.372,6.3899,6.3963,6.4328,6.4498,6.3272,6.2914,6.302,6.3421,6.3646,6.3963,6.4871,6.5672,6.6272,6.6439,6.6508,6.6508,6.6508,6.6003,6.5569,6.5569,6.5102,6.4706,6.4706,6.4668,6.4635,6.4619,6.4367,6.4188,6.4135,6.3924,6.3733,6.3671,6.3662,6.3485,6.2968,6.2892,6.2892,6.2892,6.3159,6.3274,6.3274,6.3274,6.3274,6.3274,6.3045,6.2892,6.2892,6.377,6.4802,6.5987,6.7286,6.8929,5.0528,5.2804,5.4494,5.4494,5.2804,5.0735,0.0,0.0,4.53,4.4283,4.4192,4.4456,4.508,4.5832,4.6537,4.7039,4.7774,4.9637,5.3461,5.4,5.502,0.0,0.0,0.0,0.0,0.0,0.0,0.0,0.0,0.0,6.6821,6.6821,6.7176,6.8002,6.8002,6.7626,6.6821,6.6821,6.6387,6.5523,6.5523,6.511,6.4322,6.4322,6.4304,6.4284,6.4162,6.4083,0.0,6.3888,6.378,6.378,6.3647,6.3602,6.3602,6.3602,6.3602,6.3602,6.3602,6.372,6.392,6.4149,6.4557,6.4976,6.4903,6.4888,6.492,6.5207,6.5641,6.6109,6.6422,6.6501,6.6508,6.6508,6.6508,6.6508,6.6508,6.6508,6.6508,6.6508,6.6431,6.6367,6.6367,6.6373,6.6367,6.6273,6.6041,6.5869,6.5795,6.5527,6.5375,6.5375,6.5375,6.4688,6.3045,6.2892,6.2892,6.2892,6.3694,6.4206,6.4206,6.4206,6.4206,6.4206,6.335,6.2892,6.2892,6.377,6.4206,6.4282,6.6766,6.9234,4.8183,4.9292,4.9873,4.9873,4.8499,4.7086,4.6603,0.0,4.3559,4.3398,4.3202,4.3584,4.5349,4.59,4.658,4.8068,4.8529,4.9323,5.1155,0.0,0.0,5.7553,0.0,0.0,0.0,0.0,0.0,0.0,0.0,0.0,6.6821,6.6821,6.6934,6.7196,6.7176,6.7063,6.6821,6.6199,6.5786,6.5486,6.4923,6.4547,6.4284,6.4203,6.4183,6.4162,6.4,6.3958,6.3937,6.3845,6.378,6.378,6.3647,6.3602,6.3602,6.3602,6.3602,6.3669,6.3954,6.4254,6.4501,6.4916,6.5214,6.5454,6.5451,6.5461,6.5493,6.5779,6.6108,6.6398,6.6493,6.6508,6.6508,6.6508,6.6508,6.6501,6.6431,6.6422,6.6414,6.6428,6.6411,6.6403,6.6403,6.6367,6.6322,6.6312,6.6112,6.5943,6.5795,6.5649,6.5494,6.5429,6.5413,6.5184,6.4649,6.4611,6.4611,6.4611,6.4879,6.5031,6.5031,6.4511,6.4206,6.4206,6.335,6.2892,6.2892,6.377,6.5085,6.6789,6.8699,7.0686,4.5803,4.7044,4.7672,4.7672,4.6355,4.4975,4.4975,4.3624,4.2494,4.2747,4.3097,4.3906,4.577,4.6374,4.7089,4.867,4.915,4.9911,5.1414,0.0,0.0,5.7976,0.0,0.0,0.0,0.0,0.0,0.0,0.0,0.0,6.5882,6.5882,6.5882,6.5882,6.6124,6.6162,6.5882,6.5298,6.5035,6.5035,6.4547,6.4264,6.4224,6.4142,6.4063,6.4021,6.3894,6.3888,0.0,6.383,6.3659,6.3435,6.3609,6.355,6.3326,6.3674,6.3835,6.393,6.4369,6.4727,6.5029,6.5293,6.555,6.5743,6.5931,6.592,6.5886,6.6067,6.629,6.6508,6.6508,6.6508,6.6508,6.6508,6.6508,6.6493,6.6414,6.6406,6.6389,6.6394,6.6367,6.6358,6.6358,6.6312,6.6274,6.6274,6.6112,6.5967,6.5833,6.569,6.5537,6.539,6.5413,6.5413,6.5413,6.5413,6.5413,6.5413,6.5413,6.5413,6.5413,6.4917,6.4649,6.4649,6.3809,6.3388,6.3388,6.4229,6.5757,6.7935,6.9616,7.1336,0.0,4.5596,4.7217,4.7217,4.563,4.4069,4.4095,4.3034,0.0,4.2554,4.3779,4.5161,4.6389,4.7181,4.7961,4.8779,4.9596,5.1007,0.0,5.4951,0.0,0.0,6.0918,0.0,0.0,0.0,0.0,0.0,0.0,0.0,6.4284,6.4284,6.4284,6.4284,6.5035,6.5073,6.4304,6.4284,6.4284,6.4284,6.4284,6.4224,6.4121,6.41,6.4,0.0,6.3823,6.378,6.3802,6.3873,6.3451,6.2816,6.36,6.3435,6.2878,6.3889,6.4293,6.4424,6.4807,6.5176,6.5419,6.5484,6.5577,6.5851,6.6334,6.6308,6.6108,6.6128,6.6308,6.6508,6.6508,6.6508,6.6508,6.6508,6.6508,6.6493,6.6406,6.6398,6.6381,6.6376,6.6331,6.6303,6.6303,6.6254,6.6185,6.6185,6.6091,6.5978,6.5833,6.5717,6.5566,6.5429,6.5429,6.5429,6.5413,6.5413,6.5413,6.5413,6.5413,6.5413,6.5413,6.5413,6.5413,6.5413,6.4649,6.432,6.4397,6.5146,6.633,6.8012,6.9655,7.1336,4.155,0.0,4.2492,4.2492,4.2102,4.1784,0.0,4.2674,4.3263,4.3775,4.4966,4.6217,4.7222,4.7553,4.7961,4.8779,4.9596,5.1007,5.3628,0.0,0.0,6.2873,6.3418,0.0,0.0,0.0,0.0,0.0,0.0,6.4284,6.4284,6.4284,6.4284,6.4284,6.4472,6.4472,6.4284,6.4284,6.4284,6.4284,6.4203,6.4142,6.4083,6.3953,6.3845,6.3823,6.3691,6.3736,6.3894,6.3878,6.3535,6.3003,6.3828,6.3764,6.3329,6.4253,6.471,6.4962,6.5434,6.5652,6.5786,6.6119,6.629,6.6325,6.6446,6.6308,6.6138,6.6334,6.6439,6.6508,6.6508,6.6508,6.6508,6.6508,6.6446,6.6406,6.6403,6.6367,6.6322,6.6274,6.6215,6.6205,6.6205,6.6195,6.6185,6.6185,6.6165,6.6069,6.5807,6.5883,6.5795,6.5459,6.5479,6.5509,6.5429,6.5413,6.5413,6.5413,6.5413,6.5413,6.5413,6.5413,6.5413,6.5413,6.5222,6.5452,6.6101,6.6292,6.7247,6.8929,6.9922,7.1336,4.0894,4.0894,4.0894,4.0894,4.0894,4.1105,4.1933,4.2875,4.3844,4.4746,4.5989,4.7094,4.761,4.7999,4.8519,4.9336,5.0785,0.0,0.0,0.0,6.1142,6.2911,6.3098,0.0,0.0,0.0,0.0,0.0,0.0,6.5469,6.5469,6.5469,6.5469,6.5469,6.5469,6.5093,6.4304,6.4244,6.4036,6.3661,6.3539,6.3455,6.3414,6.3286,6.3423,6.3691,6.3736,6.3808,6.3899,6.4145,6.3798,6.3238,6.4181,6.4153,6.3676,6.4718,6.5226,6.5474,6.5887,6.6051,6.6157,6.6422,6.6508,6.6508,6.6508,6.6406,6.6308,6.6446,6.6508,6.6508,6.6508,6.6508,6.6501,6.6446,6.6422,6.6389,6.6358,6.6331,6.6293,6.6195,6.6185,6.6185,6.6185,6.6185,6.6185,6.6185,6.6185,6.6123,6.5931,6.5919,6.582,6.5509,6.5494,6.5465,6.5413,6.5413,6.5413,6.5413,6.5413,6.5413,6.5413,6.5413,6.5413,6.5413,6.5413,6.5834,6.6713,6.7056,6.7935,6.9234,7.0117,7.122,4.0894,4.1216,4.1457,4.1069,4.1081,4.1511,4.2785,4.3662,4.4492,4.5699,4.698,4.7887,4.7887,4.8556,4.9299,5.0005,0.0,0.0,5.8788,5.9597,6.0369,6.1854,6.2061,0.0,0.0,0.0,0.0,0.0,0.0,6.6821,6.6821,6.665,6.6629,6.6779,6.6629,6.5933,6.4619,6.4425,6.3971,6.3239,6.3115,6.3083,6.3146,6.3125,6.3379,6.3855,0.0,0.0,6.4063,6.4462,6.4087,6.3462,6.4605,6.454,6.3963,6.5244,6.5786,6.593,6.6233,6.6414,6.6508,6.6508,6.6508,6.6508,6.6508,6.6508,6.6508,6.6508,6.6508,6.6508,6.6508,6.6501,6.6485,6.6414,6.6389,6.6364,6.6322,6.6303,6.6284,6.6195,6.6185,6.6185,6.6185,6.6185,6.6185,6.6185,6.6185,6.6144,6.6024,6.5919,6.5795,6.5622,6.5494,6.5444,6.5413,6.5413,6.5413,6.5413,6.5413,6.5413,6.5413,6.5413,6.5413,6.5413,6.5528,6.6025,6.6904,6.7706,6.8562,6.9435,7.0302,7.1145,4.0894,4.2668,4.3976,4.1928,4.1936,4.2696,4.3704,4.5171,4.6464,4.704,4.7991,4.8704,4.8704,4.9373,4.9968,5.0079,0.0,5.8005,0.0,0.0,6.328,6.3526,0.0,0.0,0.0,0.0,0.0,0.0,0.0,6.6821,6.6821,6.6062,6.5924,6.6636,6.5854,6.5662,6.6051,6.5486,6.5052,6.4855,6.4725,6.4994,6.5642,6.5603,6.5336,6.4881,0.0,6.4724,6.452,6.4577,6.4198,6.3658,6.4823,6.4896,6.4501,6.5622,6.6187,6.6414,6.6439,6.6501,6.6508,6.6508,6.6508,6.6508,6.6508,6.6508,6.6508,6.6508,6.6508,6.6508,6.6508,6.6439,6.6414,6.6406,6.6346,6.6322,6.6312,6.6274,6.6195,6.6185,6.6185,6.6185,6.6185,6.6185,6.6185,6.6185,6.6185,6.6144,6.6024,6.599,6.5883,6.5622,6.558,6.5509,6.5429,6.5413,6.5413,6.5413,6.5413,6.5413,6.5413,6.5413,6.5413,6.5413,6.6139,6.6904,6.7706,6.8585,6.9505,7.0486,7.0631,7.1204,4.0894,4.2317,4.3903,4.4271,4.5633,4.7141,4.8341,4.9528,5.0335,5.0041,5.0379,5.0435,4.9672,5.0599,5.2308,5.4983,0.0,5.8929,6.0976,0.0,0.0,0.0,0.0,0.0,0.0,0.0,0.0,0.0,0.0,0.0,6.7919,6.7538,6.7479,6.7853,6.7412,6.7143,6.7,6.6672,6.6038,6.5098,6.4964,6.5082,6.5417,6.5408,6.556,6.5783,0.0,6.5301,6.5219,6.4897,6.4941,6.528,6.5944,6.6423,6.6841,6.7484,6.7795,6.7907,6.7907,6.7907,6.7907,6.7907,6.7907,6.7907,6.7907,6.7907,6.7907,6.7907,6.7247,6.6508,6.6508,6.6439,6.6398,6.6411,6.6358,6.6303,6.6235,6.6205,6.6185,6.6185,6.6185,6.6185,6.6185,6.6185,6.6185,6.6185,6.6185,6.6165,6.6112,6.599,6.582,6.573,6.558,6.545,6.5413,6.5413,6.5413,6.5413,6.5413,6.5413,6.5413,6.545,6.5694,6.6101,6.6648,6.7496,6.8725,6.9198,6.9884,7.0801,7.0885,7.1145,4.1243,4.2486,4.4273,4.6672,4.8381,5.0056,5.2289,5.281,5.284,5.2741,5.2773,5.2355,5.0953,5.2048,0.0,5.89,5.9441,0.0,0.0,0.0,0.0,0.0,0.0,0.0,0.0,0.0,0.0,0.0,0.0,0.0,6.8921,6.8688,6.8576,6.8576,6.8367,6.7887,6.7198,6.7161,6.6639,6.556,6.5431,6.5473,6.5659,6.5659,6.5955,6.6431,6.5966,6.5837,6.5971,6.5507,6.5966,6.7007,6.7295,6.7972,6.884,6.9023,6.9111,6.9111,6.9111,6.9111,6.9111,6.9111,6.9111,6.9111,6.9111,6.9111,6.9111,6.9111,6.814,6.7122,6.7076,6.6888,6.6691,6.6687,6.6477,6.6274,6.6195,6.6185,6.6185,6.6185,6.6185,6.6185,6.6185,6.6185,6.6185,6.6185,6.6185,6.6185,6.6185,6.6001,6.587,6.587,6.5608,6.542,6.5413,6.5413,6.5429,6.542,6.5429,6.5505,6.5741,6.5858,6.6294,6.7102,6.7483,6.8268,6.9462,6.9742,7.0271,7.0952,7.1056,7.1118,4.2275,4.4574,4.7025,4.8406,4.7751,4.804,5.2808,5.2339,5.1548,5.3844,5.4412,5.4075,5.2679,5.3757,5.5689,5.8364,6.0035,0.0,0.0,0.0,0.0,0.0,0.0,0.0,0.0,0.0,0.0,0.0,0.0,0.0,6.8921,6.8059,6.758,6.758,6.6779,6.6263,6.6202,6.6202,6.65,6.7131,6.7131,6.7503,6.8246,6.8246,6.7663,6.6683,6.6629,6.6579,6.6544,6.6506,6.7161,6.8193,6.8474,6.8772,6.9048,6.9103,6.9111,6.9111,6.9111,6.9111,6.9111,6.9111,6.9111,6.9111,6.9111,6.9111,6.9111,6.9111,6.8995,6.8901,6.8821,6.8157,6.7492,6.7523,6.6854,6.6195,6.6185,6.6185,6.6185,6.6185,6.6185,6.6185,6.6185,6.6185,6.6185,6.6185,6.6185,6.6185,6.6185,6.608,6.599,6.599,6.5756,6.5523,6.5429,6.5413,6.5435,6.558,6.545,6.5833,6.6758,6.6811,6.725,6.8256,6.9013,6.9488,6.959,7.0398,7.0888,7.1081,7.1093,7.1166,4.2447,4.5394,4.8409,4.929,5.0141,5.1557,5.4772,5.534,5.5456,5.644,5.6779,5.6663,5.5835,0.0,5.9181,6.011,0.0,0.0,0.0,0.0,0.0,0.0,0.0,0.0,0.0,0.0,0.0,0.0,0.0,0.0,6.865,6.8304,6.8132,6.8132,6.7787,6.7614,6.7614,6.7094,6.702,6.7317,6.7317,6.7465,6.78,6.8283,6.8325,6.7972,6.7091,6.7164,6.7845,6.6964,6.7662,6.9385,7.0186,7.0568,7.0665,7.0665,7.0665,7.0665,7.0665,7.0665,7.0665,7.0665,7.0665,7.0665,7.0665,7.0665,7.0665,7.0665,7.0641,7.0382,6.9278,6.87,6.8413,6.8365,6.8083,6.781,6.781,6.7384,6.6998,6.6998,6.6572,6.6185,6.6185,6.6185,6.6185,6.6185,6.6185,6.6185,6.6185,6.6024,6.5919,6.6001,6.5769,6.5537,6.5429,6.5977,6.637,6.6413,6.637,6.6528,6.7011,6.7603,6.8334,6.9142,6.9615,7.0076,7.0529,7.0964,7.1178,7.1224,7.1224,7.1247,4.3129,4.5602,4.8218,5.0076,5.1548,5.3228,5.6108,5.7037,5.7519,5.8487,5.8739,5.8782,5.8693,6.0072,0.0,0.0,0.0,0.0,0.0,0.0,0.0,0.0,0.0,0.0,0.0,0.0,0.0,0.0,0.0,0.0,0.0,6.8481,6.837,6.811,6.8134,6.8057,6.7924,6.7402,6.7195,6.7292,6.7434,6.7421,6.7317,6.7874,6.8115,6.8084,6.6938,6.7239,6.8524,6.764,6.8511,7.0486,7.1287,7.1556,7.1556,7.152,7.1529,7.1556,7.1556,7.1573,7.1598,7.1598,7.1598,7.1598,7.1598,7.1598,7.1598,7.1581,7.1594,7.1326,7.0087,6.9517,6.9246,6.9187,6.8991,6.8816,6.8816,6.8352,6.7926,6.7926,6.7423,6.692,6.667,6.6621,6.6505,6.6283,6.6466,6.6611,6.6611,6.6703,6.6752,6.6752,6.6589,6.6399,6.6193,6.6878,6.7323,6.7379,6.7651,6.7846,6.7962,6.8601,6.9357,7.0118,7.0324,7.0672,7.1242,7.1327,7.1358,7.1358,7.1358,7.1327,4.4602,4.5349,4.6428,5.0904,5.1369,5.1983,5.6549,5.6658,5.6684,5.9782,6.0151,6.0184,6.1038,6.1224,0.0,0.0,0.0,0.0,0.0,0.0,0.0,0.0,0.0,0.0,0.0,0.0,0.0,0.0,0.0,0.0,0.0,6.8506,6.8134,6.7354,6.7317,6.7127,6.6729,6.6729,6.6914,6.7313,6.7723,6.771,6.7317,6.7317,6.709,6.6687,6.6144,6.6831,6.8321,6.8613,6.9847,7.1589,7.1532,7.1494,7.1485,7.1334,7.1405,7.1494,7.1494,7.152,7.1598,7.1598,7.1598,7.1598,7.1598,7.1598,7.1589,7.1616,7.1598,7.158,7.1445,7.0756,7.0088,7.0036,6.9396,6.8816,6.8816,6.8816,6.8816,6.8777,6.8777,6.8517,6.7726,6.7531,6.7212,6.6409,6.6989,6.7501,6.7501,6.8236,6.8679,6.8424,6.8385,6.8276,6.7928,6.8104,6.8287,6.8385,6.9309,6.9806,6.9806,6.9806,7.029,7.1291,7.1302,7.1368,7.1481,7.1481,7.1481,7.1481,7.1481,7.1425,4.4943,4.7943,5.0733,5.0968,5.3807,5.6603,5.6849,5.6793,5.767,6.1092,6.219,6.2264,6.1373,6.2153,0.0,0.0,0.0,0.0,0.0,0.0,0.0,0.0,0.0,0.0,0.0,0.0,0.0,0.0,0.0,0.0,0.0,6.8763,6.8795,6.8593,6.8821,6.8935,6.881,6.8262,6.8016,6.8129,6.8281,6.81,6.771,6.804,6.8095,6.7947,6.7746,6.8396,6.9643,7.0423,7.109,7.1598,7.1573,7.1556,7.1556,7.1529,7.1538,7.1556,7.1556,7.1581,7.1598,7.1598,7.1598,7.1598,7.1598,7.1598,7.1589,7.1616,7.158,7.1494,7.1435,7.1151,7.0926,7.0915,7.0711,7.0402,6.9783,6.9203,6.8622,6.8003,6.7384,6.6882,6.667,6.6582,6.6505,6.6283,6.6428,6.6773,6.7277,6.768,6.8033,6.836,6.8398,6.8358,6.8252,6.8817,6.9257,6.9386,7.0328,7.059,6.9971,7.0551,7.1025,7.1434,7.1443,7.1489,7.1647,7.1647,7.1647,7.1641,7.1536,7.1495,4.6375,4.9179,5.184,5.3076,5.5752,5.8187,5.8644,5.8923,5.979,6.2369,6.3267,6.3305,6.2339,6.297,0.0,0.0,0.0,0.0,0.0,0.0,0.0,0.0,0.0,0.0,0.0,0.0,0.0,0.0,0.0,0.0,0.0,6.9085,6.9176,6.9306,6.9567,6.9777,6.9941,6.9447,6.9306,6.9442,6.9306,6.9073,6.8868,6.8591,6.8481,6.8399,6.8767,6.9428,7.0247,7.1223,7.1598,7.1598,7.1556,7.152,7.1484,7.1407,7.1455,7.1493,7.1493,7.1538,7.1598,7.1598,7.1598,7.1598,7.1598,7.1589,7.1603,7.1589,7.1504,7.1445,7.1394,7.1324,7.1291,7.1291,7.1291,7.1059,7.017,6.9649,6.9069,6.8197,6.7598,6.7144,6.6796,6.6737,6.6621,6.6293,6.6525,6.7047,6.7796,6.8285,6.8689,6.8974,6.9296,6.9489,6.9411,6.9874,7.0208,7.0295,7.0954,7.1102,7.0612,7.1116,7.1443,7.1573,7.158,7.1608,7.1725,7.1725,7.1725,7.172,7.1647,7.158,4.8433,4.9647,5.1234,5.621,5.7204,5.784,6.1315,6.211,6.2424,6.3408,0.0,6.3602,6.3602,6.3676,0.0,0.0,0.0,0.0,0.0,0.0,0.0,0.0,0.0,0.0,0.0,0.0,0.0,0.0,0.0,0.0,0.0,6.933,6.933,6.9626,6.9758,6.9977,7.0353,7.0353,7.0547,7.0898,7.0547,7.0337,7.0266,6.9145,6.8546,6.8489,6.9467,7.0085,7.0471,7.1287,7.1598,7.1589,7.1541,7.1445,7.1302,7.119,7.1224,7.1313,7.1324,7.1455,7.1598,7.1598,7.1598,7.1598,7.1598,7.1603,7.1589,7.1504,7.1455,7.1366,7.1313,7.1291,7.1291,7.1291,7.1264,7.0954,7.0064,6.9864,6.9613,6.8749,6.8586,6.8355,6.7619,6.7425,6.7134,6.6409,6.6961,6.7813,6.8704,6.9556,7.0041,6.991,7.066,7.1091,7.0837,7.1005,7.1106,7.1118,7.1247,7.1388,7.1497,7.1489,7.1566,7.1716,7.1716,7.1768,7.1839,7.1839,7.1839,7.1836,7.1725,7.1716,4.9135,5.2032,5.5176,5.6237,5.8044,6.0173,6.2422,6.3076,6.3311,6.3542,6.3602,6.3602,6.3602,0.0,0.0,0.0,0.0,0.0,0.0,0.0,0.0,0.0,0.0,0.0,0.0,0.0,0.0,0.0,0.0,0.0,6.8717,6.9525,6.9815,6.9234,7.0141,7.069,7.0762,7.0762,7.0805,7.0898,7.0791,7.0608,7.0266,6.9697,6.9708,7.0171,7.0452,7.0859,7.1326,7.152,7.1598,7.1598,7.1581,7.1511,7.1465,7.1484,7.1474,7.1475,7.1511,7.1564,7.1598,7.1598,7.1598,7.1589,7.1594,7.1607,7.1589,7.1455,7.1425,7.1366,7.1313,7.1291,7.1291,7.1291,7.0821,7.0117,6.9265,6.8578,6.7891,6.7029,6.6835,6.6767,6.6613,6.6564,6.6467,6.6244,6.6467,6.7202,6.8675,6.9024,6.9362,6.999,7.0711,7.0884,7.0247,7.0756,7.1142,7.1247,7.1368,7.1505,7.1653,7.1551,7.1576,7.1767,7.1771,7.1841,7.1951,7.1951,7.1951,7.1951,7.1839,7.1777,5.03,5.2769,5.5249,5.7618,5.9285,6.0832,6.2438,6.3214,6.3602,6.3602,6.3602,6.3713,0.0,0.0,0.0,0.0,0.0,0.0,0.0,0.0,0.0,0.0,0.0,0.0,0.0,0.0,0.0,0.0,0.0,6.9285,6.9033,6.9447,6.962,6.9389,7.0008,7.0321,7.0321,7.0321,7.0321,7.0321,7.0706,7.0819,7.0681,7.0282,7.0448,7.1074,7.1104,7.13,7.1598,7.1598,7.1598,7.1598,7.1598,7.1511,7.1435,7.1532,7.1436,7.1324,7.1484,7.1529,7.1577,7.1589,7.1581,7.1594,7.1607,7.1571,7.1485,7.1435,7.1394,7.1334,7.1302,7.1291,7.1186,7.0821,7.0715,7.0328,6.9081,6.8491,6.7851,6.6573,6.6358,6.6367,6.6349,6.634,6.6322,6.6274,6.6331,6.6871,6.8133,6.8607,6.915,7.0021,7.0789,7.1104,7.0672,7.0965,7.1224,7.1291,7.1368,7.1473,7.1694,7.1634,7.1682,7.1902,7.1902,7.1948,7.1992,7.1992,7.1992,7.1992,7.1854,7.1811,5.0988,5.2761,5.452,5.9247,6.0382,6.0769,6.2079,6.3044,6.3602,6.3602,6.3602,0.0,0.0,0.0,0.0,0.0,0.0,0.0,0.0,0.0,0.0,0.0,0.0,0.0,0.0,0.0,0.0,0.0,0.0,6.9436,6.9462,6.9313,6.9221,6.9231,6.9398,6.9488,6.9515,6.9515,6.9592,6.9746,7.0554,7.1018,7.1166,7.0823,7.0965,7.1494,7.1513,7.1568,7.1598,7.1598,7.1598,7.1598,7.1598,7.1484,7.1313,7.1455,7.1313,7.1142,7.1415,7.1494,7.1504,7.1603,7.1594,7.1598,7.158,7.1485,7.1415,7.1405,7.1334,7.1291,7.1291,7.1291,7.1109,7.0455,7.0715,7.0627,6.8985,6.8529,6.8053,6.6665,6.6381,6.6389,6.6403,6.6403,6.6385,6.6331,6.6367,6.6695,6.7503,6.8374,6.9149,6.9837,7.063,7.1151,7.107,7.1059,7.1137,7.1291,7.1327,7.1478,7.1694,7.1736,7.1819,7.1992,7.1836,7.1719,7.1562,7.1719,7.1797,7.1797,7.1822,7.1906,4.961,5.2688,5.6503,5.9626,6.0382,6.0769,6.2079,0.0,6.3602,0.0,0.0,0.0,0.0,0.0,0.0,0.0,0.0,0.0,0.0,0.0,0.0,0.0,0.0,0.0,0.0,0.0,0.0,0.0,7.0728,7.005,6.8654,6.9242,6.8935,6.7475,6.8167,6.8642,6.8755,6.8755,6.9102,6.9796,7.0644,7.1201,7.1445,7.1386,7.1435,7.1494,7.1547,7.1589,7.1598,7.1598,7.1598,7.1598,7.1598,7.1484,7.1313,7.1455,7.1313,7.1142,7.1415,7.1494,7.1504,7.1598,7.1607,7.1589,7.1465,7.1425,7.1405,7.1324,7.1302,7.1291,7.1291,7.1291,7.1253,7.1186,7.0676,6.9837,6.8196,6.7243,6.6661,6.6437,6.6398,6.6398,6.6398,6.6469,6.6469,6.6385,6.6445,6.6788,6.7601,6.8411,6.8926,6.9033,6.9739,7.018,7.018,7.017,7.0479,7.1253,7.1505,7.1665,7.17,7.188,7.1951,7.1992,7.125,7.0547,6.9844,7.0547,7.0859,7.0898,7.164,7.1992,5.0336,5.3813,5.718,6.0274,6.0845,6.0932,6.2138,6.2673,6.3082,0.0,0.0,0.0,0.0,0.0,0.0,0.0,0.0,0.0,0.0,0.0,0.0,0.0,0.0,0.0,0.0,0.0,0.0,0.0,7.0475,6.9898,6.9167,6.9052,6.8629,6.7859,6.7744,6.7731,6.7853,6.7853,6.8544,6.9926,7.0313,7.0838,7.1494,7.1494,7.1523,7.1538,7.1581,7.1598,7.1598,7.1598,7.1598,7.1598,7.1598,7.152,7.1425,7.1475,7.1313,7.1142,7.1415,7.1435,7.1345,7.1523,7.1571,7.1475,7.1425,7.1066,7.0669,7.0648,7.0638,7.0638,7.0638,7.0638,7.0493,7.0059,6.9334,6.8458,6.7285,6.7082,6.6997,6.6555,6.6477,6.6477,6.6477,6.6493,6.6485,6.6428,6.6445,6.6911,6.816,6.8228,6.8529,6.9469,6.9856,7.0057,7.0057,7.0462,7.0905,7.1291,7.1397,7.1544,7.1677,7.1792,7.1657,7.1288,7.0898,7.0547,7.0156,7.0547,7.0703,7.0703,7.1601,7.1992,5.0483,5.3354,5.5719,5.9525,6.0153,6.0307,0.0,0.0,6.2636,0.0,0.0,0.0,0.0,0.0,0.0,0.0,0.0,0.0,0.0,0.0,0.0,0.0,0.0,0.0,0.0,0.0,0.0,0.0,7.036,6.9937,6.9706,6.909,6.8552,6.809,6.7667,6.7269,6.6966,6.7232,6.816,6.9709,6.9698,7.0341,7.1532,7.1299,7.1335,7.1598,7.1598,7.1598,7.1598,7.1598,7.1598,7.1598,7.1598,7.1529,7.1455,7.1455,7.1269,7.1093,7.1373,7.1324,7.1247,7.1485,7.1485,7.1415,7.1394,7.093,7.0349,7.0165,7.0088,7.0049,6.9837,6.9798,6.9653,6.9033,6.8273,6.7471,6.6656,6.699,6.7207,6.6617,6.6508,6.6508,6.6508,6.6508,6.6493,6.6406,6.6406,6.6838,6.8036,6.7851,6.8161,6.9595,6.9768,6.9951,7.0377,7.0733,7.1059,7.1291,7.1358,7.1489,7.1682,7.1764,7.1521,7.1053,7.082,7.0586,7.039,7.0586,7.0703,7.0703,7.1601,7.1992,4.8761,4.9751,5.1079,5.6071,5.7316,5.8178,0.0,0.0,0.0,0.0,0.0,0.0,0.0,0.0,0.0,0.0,0.0,0.0,0.0,0.0,0.0,0.0,0.0,0.0,0.0,0.0,0.0,0.0,7.086,7.0514,6.9744,6.9667,6.8898,6.7205,6.7936,6.7603,6.6079,6.7012,6.7977,6.8974,6.8965,6.9873,7.1551,7.0735,7.0813,7.1598,7.1598,7.1598,7.1598,7.1598,7.1598,7.1598,7.1598,7.1493,7.1302,7.1302,7.1142,7.0952,7.1224,7.1258,7.1236,7.1445,7.1455,7.1405,7.1313,7.1264,7.1081,7.031,7.0088,6.9904,6.9149,6.8965,6.8965,6.8887,6.8273,6.7471,6.6656,6.6547,6.6547,6.6508,6.6508,6.6508,6.6508,6.6508,6.6493,6.6406,6.6406,6.6428,6.6502,6.7154,6.7929,6.8781,6.8886,6.9512,7.1109,7.0529,7.0402,7.1253,7.1529,7.1689,7.17,7.1887,7.1953,7.1914,7.1133,7.0312,6.957,7.0312,7.0703,7.0703,7.1601,7.1992,4.7864,4.8898,5.0101,5.4437,5.6446,5.7814,5.9643,0.0,0.0,0.0,0.0,0.0,0.0,0.0,0.0,0.0,0.0,0.0,0.0,0.0,0.0,0.0,0.0,0.0,0.0,0.0,0.0,0.0,0.0,7.0783,7.0475,6.9975,6.9398,6.8783,6.8552,6.7911,6.685,6.7317,6.7735,6.8082,6.8625,6.9562,7.0782,7.0995,7.1266,7.1598,7.1598,7.1598,7.1598,7.1598,7.1598,7.1598,7.1598,7.1564,7.1484,7.1345,7.1236,7.1166,7.1224,7.119,7.1166,7.1355,7.1405,7.1324,7.1345,7.0958,7.0504,7.0283,7.0215,6.9963,6.9157,6.898,6.867,6.7618,6.7129,6.6843,6.654,6.6508,6.6508,6.6508,6.6508,6.6508,6.6508,6.6508,6.6501,6.6485,6.6422,6.6778,6.7859,6.7754,6.8123,6.9478,6.9652,6.9864,7.0493,7.0733,7.0982,7.1291,7.1486,7.1621,7.1682,7.1825,7.1908,7.1991,7.1679,7.1133,7.0273,7.0547,7.0703,7.0703,7.1601,7.1992,4.6195,4.7185,4.8362,5.1822,5.3901,5.5689,5.8141,0.0,0.0,0.0,0.0,0.0,0.0,0.0,0.0,0.0,0.0,0.0,0.0,0.0,0.0,0.0,0.0,0.0,0.0,0.0,0.0,0.0,0.0,0.0,7.0898,7.0398,7.009,7.009,6.9013,6.8167,6.7677,6.7564,6.7667,6.7948,6.8278,6.9234,7.0693,7.0977,7.1266,7.1598,7.1598,7.1598,7.1598,7.1598,7.1598,7.1598,7.1598,7.1581,7.1538,7.1366,7.1269,7.1224,7.119,7.1142,7.113,7.128,7.1313,7.1302,7.1313,7.0754,7.0088,7.0215,6.9788,6.9275,6.9067,6.8782,6.8333,6.72,6.6703,6.6508,6.6508,6.6508,6.6508,6.6508,6.6508,6.6508,6.6508,6.6508,6.6501,6.6485,6.6414,6.6791,6.7909,6.7503,6.7784,6.9487,6.968,6.9913,7.0455,7.1004,7.1291,7.1291,7.1478,7.1621,7.1687,7.1822,7.1907,7.1991,7.1992,7.1719,7.1133,7.1133,7.1133,7.1133,7.1719,7.1991,0.0,0.0,0.0,4.8167,0.0,0.0,0.0,0.0,0.0,0.0,0.0,0.0,0.0,0.0,0.0,0.0,0.0,0.0,0.0,0.0,0.0,0.0,0.0,0.0,0.0,0.0,0.0,0.0,7.0898,7.0898,7.0898,7.0898,7.0898,7.0898,6.9321,6.8462,6.8423,6.7716,6.7788,6.8571,6.7977,6.9004,7.1417,7.0654,7.0774,7.1598,7.1598,7.1598,7.1598,7.1598,7.1598,7.1598,7.1598,7.1547,7.1485,7.1334,7.1213,7.1106,7.1106,7.1093,7.1106,7.1178,7.1247,7.128,7.1224,7.0667,7.0064,7.0117,6.8975,6.791,6.8825,6.8419,6.779,6.779,6.713,6.6508,6.6508,6.6508,6.6508,6.6508,6.6508,6.6508,6.6508,6.6508,6.6493,6.6406,6.6411,6.6406,6.6351,6.6293,6.692,6.8661,6.8854,6.9551,7.1175,7.1291,7.1291,7.1253,7.1544,7.17,7.1661,7.1891,7.1992,7.1992,7.1992,7.1992,7.1992,7.1992,7.1992,7.1992,7.1992,7.1947,4.3788,0.0,0.0,0.0,0.0,0.0,0.0,0.0,0.0,0.0,0.0,0.0,0.0,0.0,0.0,0.0,0.0,0.0,0.0,0.0,0.0,0.0,0.0,0.0,0.0,0.0,0.0,0.0,7.0898,7.0898,7.0898,7.0898,7.0898,7.0898,7.0437,6.9937,6.936,6.918,6.8945,6.8598,6.9015,6.9623,7.0444,7.0739,7.1113,7.1532,7.1532,7.1577,7.1598,7.1598,7.1598,7.1598,7.1598,7.1581,7.1547,7.1406,7.1313,7.1224,7.113,7.1068,7.1043,7.1106,7.1178,7.1236,7.1258,7.1126,7.0965,7.1097,7.0748,7.0273,6.9989,6.8885,6.779,6.779,6.713,6.6508,6.6508,6.6508,6.6508,6.6508,6.6508,6.6508,6.6508,6.6508,6.6493,6.6406,6.6411,6.66,6.7164,6.7725,6.8506,6.9551,7.0247,7.0789,7.1253,7.1291,7.1021,7.0402,7.112,7.1329,7.077,7.1465,7.1906,7.1991,7.1992,7.1992,7.199,7.1992,7.1992,7.1992,7.1992,7.1897,4.3837,4.3913,4.4135,4.4618,0.0,0.0,0.0,5.3794,0.0,0.0,0.0,0.0,0.0,0.0,0.0,0.0,0.0,0.0,0.0,0.0,0.0,0.0,0.0,0.0,0.0,0.0,6.9959,7.0593,7.0791,7.0898,7.0898,7.0898,7.0898,7.0898,7.0898,7.0514,6.9706,6.9746,6.9515,6.9052,6.9577,7.0023,7.0479,7.0958,7.1291,7.1494,7.1494,7.155,7.1598,7.1598,7.1598,7.1598,7.162,7.1611,7.1586,7.1376,7.1291,7.1236,7.1081,7.1018,7.1005,7.1043,7.113,7.1213,7.1247,7.101,7.0838,7.1268,7.1113,7.063,6.9923,6.8743,6.7775,6.779,6.713,6.6508,6.6508,6.6493,6.6485,6.6501,6.6508,6.6508,6.6508,6.6508,6.6493,6.6406,6.6411,6.6678,6.7513,6.7996,6.87,6.986,7.044,7.0905,7.1253,7.0982,7.0711,7.0556,7.0804,7.0946,7.0843,7.1472,7.1856,7.1912,7.1953,7.199,7.1989,7.1992,7.1992,7.1992,7.1992,7.1891,4.3976,4.3945,4.3986,4.3986,4.4655,0.0,5.1713,5.3591,0.0,0.0,0.0,0.0,0.0,0.0,0.0,0.0,0.0,0.0,0.0,0.0,0.0,0.0,0.0,0.0,0.0,6.9588,6.9755,7.025,7.0652,7.0898,7.0898,7.0898,7.0898,7.0898,7.0898,7.0552,6.986,6.9821,6.9821,6.9821,6.9874,7.031,7.1081,7.1201,7.1313,7.1455,7.1465,7.1532,7.1573,7.1589,7.1598,7.1589,7.1586,7.1598,7.1571,7.1302,7.1224,7.1178,7.0992,7.0952,7.0992,7.0992,7.1081,7.119,7.119,7.0683,7.0264,7.0992,7.0717,7.0008,6.9363,6.8575,6.7967,6.7922,6.7278,6.6625,6.6508,6.6431,6.6414,6.6493,6.6501,6.654,6.661,6.6617,6.6641,6.667,6.6665,6.694,6.7658,6.7763,6.8352,6.9821,7.0092,7.044,7.1214,7.0595,7.044,7.1098,7.0621,7.0618,7.1358,7.1647,7.1809,7.1819,7.1952,7.1985,7.199,7.1992,7.1992,7.1992,7.1992,7.1887,4.4522,4.3897,4.3986,4.3986,4.4655,0.0,4.6921,4.8368,0.0,0.0,0.0,0.0,0.0,0.0,0.0,0.0,0.0,0.0,0.0,0.0,0.0,0.0,0.0,0.0,0.0,6.8735,6.9165,7.0211,7.0652,7.0898,7.0898,7.0898,7.0898,7.0898,7.0898,7.0821,7.0667,7.0667,7.0667,7.0667,7.0695,7.0785,7.0939,7.0965,7.1056,7.1178,7.128,7.1345,7.1376,7.1538,7.1611,7.1616,7.1607,7.158,7.1494,7.1415,7.1291,7.119,7.1093,7.1005,7.0925,7.0925,7.0979,7.1043,7.1043,7.0978,7.0922,7.1151,7.1164,7.1084,7.087,7.0302,6.9619,6.8855,6.8092,6.7363,6.6664,6.6431,6.6406,6.6414,6.6414,6.6639,6.7265,6.7446,6.767,6.8239,6.8336,6.8384,6.8566,6.9136,6.9628,6.9976,7.0634,7.1098,7.1291,7.1137,7.0827,7.0286,7.0793,7.0929,7.0614,7.1346,7.1795,7.195,7.1984,7.1986,7.1992,7.1992,7.1992,7.1992,7.19,7.181,4.4741,4.3929,4.3986,4.3986,0.0,0.0,0.0,0.0,0.0,0.0,0.0,0.0,0.0,0.0,0.0,0.0,0.0,0.0,0.0,0.0,0.0,0.0,0.0,0.0,0.0,6.8242,6.9084,7.0486,7.0777,7.0898,7.0898,7.0898,7.0898,7.0898,7.0898,7.0898,7.0898,7.0898,7.0898,7.0898,7.0857,7.0871,7.0898,7.0829,7.0912,7.1106,7.1142,7.1213,7.1302,7.1416,7.1426,7.1425,7.1504,7.1494,7.1445,7.1291,7.1213,7.1142,7.1043,7.0952,7.0898,7.0939,7.0979,7.1005,7.1043,7.1056,7.1068,7.1178,7.0954,7.064,7.0662,7.0078,6.9285,6.8461,6.7954,6.7462,6.6656,6.6461,6.6411,6.6411,6.6355,6.6609,6.7462,6.7984,6.8402,6.8752,6.881,6.8955,6.9368,6.9744,7.017,7.0595,7.1021,7.1291,7.1291,7.0905,7.0634,7.0634,7.0634,7.0748,7.0933,7.1399,7.1761,7.2016,7.1982,7.1989,7.1991,7.1992,7.1992,7.1992,7.1854,7.1757,0.0,0.0,0.0,0.0,0.0,4.4771,0.0,0.0,0.0,0.0,0.0,0.0,0.0,0.0,0.0,0.0,0.0,0.0,0.0,0.0,0.0,0.0,0.0,0.0,0.0,6.7445,6.882,7.0549,7.0514,7.0552,7.0898,7.0898,7.0898,7.0898,7.0898,7.0898,7.0898,7.0898,7.0898,7.0898,7.0829,7.0815,7.0871,7.0758,7.0829,7.1043,7.103,7.1106,7.1224,7.128,7.1258,7.1201,7.1405,7.1435,7.1334,7.119,7.1118,7.1081,7.0979,7.0925,7.0912,7.0965,7.0979,7.0992,7.1043,7.103,7.103,7.1142,7.0679,7.0153,7.017,6.9701,6.897,6.8249,6.7938,6.7635,6.6904,6.6553,6.6454,6.66,6.6709,6.7,6.7696,6.8403,6.8975,6.9236,6.9265,6.9526,7.018,7.0247,7.0518,7.1214,7.1137,7.1059,7.1059,7.0402,7.0286,7.1021,7.0556,7.0622,7.1473,7.1599,7.1739,7.2008,7.1984,7.1989,7.1989,7.1992,7.1992,7.1951,7.1841,7.1729,0.0,0.0,0.0,0.0,4.3986,0.0,0.0,0.0,0.0,0.0,0.0,0.0,0.0,0.0,0.0,0.0,0.0,0.0,0.0,0.0,0.0,0.0,0.0,0.0,0.0,0.0,6.7592,6.9679,6.9129,6.9321,7.0821,7.0898,7.0898,7.0898,7.0898,7.0898,7.0898,7.0898,7.0898,7.0898,7.0829,7.0801,7.0801,7.0787,7.0801,7.0843,7.1018,7.103,7.0965,7.1201,7.1224,7.113,7.1258,7.128,7.1236,7.1258,7.1201,7.1093,7.1081,7.1005,7.0898,7.0912,7.0912,7.0912,7.0925,7.0965,7.1005,7.1018,7.0991,7.0939,7.0889,7.0899,7.0733,6.9938,6.9246,6.8518,6.7726,6.6963,6.66,6.7329,6.8044,6.8555,6.8633,6.8751,6.9314,7.081,7.1031,7.107,7.1137,7.1137,7.1175,7.1291,7.0595,7.0131,7.0131,7.0054,7.0054,7.0131,7.0789,7.128,7.1473,7.1667,7.1835,7.2006,7.2017,7.1985,7.1989,7.1992,7.1949,7.18,7.1768,7.1653,0.0,0.0,0.0,0.0,0.0,0.0,4.6127,0.0,4.6309,0.0,0.0,0.0,0.0,0.0,0.0,0.0,0.0,0.0,0.0,0.0,0.0,0.0,0.0,0.0,0.0,0.0,0.0,0.0,0.0,6.8398,7.0129,7.0667,7.0898,7.0898,7.0898,7.0898,7.0898,7.0857,7.0829,7.0829,7.0752,7.0708,7.0729,7.0708,7.0737,7.0801,7.0885,7.0912,7.0912,7.103,7.1043,7.0992,7.1093,7.119,7.1258,7.1247,7.119,7.1093,7.1056,7.0979,7.0898,7.0898,7.0898,7.0898,7.0898,7.0925,7.0952,7.0992,7.1018,7.103,7.1005,7.1068,7.0934,7.0176,6.9797,6.9372,6.864,6.8157,6.7948,6.8249,6.8576,6.897,6.9435,6.992,7.0511,7.1186,7.1291,7.1291,7.1291,7.1291,7.1098,7.0595,7.0672,7.0556,7.0054,7.044,7.075,7.075,7.1258,7.1534,7.1554,7.1807,7.1953,7.1984,7.1988,7.1992,7.199,7.1986,7.1834,7.1577,7.1661,7.1634,4.9103,0.0,0.0,0.0,0.0,0.0,0.0,0.0,0.0,0.0,0.0,0.0,0.0,0.0,0.0,0.0,0.0,0.0,0.0,0.0,0.0,0.0,0.0,0.0,0.0,0.0,0.0,0.0,0.0,0.0,6.959,7.0475,7.0898,7.0898,7.0898,7.0898,7.0898,7.0829,7.0787,7.0787,7.0662,7.0616,7.0678,7.0632,7.0678,7.0758,7.0801,7.0857,7.0898,7.0898,7.0912,7.0925,7.0979,7.1106,7.1236,7.1213,7.1166,7.1093,7.1043,7.0979,7.0898,7.0898,7.0898,7.0898,7.0898,7.0898,7.0912,7.0965,7.0979,7.0979,7.0979,7.1043,7.0976,7.0485,7.0261,6.9983,6.9455,6.9136,6.8974,6.914,6.9177,6.9417,7.0219,7.0672,7.1021,7.1253,7.1291,7.1291,7.1291,7.1291,7.1059,7.0402,7.0711,7.0672,7.0054,7.0556,7.1059,7.1269,7.1439,7.1557,7.1585,7.18,7.1911,7.1991,7.1952,7.1946,7.2019,7.1906,7.1692,7.1412,7.1537,7.1513,0.0,0.0,0.0,4.7259,0.0,0.0,0.0,0.0,4.6329,0.0,0.0,0.0,0.0,0.0,0.0,4.5862,0.0,0.0,0.0,0.0,0.0,0.0,0.0,0.0,0.0,0.0,0.0,0.0,0.0,0.0,6.9513,7.0475,7.0898,7.0898,7.0898,7.0898,7.0898,7.0829,7.0787,7.0787,7.0662,7.0623,7.0623,7.0678,7.0708,7.0723,7.0829,7.0898,7.0898,7.0898,7.0939,7.1005,7.1005,7.1043,7.1118,7.1178,7.1166,7.1106,7.1093,7.1018,7.0898,7.0898,7.0898,7.0898,7.0898,7.0898,7.0898,7.0898,7.0898,7.0898,7.0898,7.1005,7.113,7.1231,7.0718,7.0224,7.024,6.9589,6.9213,6.9924,7.0059,7.031,7.1109,7.0595,7.0324,7.1175,7.1291,7.1291,7.1291,7.1291,7.1291,7.1253,7.0518,7.0015,6.9976,7.0015,7.038,7.1136,7.1224,7.132,7.1569,7.1626,7.1741,7.1992,7.1809,7.1795,7.2019,7.1627,7.1412,7.1403,7.1412,7.1241,0.0,0.0,5.7731,5.2624,0.0,0.0,0.0,0.0,0.0,0.0,0.0,0.0,0.0,0.0,0.0,0.0,0.0,0.0,0.0,0.0,0.0,0.0,0.0,0.0,0.0,0.0,0.0,0.0,0.0,0.0,0.0,6.9629,7.036,7.0898,7.0898,7.0898,7.0898,7.0829,7.0787,7.0787,7.0662,7.0616,7.0678,7.0708,7.0699,7.0758,7.0857,7.0898,7.0898,7.0898,7.0912,7.0939,7.0939,7.0925,7.0925,7.113,7.1166,7.1093,7.1056,7.0979,7.0898,7.0898,7.0898,7.0898,7.0898,7.0898,7.0898,7.0898,7.0898,7.0898,7.0898,7.0965,7.1081,7.1258,7.1162,7.1,7.1123,7.0854,7.0632,7.0831,7.0866,7.091,7.1197,7.1004,7.0899,7.1253,7.1291,7.1291,7.1291,7.1291,7.1059,7.0479,7.0672,7.0634,7.0054,7.0518,7.096,7.1174,7.1278,7.1392,7.1569,7.1653,7.1774,7.1987,7.1786,7.1745,7.1815,7.151,7.1308,7.1201,7.1158,7.1038,5.9967,6.1171,0.0,5.6831,5.6907,0.0,5.2214,0.0,0.0,0.0,0.0,0.0,0.0,0.0,0.0,0.0,0.0,0.0,0.0,0.0,0.0,0.0,0.0,0.0,0.0,0.0,0.0,0.0,0.0,0.0,0.0,0.0,6.991,7.0475,7.0717,7.0871,7.0898,7.0801,7.0758,7.0743,7.0616,7.0569,7.0593,7.0693,7.0699,7.0758,7.0857,7.0898,7.0898,7.0898,7.0898,7.0898,7.0898,7.0871,7.0857,7.1043,7.1068,7.103,7.1005,7.0952,7.0898,7.0898,7.0898,7.0898,7.0898,7.0898,7.0898,7.0871,7.0885,7.0898,7.0871,7.0952,7.1068,7.1201,7.1291,7.1405,7.1475,7.1435,7.1334,7.1269,7.1236,7.1201,7.1178,7.1166,7.119,7.1258,7.1269,7.1269,7.1269,7.1269,7.1037,7.0496,7.0899,7.0992,7.0451,7.0915,7.1201,7.1142,7.1288,7.14,7.1556,7.1605,7.1725,7.1903,7.1633,7.1544,7.1576,7.131,7.1142,7.105,7.0953,7.086]}]]